     2.11           OBSERVATION DATA    G (GPS)             RINEX VERSION / TYPE
teqc 2010Oct21 OPUS Account 20111027 20:39:06UTC            PGM / RUN BY / DATE
A 1382                                                      MARKER NAME
2122                                                        MARKER NUMBER
CSMIDDLETON NGS                                             OBSERVER / AGENCY
4624K01648 TRIMBLE NETR5 4.41                               REC # / TYPE / VERS
60165452 TRM41249.00 NONE                                   ANT # / TYPE
  -759229.8035 -5558514.8544  3024311.0063                  APPROX POSITION XYZ
        2.0000        0.0000        0.0000                  ANTENNA: DELTA H/E/N
     1     1                                                WAVELENGTH FACT L1/2
     5    L1    L2    C1    P1    P2                        # / TYPES OF OBSERV
    15                                                      LEAP SECONDS
  2011     8    20     0     0    0.0000000     GPS         TIME OF FIRST OBS
                                                            END OF HEADER
 11  8 20  0  0  0.0000000  0  7G10G12G17G04G05G09G02
 110327238.83418  85969373.57756  20994568.594                    20994576.629
 115475275.12918  89980817.98817  21974216.180                    21974223.922
 119802085.25817  93352353.58417  22797576.086                    22797584.266
 111037232.61418  86522610.30756  21129666.398                    21129674.141
 119437060.35217  93067911.87617  22728111.352                    22728121.570
 121284535.11917  94507491.33054  23079686.680                    23079696.219
 108620729.68718  84639627.95056  20669822.484                    20669827.828
 11  8 20  0  0 30.0000000  0  7G10G12G17G04G05G09G02
 110302098.863 8  85949784.00646  20989784.734                    20989792.762
 115399732.548 8  89921953.668 7  21959841.023                    21959848.637
 119848788.157 7  93388745.402 7  22806463.383                    22806471.766
 111106633.138 8  86576688.62346  21142872.813                    21142880.941
 119337259.035 7  92990144.706 7  22709120.094                    22709129.977
 121353099.121 7  94560917.76044  23092733.141                    23092743.688
 108607793.189 8  84629547.57746  20667360.977                    20667366.363
 11  8 20  0  1  0.0000000  0  7G10G12G17G04G05G09G02
 110277554.582 8  85930658.61046  20985113.813                    20985122.031
 115324516.572 7  89863343.841 7  21945527.961                    21945535.414
 119895621.524 7  93425238.886 7  22815375.195                    22815383.656
 111176258.245 8  86630941.93746  21156121.883                    21156130.266
 119237641.212 7  92912520.516 6  22690163.313                    22690172.824
 121421967.457 7  94614581.33144  23105838.844                    23105848.863
 108595187.279 8  84619724.80546  20664961.883                    20664967.410
 11  8 20  0  1 30.0000000  0  7G10G12G17G04G05G09G02
 110253607.843 8  85911998.82846  20980556.953                    20980564.746
 115249629.993 8  89804990.688 7  21931277.281                    21931284.695
 119942586.021 7  93461834.566 7  22824312.516                    22824320.750
 111246105.676 8  86685368.49546  21169413.750                    21169421.723
 119138209.791 7  92835041.586 7  22671242.156                    22671251.801
 121491137.137 7  94668479.70344  23119001.813                    23119012.180
 108582910.961 8  84610158.85946  20662625.766                    20662631.523
 11  8 20  0  2  0.0000000  0  7G10G12G17G04G05G09G02
 110230260.233 8  85893805.90846  20976114.000                    20976122.402
 115175075.521 7  89746896.307 7  21917089.734                    21917097.402
 119989682.493 7  93498533.074 7  22833274.625                    22833283.023
 111316173.194 8  86739966.54546  21182746.961                    21182754.875
 119038967.984 7  92757710.405 7  22652357.203                    22652366.691
 121560604.782 7  94722610.26344  23132221.141                    23132230.668
 108570963.681 8  84600849.29746  20660352.086                    20660357.867
 11  8 20  0  2 30.0000000  0  7G10G12G17G04G05G09G02
 110207512.919 7  85876080.75346  20971785.219                    20971793.215
 115100855.773 8  89689062.775 7  21902966.500                    21902974.031
 120036911.218 7  93535334.642 6  22842261.898                    22842270.102
 111386458.684 8  86794734.44146  21196121.930                    21196129.887
 118939918.823 7  92680529.339 7  22633508.781                    22633518.074
 121630367.029 7  94776970.38344  23145496.453                    23145506.555
 108559344.333 8  84591795.27746  20658140.984                    20658146.762
 11  8 20  0  3  0.0000000  0  7G10G12G17G04G05G09G02
 110185367.212 8  85858824.38046  20967571.063                    20967578.945
 115026973.081 7  89631491.868 7  21888907.195                    21888914.293
 120084273.092 7  93572239.974 7  22851274.313                    22851283.371
 111456959.794 8  86849670.36246  21209537.602                    21209546.180
 118841065.080 7  92603500.535 7  22614696.781                    22614706.316
 121700420.449 7  94831557.37444  23158827.086                    23158837.656
 108548051.987 8  84582996.05846  20655992.234                    20655997.859
 11  8 20  0  3 30.0000000  0  7G10G12G17G04G05G09G02
 110163824.812 8  85842038.10546  20963471.750                    20963479.445
 114953430.632 8  89574186.086 7  21874912.391                    21874919.941
 120131769.069 7  93609249.773 7  22860312.961                    22860321.445
 111527674.659 8  86904772.82946  21222994.664                    21223002.727
 118742410.248 7  92526626.732 7  22595923.406                    22595933.258
 121770761.927 7  94886368.81944  23172212.445                    23172223.367
 108537086.419 8  84574451.47546  20653905.570                    20653911.371
 11  8 20  0  4  0.0000000  0  8G10G30G12G17G04G05G09G02
 110142886.833 8  85825722.82046  20959487.414                    20959495.539
 128083713.72915                  24373530.328
 114880230.790 8  89517147.280 7  21860982.492                    21860989.973
 120179399.859 7  93646364.626 7  22869376.984                    22869385.652
 111598600.903 8  86960040.01546  21236491.172                    21236499.965
 118643957.449 7  92449910.358 7  22577188.430                    22577198.270
 121841388.006 7  94941402.06744  23185652.656                    23185662.523
 108526446.755 8  84566160.82446  20651881.117                    20651886.438
 11  8 20  0  4 30.0000000  0  8G10G30G12G17G04G05G09G02
 110122554.394 8  85809879.37646  20955618.109                    20955625.977
 127978231.505 5                  24353456.586
 114807376.084 8  89460377.395 7  21847118.500                    21847125.949
 120227165.755 7  93683584.762 7  22878466.469                    22878475.316
 111669736.354 8  87015470.21446  21250027.844                    21250036.016
 118545709.386 7  92373353.517 7  22558492.898                    22558502.215
 121912295.672 7  94996654.71644  23199145.875                    23199155.863
 108516131.728 8  84558123.15146  20649918.016                    20649923.633
 11  8 20  0  5  0.0000000  0  8G10G30G12G17G04G05G09G02
 110102828.902 8  85794508.88646  20951864.352                    20951872.266
 127872919.046 4                  24333414.836
 114734869.166 8  89403878.537 7  21833320.930                    21833328.992
 120275067.594 7  93720910.830 7  22887581.695                    22887590.668
 111741078.993 8  87071061.86946  21263603.930                    21263612.039
 118447669.556 7  92296958.931 7  22539836.141                    22539846.027
 121983481.445 7  95052124.06944  23212691.633                    23212702.039
 108506140.596 8  84550337.86146  20648016.922                    20648022.668
 11  8 20  0  5 30.0000000  0  8G10G30G12G17G04G05G09G02
 110083711.562 8  85779612.29146  20948226.680                    20948234.164
 127767778.628 4                  24313407.492
 114662712.079 8  89347652.267 7  21819590.172                    21819597.484
 120323105.839 7  93758343.163 7  22896722.922                    22896732.391
 111812625.873 8  87126812.66146  21277218.953                    21277227.031
 118349840.082 7  92220728.281 7  22521219.805                    22521229.340
 122054941.559 7  95107807.17944  23226290.461                    23226300.895
 108496471.847 8  84542803.77546  20646176.844                    20646182.250
 11  8 20  0  6  0.0000000  0  8G10G30G12G17G04G05G09G02
 110065203.025 8  85765190.08346  20944704.398                    20944712.820
 127662812.86515                  24293433.977
 114590907.454 8  89291700.636 7  21805926.367                    21805933.734
 120371280.828 7  93795882.077 7  22905890.445                    22905899.348
 111884374.781 8  87182720.88446  21290872.117                    21290880.207
 118252223.948 7  92144663.848 7  22502644.266                    22502653.688
 122126672.450 7  95163701.29144  23239940.500                    23239949.699
 108487124.383 8  84535520.04446  20644398.336                    20644403.824
 11  8 20  0  6 30.0000000  0  8G10G30G12G17G04G05G09G02
 110047304.768 8  85751243.41146  20941298.344                    20941306.258
 127558024.981 4                  24273490.641
 114519458.416 8  89236026.100 7  21792329.609                    21792337.375
 120419593.499 7  93833528.280 7  22915084.203                    22915092.617
 111956323.750 8  87238784.99046  21304563.531                    21304572.031
 118154824.571 7  92068768.315 7  22484109.578                    22484118.984
 122198671.122 7  95219804.07044  23253641.516                    23253651.688
 108478097.791 8  84528486.34946  20642680.430                    20642685.961
 11  8 20  0  7  0.0000000  0  9G10G30G12G17G04G05G25G09G02
 110030017.859 8  85737773.10746  20938009.172                    20938017.160
 127453417.917 5                  24253585.461
 114448367.167 8  89180630.344 7  21778801.906                    21778809.809
 120468044.579 7  93871282.326 7  22924303.875                    22924313.094
 112028470.894 8  87295003.51846  21318293.211                    21318300.902
 118057644.795 7  91993043.892 7  22465616.828                    22465626.215
 129595970.92515 100984047.56215  24661324.172
 122270934.221 7  95276112.88444  23267393.164                    23267403.402
 108469391.041 8  84521701.87146  20641023.445                    20641028.961
 11  8 20  0  7 30.0000000  0  9G10G30G12G17G04G05G25G09G02
 110013343.149 8  85724779.84946  20934835.586                    20934843.559
 127348994.147 5                  24233715.359
 114377636.073 7  89125515.229 7  21765342.164                    21765350.027
 120516634.544 7  93909144.584 7  22933550.680                    22933559.410
 112100813.722 8  87351374.53846  21332059.117                    21332067.348
 117960687.505 7  91917492.836 7  22447166.375                    22447175.852
 129492711.172 5 100903585.505 5  24641674.180
 122343458.087 7  95332624.91844  23281193.547                    23281204.340
 108461003.236 8  84515165.92046  20639427.500                    20639432.531
 11  8 20  0  8  0.0000000  0  9G10G30G12G17G04G05G25G09G02
 109997281.905 8  85712264.62146  20931779.734                    20931787.574
 127244756.429 5  99151834.40552  24213881.195                    24213891.727
 114307267.681 8  89070682.752 7  21751951.422                    21751959.203
 120565364.005 7  93947115.561 7  22942823.875                    22942832.727
 112173349.750 8  87407896.09646  21345862.313                    21345870.402
 117863955.843 7  91842117.605 7  22428758.641                    22428768.633
 129389555.863 4 100823204.826 5  24622041.922
 122416239.442 7  95389337.58944  23295043.641                    23295054.285
 108452933.243 8  84508877.62746  20637891.586                    20637896.867
 11  8 20  0  8 30.0000000  0  9G10G30G12G17G04G05G25G09G02
 109981835.035 8  85700228.12346  20928839.867                    20928848.273
 127140707.430 6  99070757.34142  24194080.938                    24194091.602
 114237264.666 7  89016134.973 7  21738630.398                    21738637.516
 120614233.566 7  93985195.699 7  22952123.523                    22952132.594
 112246077.146 8  87464566.78046  21359701.922                    21359710.160
 117767452.688 7  91766920.415 7  22410395.359                    22410404.469
 129286507.316 5 100742907.323 5  24602433.273
 122489274.657 7  95446248.05644  23308942.070                    23308952.492
 108445179.937 8  84502836.09346  20636416.453                    20636421.750
 11  8 20  0  9  0.0000000  0  9G10G30G12G17G04G05G25G09G02
 109967003.043 8  85688670.74946  20926017.484                    20926025.730
 127036849.800 6  98989829.35342  24174317.508                    24174328.383
 114167629.251 8  88961873.650 7  21725378.922                    21725386.836
 120663243.591 7  94023385.290 7  22961449.383                    22961458.480
 112318993.246 8  87521384.49446  21373577.484                    21373585.805
 117671180.846 7  91691903.486 7  22392074.016                    22392084.340
 129183567.844 5 100662694.831 5  24582844.055
 122562560.226 7  95503353.64344  23322888.055                    23322898.094
 108437742.168 8  84497040.43546  20635000.797                    20635006.512
 11  8 20  0  9 30.0000000  0  9G10G30G12G17G04G05G25G09G02
 109952787.155 8  85677593.45546  20923312.039                    20923320.379
 126933186.319 5  98909052.58242  24154590.633                    24154601.766
 114098364.109 8  88907900.825 7  21712198.445                    21712206.133
 120712394.871 7  94061684.960 6  22970802.547                    22970811.379
 112392096.207 8  87578347.82246  21387488.359                    21387496.531
 117575143.355 7  91617069.150 7  22373798.672                    22373808.820
 129080740.011 6 100582569.359 5  24563276.648                    24563289.293
 122636093.190 7  95560652.00844  23336880.281                    23336891.027
 108430619.095 8  84491489.99846  20633645.492                    20633650.883
 11  8 20  0 10  0.0000000  0  9G10G30G12G17G04G05G25G09G02
 109939188.582 8  85666997.17846  20920724.891                    20920732.934
 126829719.93715  98828429.43852  24134902.805                    24134912.355
 114029471.629 8  88854218.404 7  21699088.203                    21699096.215
 120761687.833 7  94100095.022 6  22980182.945                    22980191.324
 112465383.562 8  87635454.82946  21401434.781                    21401442.410
 117479343.014 7  91542419.611 7  22355568.742                    22355578.371
 128978026.332 6 100502532.763 5  24543731.797                    24543743.883
 122709869.907 7  95618140.27444  23350919.898                    23350929.801
 108423809.624 8  84486183.92746  20632349.648                    20632355.270
 11  8 20  0 10 30.0000000  0  9G10G30G12G17G04G05G25G09G02
 109926207.806 8  85656882.30446  20918254.531                    20918262.797
 126726453.18915                  24115250.148
 113960954.057 7  88800828.108 7  21686050.203                    21686057.445
 120811123.305 7  94138616.161 6  22989590.477                    22989599.527
 112538852.996 8  87692703.72346  21415415.414                    21415423.297
 117383782.902 7  91467957.265 7  22337384.211                    22337393.727
 128875429.150 6 100422586.948 5  24524207.656                    24524219.938
 122783887.010 7  95675815.88444  23365004.688                    23365014.988
 108417312.916 8  84481121.57146  20631113.336                    20631119.160
 11  8 20  0 11  0.0000000  0  9G10G30G12G17G04G05G25G09G02
 109913845.705 8  85647249.52246  20915901.883                    20915910.207
 126623388.84415                  24095637.281
 113892814.341 7  88747732.240 7  21673083.508                    21673091.324
 120860701.781 6  94177248.726 7  22999023.891                    22999032.895
 112612502.720 8  87750093.09445  21429430.477                    21429438.766
 117288465.912 7  91393684.368 7  22319246.281                    22319255.977
 128772950.985 6 100342733.862 5  24504707.219                    24504719.262
 122858141.091 7  95733676.10144  23379134.539                    23379145.098
 108411127.657 8  84476301.89746  20629936.680                    20629941.996
 11  8 20  0 11 30.0000000  0  9G10G30G12G17G04G05G25G09G02
 109902103.498 8  85638099.76246  20913667.414                    20913675.688
 126520530.06515                  24076062.688
 113825054.723 7  88694932.571 7  21660189.422                    21660196.703
 120910424.167 6  94215993.394 6  23008486.133                    23008495.172
 112686330.556 8  87807621.25945  21443479.680                    21443487.824
 117193395.233 7  91319603.389 7  22301154.711                    22301164.352
 128670594.586 6 100262975.649 5  24485229.180                    24485241.539
 122932628.645 7  95791718.28344  23393309.617                    23393319.289
 108405253.213 8  84471724.41946  20628818.539                    20628823.953
 11  8 20  0 12  0.0000000  0  9G10G30G12G17G04G05G25G09G02
 109890981.890 8  85629433.58946  20911551.055                    20911559.340
 126417879.56615                  24056529.305
 113757677.801 7  88642431.084 7  21647367.398                    21647375.336
 120960290.662 7  94254850.380 6  23017975.789                    23017984.316
 112760334.378 8  87865286.56346  21457562.070                    21457570.816
 117098573.575 7  91245716.441 7  22283110.773                    22283120.000
 128568362.341 6 100183314.197 5  24465775.391                    24465787.188
 123007346.380 6  95849939.81944  23407527.844                    23407537.910
 108399688.232 8  84467388.08046  20627759.227                    20627764.938
 11  8 20  0 12 30.0000000  0  9G10G30G12G17G04G05G25G09G02
 109880481.683 8  85621251.62046  20909553.031                    20909560.918
 126315440.177 5                  24037035.102
 113690686.344 7  88590229.972 7  21634619.547                    21634627.133
 121010302.131 7  94293820.331 7  23027492.789                    23027501.539
 112834512.164 8  87923087.42045  21471677.680                    21471685.957
 117004004.697 7  91172026.490 7  22265115.180                    22265124.250
 128466256.871 6 100103751.548 5  24446344.859                    24446357.281
 123082291.087 7  95908338.18544  23421788.859                    23421800.160
 108394432.131 8  84463292.43146  20626759.344                    20626764.750
 11  8 20  0 13  0.0000000  0  9G10G30G12G17G04G05G25G09G02
 109870603.781 8  85613554.56846  20907673.156                    20907681.785
 126213214.911 5                  24017583.375
 113624082.785 7  88538331.108 7  21621945.266                    21621952.840
 121060459.567 7  94332904.010 6  23037037.320                    23037046.184
 112908861.750 8  87981022.15345  21485825.883                    21485834.477
 116909691.072 7  91098535.433 7  22247168.055                    22247176.930
 128364280.842 6 100024289.708 5  24426939.234                    24426951.328
 123157459.153 7  95966910.61844  23436093.336                    23436104.000
 108389483.756 8  84459436.56646  20625817.680                    20625823.141
 11  8 20  0 13 30.0000000  0  9G10G30G12G17G04G05G25G09G02
 109861349.029 8  85606343.07446  20905912.188                    20905920.320
 126111206.406 5  98268542.31452  23998172.273                    23998182.742
 113557869.319 7  88486736.214 7  21609345.438                    21609353.184
 121110763.338 7  94372101.719 6  23046610.234                    23046618.285
 112983380.975 8  88039089.07046  21500006.664                    21500015.020
 116815635.225 7  91025245.246 7  22229269.461                    22229278.738
 128262436.575 6  99944930.609 5  24407559.906                    24407571.141
 123232847.080 7  96025654.37044  23450439.172                    23450450.102
 108384841.881 8  84455819.54246  20624934.367                    20624939.813
 11  8 20  0 14  0.0000000  0  9G10G30G12G17G04G05G25G09G02
 109852717.675 8  85599617.34946  20904269.594                    20904277.531
 126009417.248 5  98189226.18042  23978803.242                    23978813.180
 113492048.379 7  88435447.185 7  21596820.336                    21596827.926
 121161213.727 7  94411413.682 6  23056209.719                    23056219.309
 113058067.498 8  88097286.34346  21514218.898                    21514227.387
 116721840.299 7  90952158.364 7  22211420.961                    22211429.668
 128160726.477 6  99865676.032 5  24388204.320                    24388216.133
 123308451.510 7  96084566.82844  23464827.094                    23464837.414
 108380505.437 8  84452440.50246  20624109.156                    20624114.582
 11  8 20  0 14 30.0000000  0  9G10G30G12G17G04G05G25G09G02
 109844710.059 7  85593377.66246  20902745.711                    20902754.230
 125907850.202 6  98110083.08242  23959475.102                    23959485.605
 113426622.184 7  88384465.746 7  21584369.758                    21584377.250
 121211811.259 7  94450840.323 6  23065838.102                    23065847.320
 113132919.034 8  88155612.20445  21528462.570                    21528471.410
 116628309.797 7  90879277.545 7  22193622.820                    22193631.328
 128059152.894 5  99786527.863 5  24368874.828                    24368887.906
 123384268.957 7  96143645.26244  23479254.320                    23479265.355
 108376473.228 8  84449298.54146  20623342.141                    20623347.570
 11  8 20  0 15  0.0000000  0  9G10G30G12G17G04G05G25G09G02
 109837327.537 8  85587625.06346  20901340.602                    20901348.766
 125806508.414 6  98031115.52243  23940190.992                    23940199.871
 113361593.760 7  88333794.259 7  21571995.242                    21572002.801
 121262556.962 7  94490382.383 6  23075495.359                    23075504.313
 113207933.965 8  88214065.38646  21542737.164                    21542746.086
 116535046.158 7  90806604.659 7  22175875.070                    22175884.195
 127957718.891 5  99707488.476 5  24349571.781                    24349585.410
 123460296.356 7  96202887.28244  23493721.391                    23493732.617
 108372744.545 8  84446393.08946  20622632.289                    20622637.723
 11  8 20  0 15 30.0000000  0  9G10G30G12G17G04G05G25G09G02
 109830570.623 8  85582359.93446  20900054.883                    20900063.324
 125705394.746 6  97952325.72143  23920949.336                    23920958.941
 113296965.533 7  88283434.618 7  21559696.867                    21559704.633
 121313451.393 7  94530040.351 6  23085180.031                    23085188.906
 113283110.210 8  88272644.26345  21557043.141                    21557051.820
 116442052.135 7  90734141.863 7  22158179.148                    22158187.531
 127856426.953 5  99628559.783 6  24330297.203                    24330310.367
 123536530.334 7  96262290.29344  23508228.750                    23508240.016
 108369318.265 8  84443723.27146  20621979.961                    20621985.613
 11  8 20  0 16  0.0000000  0  9G10G30G12G17G04G05G25G09G02
 109824439.741 7  85577582.63646  20898888.305                    20898896.555
 125604511.781 6  97873715.66843  23901752.375                    23901761.816
 113232739.714 7  88233388.537 7  21547475.078                    21547483.055
 121364495.116 7  94569814.628 6  23094893.305                    23094902.590
 113358445.500 8  88331347.06145  21571378.867                    21571387.473
 116349331.038 7  90661891.741 7  22140534.586                    22140543.617
 127755279.503 6  99549743.665 6  24311049.305                    24311062.375
 123612967.022 7  96321851.26044  23522774.195                    23522785.211
 108366193.218 8  84441288.17946  20621385.680                    20621390.922
 11  8 20  0 16 30.0000000  0  9G10G30G12G17G04G05G25G09G02
 109818935.682 8  85573293.76346  20897840.922                    20897849.199
 125503862.557 6  97795287.77043  23882599.094                    23882609.289
 113168918.697 7  88183657.884 7  21535330.258                    21535338.031
 121415688.922 7  94609705.851 6  23104635.539                    23104644.711
 113433937.591 8  88390172.05145  21585744.164                    21585752.879
 116256885.672 7  90589856.464 7  22122942.609                    22122951.836
 127654279.136 6  99471042.117 6  24291830.211                    24291842.594
 123689603.283 7  96381567.74844  23537357.336                    23537368.363
 108363368.538 8  84439087.14246  20620848.070                    20620853.148
 11  8 20  0 17  0.0000000  0  9G10G30G12G17G04G05G25G09G02
 109814058.278 7  85569493.21046  20896912.961                    20896920.766
 125403449.622 6  97717043.98343  23863490.961                    23863500.820
 113105504.578 8  88134244.298 7  21523262.844                    21523270.805
 121467032.720 7  94649713.964 6  23114405.164                    23114414.598
 113509584.648 8  88449117.79545  21600139.688                    21600148.117
 116164718.745 7  90518038.151 7  22105404.070                    22105412.840
 127553428.148 6  99392457.012 6  24272638.367                    24272649.938
 123766435.729 6  96441437.06244  23551978.234                    23551989.473
 108360842.606 8  84437118.90246  20620367.133                    20620372.922
 11  8 20  0 17 30.0000000  0  9G10G30G12G17G04G05G25G09G02
 109809808.564 8  85566181.75446  20896104.078                    20896112.168
 125303276.030 6  97638986.71743  23844429.227                    23844438.391
 113042500.179 8  88085149.980 7  21511273.641                    21511281.859
 121518527.577 7  94689839.781 7  23124204.992                    23124214.574
 113585384.504 8  88508182.60345  21614563.781                    21614572.164
 116072833.647 7  90446439.436 7  22087918.461                    22087927.480
 127452729.508 6  99313990.629 6  24253476.133                    24253488.211
 123843460.857 6  96501456.57144  23566635.266                    23566647.547
 108358614.892 8  84435383.03446  20619942.977                    20619948.883
 11  8 20  0 18  0.0000000  0  9G10G30G12G17G04G05G25G09G02
 109806186.881 8  85563359.67746  20895414.820                    20895422.820
 125203344.364 6  97561117.96642  23825412.656                    23825422.023
 112979907.680 8  88036376.604 7  21499363.156                    21499370.563
 121570173.931 7  94730083.650 6  23134033.039                    23134042.387
 113661335.034 8  88567364.81445  21629016.594                    21629024.945
 115981232.835 7  90375062.268 7  22070487.305                    22070496.281
 127352185.379 6  99235644.625 5  24234342.992                    24234355.645
 123920675.090 6  96561623.41144  23581329.781                    23581340.273
 108356683.555 8  84433878.11446  20619575.891                    20619581.211
 11  8 20  0 18 30.0000000  0  9G10G30G12G17G04G05G25G09G02
 109803193.796 8  85561027.40446  20894845.211                    20894853.637
 125103657.534 6  97483439.95642  23806442.359                    23806451.797
 112917729.459 8  87987926.058 7  21487530.688                    21487538.234
 121621972.384 7  94770446.061 6  23143890.063                    23143898.734
 113737434.210 8  88626662.85245  21643498.094                    21643506.535
 115889919.469 7  90303909.067 7  22053111.180                    22053119.695
 127251798.528 6  99157421.168 6  24215240.578                    24215251.980
 123998075.280 6  96621935.18143  23596057.281                    23596069.500
 108355047.924 8  84432603.61346  20619264.469                    20619270.148
 11  8 20  0 19  0.0000000  0  9G10G30G12G17G04G05G25G09G02
 109800829.733 7  85559185.28846  20894395.641                    20894403.316
 125004218.762 6  97405955.25542  23787519.344                    23787529.348
 112855968.350 8  87939800.542 7  21475777.852                    21475785.328
 121673923.801 7  94810927.628 6  23153775.766                    23153785.281
 113813680.273 8  88686075.34645  21658007.250                    21658015.609
 115798896.478 7  90232982.131 7  22035790.055                    22035798.395
 127151571.842 6  99079322.480 6  24196167.766                    24196179.754
 124075658.174 6  96682389.30644  23610820.961                    23610833.078
 108353707.432 7  84431559.08946  20619009.430                    20619014.617
 11  8 20  0 19 30.0000000  0  9G10G30G12G17G04G05G25G09G02
 109799095.010 8  85557833.55646  20894065.563                    20894073.566
 124905030.668 6  97328665.89942  23768644.898                    23768654.410
 112794626.580 8  87892001.774 7  21464105.250                    21464113.012
 121726028.672 7  94851528.804 6  23163691.094                    23163699.883
 113890071.204 8  88745600.71945  21672544.281                    21672552.477
 115708166.766 7  90162283.732 7  22018524.695                    22018533.328
 127051507.737 6  99001350.488 5  24177126.500                    24177137.785
 124153420.258 6  96742983.04144  23625618.758                    23625630.594
 108352660.663 8  84430743.44246  20618810.250                    20618815.844
 11  8 20  0 20  0.0000000  0  9G10G30G12G17G04G05G25G09G02
 109797989.669 8  85556972.26646  20893854.719                    20893862.711
 124806095.904 6  97251573.82842  23749819.180                    23749826.449
 112733705.986 8  87844531.204 7  21452512.234                    21452519.574
 121778287.215 7  94892249.673 6  23173635.547                    23173644.375
 113966604.520 8  88805237.04745  21687107.711                    21687116.160
 115617733.020 7  90091815.955 7  22001315.805                    22001324.117
 126951608.530 6  98923506.981 6  24158116.320                    24158127.563
 124231357.915 6  96803713.57244  23640450.641                    23640461.578
 108351906.010 8  84430155.41646  20618666.352                    20618672.188
 11  8 20  0 20 30.0000000  0  9G10G30G12G17G04G05G25G09G02
 109797514.370 8  85556601.91446  20893764.961                    20893772.848
 124707417.456 6  97174681.63142  23731040.461                    23731048.301
 112673209.470 8  87797391.080 7  21440999.945                    21441007.617
 121830700.397 7  94933091.058 6  23183609.844                    23183618.613
 114043278.321 8  88864982.85045  21701698.180                    21701706.820
 115527598.302 8  90021581.169 7  21984163.375                    21984172.355
 126851876.996 6  98845794.120 6  24139138.570                    24139149.922
 124309467.840 7  96864578.35244  23655314.375                    23655325.516
 108351442.785 8  84429794.47446  20618577.984                    20618583.883
 11  8 20  0 21  0.0000000  0  9G10G30G12G17G04G05G25G09G02
 109797668.980 8  85556722.39146  20893794.102                    20893801.820
 124608997.970 6  97097991.08842  23712311.711                    23712319.719
 112613138.816 8  87750582.790 7  21429568.867                    21429576.781
 121883268.631 7  94974053.271 6  23193613.273                    23193621.949
 114120090.546 8  88924836.50245  21716315.219                    21716323.797
 115437765.563 7  89951581.707 7  21967069.016                    21967077.418
 126752315.540 6  98768213.849 6  24120191.625                    24120203.738
 124387746.551 7  96925574.65543  23670210.719                    23670221.180
 108351269.634 8  84429659.56146  20618545.016                    20618551.313
 11  8 20  0 21 30.0000000  0  9G10G30G12G17G04G05G25G09G02
 109798453.942 8  85557334.06546  20893943.539                    20893951.477
 124510840.473 7  97021504.78443  23693634.047                    23693641.066
 112553496.715 8  87704108.453 7  21418219.695                    21418227.039
 121935992.383 7  95015136.665 6  23203645.984                    23203655.320
 114197039.471 8  88984796.66945  21730958.055                    21730967.004
 115348237.464 7  89881819.622 7  21950032.422                    21950040.375
 126652926.987 6  98690768.282 6  24101278.391                    24101290.496
 124466190.898 7  96986700.00743  23685137.477                    23685148.848
 108351385.569 8  84429749.90346  20618567.680                    20618573.465
 11  8 20  0 22  0.0000000  0  9G10G30G12G17G04G05G25G09G02
 109799869.713 7  85558437.26646  20894212.633                    20894220.707
 124412947.728 7  96945224.76143  23675005.328                    23675013.469
 112494285.571 8  87657969.905 7  21406952.320                    21406959.262
 121988872.315 7  95056341.770 6  23213709.234                    23213717.973
 114274122.938 8  89044861.68645  21745626.320                    21745635.094
 115259017.129 7  89812297.359 7  21933054.172                    21933062.938
 126553714.034 6  98613459.561 6  24082399.086                    24082410.867
 124544797.316 7  97047951.66643  23700096.180                    23700107.188
 108351789.498 7  84430064.65446  20618644.234                    20618650.129
 11  8 20  0 22 30.0000000  0  9G10G30G12G17G04G05G25G09G02
 109801916.686 8  85560032.31646  20894601.930                    20894610.203
 124315322.971 6  96869153.59843  23656427.570                    23656436.547
 112435507.865 8  87612169.128 7  21395766.945                    21395774.223
 122041909.007 7  95097669.018 6  23223801.430                    23223810.789
 114351339.364 8  89105030.29645  21760320.188                    21760328.891
 115170107.345 7  89743017.078 7  21916135.164                    21916143.668
 126454679.269 6  98536289.688 6  24063552.734                    24063565.250
 124623562.718 7  97109327.22443  23715085.625                    23715095.734
 108352480.633 8  84430603.20746  20618776.281                    20618781.746
 11  8 20  0 23  0.0000000  0  9G10G30G12G17G04G05G25G09G02
 109804594.589 8  85562119.00946  20895111.820                    20895120.012
 124217968.740 6  96793293.22143  23637901.445                    23637910.938
 112377165.618 8  87566707.643 7  21384664.742                    21384672.215
 122095103.166 7  95139118.950 6  23233924.141                    23233932.973
 114428686.406 8  89165300.68145  21775039.141                    21775047.305
 115081511.099 7  89673981.101 7  21899275.609                    21899284.379
 126355825.414 6  98459260.728 6  24044741.805                    24044753.629
 124702483.410 7  97170823.79243  23730103.375                    23730114.172
 108353457.709 8  84431364.56246  20618961.945                    20618967.531
 11  8 20  0 23 30.0000000  0  9G10G30G12G17G04G05G25G09G02
 109807903.519 7  85564697.39046  20895741.195                    20895749.762
 124120887.727 6  96717645.72843  23619428.539                    23619436.453
 112319260.976 7  87521587.169 7  21373645.891                    21373653.805
 122148455.154 7  95180691.892 6  23244077.445                    23244085.695
 114506162.273 8  89225671.44745  21789782.016                    21789790.785
 114993230.968 7  89605191.461 7  21882476.352                    21882485.223
 126257154.776 6  98382374.611 6  24025964.617                    24025977.387
 124781555.915 7  97232438.61543  23745150.289                    23745161.285
 108354719.122 8  84432347.49246  20619201.680                    20619207.406
 11  8 20  0 24  0.0000000  0  9G10G30G12G17G04G05G25G09G02
 109811843.485 8  85567767.49746  20896491.344                    20896499.484
 124024082.955 6  96642213.51643  23601005.891                    23601015.059
 112261796.493 8  87476809.663 7  21362710.570                    21362718.004
 122201965.509 7  95222388.232 6  23254259.531                    23254268.449
 114583764.801 8  89286140.91245  21804549.422                    21804558.480
 114905270.103 7  89536650.590 7  21865737.758                    21865746.672
 126158670.334 6  98305633.542 5  24007224.484                    24007236.121
 124860777.018 6  97294169.23843  23760225.359                    23760237.180
 108356264.003 8  84433551.29946  20619495.820                    20619501.445
 11  8 20  0 24 30.0000000  0  9G10G30G12G17G04G05G25G09G02
 109816414.864 8  85571329.62346  20897361.367                    20897369.422
 123927557.071 6  96566998.63243  23582637.422                    23582646.625
 112204774.185 8  87432376.712 7  21351859.617                    21351867.266
 122255634.895 7  95264208.496 6  23264472.430                    23264481.250
 114661492.034 8  89346707.55745  21819340.320                    21819349.047
 114817631.013 7  89468360.458 7  21849060.875                    21849069.559
 126060374.258 6  98229039.233 6  23988519.391                    23988530.742
 124940143.181 6  97356012.91643  23775328.336                    23775339.980
 108358090.907 8  84434974.87246  20619843.219                    20619848.832
 11  8 20  0 25  0.0000000  0  9G10G30G12G17G04G05G25G09G02
 109821617.740 8  85575383.81846  20898351.523                    20898359.422
 123831313.046 6  96492003.38743  23564323.094                    23564332.137
 112148196.412 7  87388290.158 7  21341093.133                    21341100.973
 122309463.780 7  95306153.029 6  23274715.773                    23274724.250
 114739342.109 8  89407369.92745  21834154.969                    21834163.660
 114730316.695 7  89400323.396 7  21832445.461                    21832454.113
 125962269.486 6  98152594.026 6  23969850.461                    23969861.508
 125019651.232 6  97417967.15043  23790458.203                    23790469.879
 108360198.837 8  84436617.41346  20620244.813                    20620250.094
 11  8 20  0 25 30.0000000  0  9G10G30G12G17G04G05G25G09G02
 109827451.876 8  85579929.90646  20899461.602                    20899469.367
 123735353.774 6  96417229.99743  23546063.570                    23546071.910
 112092065.459 8  87344551.775 7  21330412.109                    21330419.551
 122363452.992 7  95348222.504 6  23284989.367                    23284998.508
 114817313.014 8  89468126.44545  21848992.531                    21849001.320
 114643329.957 7  89332541.588 7  21815892.297                    21815900.926
 125864358.570 6  98076299.867 6  23951218.984                    23951229.820
 125099297.693 6  97480029.25543  23805613.984                    23805625.988
 108362586.915 8  84438478.26346  20620699.289                    20620704.902
 11  8 20  0 26  0.0000000  0  9G10G30G12G17G04G05G25G09G02
 109833917.335 8  85584967.93846  20900692.031                    20900700.066
 123639682.197 6  96342680.84943  23527856.336                    23527866.074
 112036383.776 7  87301163.472 7  21319815.984                    21319823.355
 122417602.737 7  95390417.067 6  23295293.453                    23295302.754
 114895403.127 8  89528975.85045  21863852.578                    21863860.910
 114556673.574 7  89265017.183 7  21799401.789                    21799411.082
 125766644.367 6  98000158.990 6  23932624.047                    23932636.270
 125179079.359 6  97542196.67343  23820796.516                    23820808.309
 108365254.048 8  84440556.55646  20621206.438                    20621212.504
 11  8 20  0 26 30.0000000  0  9G10G30G12G17G04G05G25G09G02
 109841014.209 8  85590497.97746  20902042.297                    20902050.477
 123544301.119 7  96268357.96043  23509706.477                    23509714.293
 111981153.508 8  87258126.911 7  21309305.930                    21309313.293
 122471913.542 7  95432737.131 6  23305629.031                    23305638.027
 114973610.383 8  89589916.54145  21878734.688                    21878743.664
 114470350.497 7  89197752.513 7  21782974.930                    21782983.695
 125669129.406 6  97924173.410 6  23914066.734                    23914079.578
 125258992.858 6  97604466.84943  23836003.836                    23836015.691
 108368198.878 8  84442851.23646  20621767.008                    20621772.500
 11  8 20  0 27  0.0000000  0  9G10G30G12G17G04G05G25G09G02
 109848742.219 8  85596519.82146  20903512.820                    20903521.422
 123449213.202 6  96194263.52543  23491611.609                    23491620.379
 111926376.473 8  87215443.538 7  21298882.336                    21298889.512
 122526385.934 7  95475183.109 6  23315994.133                    23316003.652
 115051933.040 8  89650947.16045  21893638.891                    21893648.043
 114384363.441 7  89130749.672 7  21766612.672                    21766621.258
 125571816.145 6  97848344.976 6  23895549.391                    23895560.496
 125339034.910 6  97666837.16543  23851235.250                    23851247.652
 108371420.198 8  84445361.35846  20622380.203                    20622385.766
 11  8 20  0 27 30.0000000  0  9G10G30G12G17G04G05G25G09G02
 109857100.894 8  85603033.07846  20905103.453                    20905111.695
 123354421.128 7  96120399.58243  23473573.813                    23473581.570
 111872054.949 8  87173115.083 7  21288545.344                    21288552.871
 122581020.621 7  95517755.544 6  23326391.125                    23326400.234
 115130368.846 8  89712065.94445  21908565.055                    21908573.828
 114298714.988 8  89064010.680 7  21750314.430                    21750322.563
 125474707.226 6  97772675.741 6  23877070.992                    23877082.066
 125419201.737 6  97729304.71443  23866490.875                    23866502.246
 108374916.718 8  84448085.93346  20623045.516                    20623050.891
 11  8 20  0 28  0.0000000  0  9G10G30G12G17G04G05G25G09G02
 109866090.709 8  85610038.13246  20906814.031                    20906822.090
 123259927.988 7  96046768.58743  23455591.820                    23455599.891
 111818191.390 8  87131143.487 7  21278295.555                    21278302.730
 122635818.059 7  95560454.801 6  23336818.969                    23336827.762
 115208915.978 8  89773271.48145  21923512.063                    21923520.906
 114213408.207 8  88997537.907 7  21734080.750                    21734089.086
 125377805.275 6  97697167.824 6  23858631.367                    23858642.086
 125499490.049 6  97791866.95143  23881769.578                    23881780.984
 108378687.343 8  84451024.09146  20623762.867                    20623768.648
 11  8 20  0 28 30.0000000  0  9G10G30G12G17G04G05G25G09G02
 109875711.418 8  85617534.79846  20908644.953                    20908653.094
 123165736.554 7  95973372.67643  23437668.297                    23437675.902
 111764788.212 8  87089530.631 7  21268133.164                    21268140.480
 122690778.421 7  95603280.997 6  23347278.336                    23347286.359
 115287572.759 8  89834562.44345  21938479.867                    21938488.465
 114128445.762 7  88931333.464 7  21717912.891                    21717921.656
 125281113.194 6  97621823.401 6  23840230.711                    23840242.148
 125579896.484 7  97854521.22343  23897070.305                    23897081.293
 108382730.582 8  84454174.68246  20624532.383                    20624537.754
 11  8 20  0 29  0.0000000  0  9G10G30G12G17G04G05G25G09G02
 109885962.807 8  85625522.89646  20910595.703                    20910603.789
 123071849.669 6  95900214.11943  23419801.664                    23419810.410
 111711846.877 8  87048277.646 7  21258058.875                    21258066.418
 122745902.521 7  95646234.806 6  23357767.953                    23357776.719
 115366337.285 7  89895937.37445  21953468.289                    21953477.348
 114043830.697 7  88865399.711 7  21701811.148                    21701819.512
 125184633.494 7  97546644.487 6  23821871.453                    23821882.621
 125660417.804 7  97917265.01744  23912393.273                    23912404.699
 108387045.844 8  84457537.22146  20625353.242                    20625358.957
 11  8 20  0 29 30.0000000  0  9G10G30G12G17G04G05G25G09G02
 109896844.336 8  85634002.02146  20912666.438                    20912674.414
 122978270.271 6  95827295.08343  23401993.945                    23402002.602
 111659369.863 8  87007386.480 7  21248072.648                    21248080.000
 122801190.916 7  95689316.620 6  23368288.859                    23368297.902
 115445207.579 8  89957394.70945  21968477.109                    21968485.328
 113959565.558 7  88799738.615 7  21685775.773                    21685784.820
 125088368.886 7  97471633.138 6  23803552.883                    23803563.551
 125741050.723 6  97980095.76344  23927737.320                    23927748.855
 108391631.831 8  84461110.72646  20626226.281                    20626231.688
 11  8 20  0 30  0.0000000  0  9G10G30G12G17G04G05G25G09G02
 109908355.978 8  85642972.13046  20914857.023                    20914864.973
 122885000.976 6  95754617.75943  23384246.406                    23384253.918
 111607359.520 8  86966858.939 7  21238175.508                    21238183.098
 122856644.138 7  95732526.847 6  23378841.078                    23378850.027
 115524181.761 8  90018933.01845  21983505.195                    21983513.688
 113875653.079 7  88734352.325 7  21669807.734                    21669816.813
 124992321.891 7  97396791.370 6  23785275.648                    23785286.719
 125821791.874 7  98043010.82044  23943101.750                    23943113.680
 108396487.360 8  84464894.26246  20627149.961                    20627155.121
 11  8 20  0 30 30.0000000  0  9G10G30G12G17G04G05G25G09G02
 109920497.527 8  85652433.10146  20917167.617                    20917175.363
 122792044.805 6  95682184.44843  23366556.266                    23366564.910
 111555817.624 8  86926696.420 7  21228367.563                    21228374.805
 122912262.578 7  95775865.850 6  23389424.656                    23389433.941
 115603258.111 7  90080550.93045  21998552.938                    21998561.512
 113792095.783 8  88669242.805 7  21653907.438                    21653916.012
 124896495.361 7  97322121.354 6  23767040.992                    23767051.113
 125902637.905 6  98106007.64544  23958486.711                    23958498.176
 108401611.266 8  84468886.90846  20628124.828                    20628130.535
 11  8 20  0 31  0.0000000  0  9G10G30G12G17G04G05G25G09G02
 109933268.625 8  85662384.61346  20919597.711                    20919605.645
 122699404.355 6  95609997.11143  23348927.680                    23348936.582
 111504746.146 8  86886900.457 7  21218648.922                    21218656.391
 122968046.947 7  95819334.147 6  23400040.617                    23400049.387
 115682434.603 7  90142246.87745  22013619.719                    22013628.094
 113708896.419 8  88604412.186 7  21638074.891                    21638083.988
 124800891.718 7  97247625.030 6  23748848.031                    23748858.141
 125983585.228 6  98169083.38244  23973890.492                    23973901.859
 108407001.929 8  84473087.42846  20629150.875                    20629156.422
 11  8 20  0 31 30.0000000  0  9G10G30G12G17G04G05G25G09G02
 109946668.897 8  85672826.39846  20922147.547                    20922155.668
 122607082.571 6  95538058.11943  23331358.984                    23331368.688
 111454147.620 8  86847473.046 7  21209020.453                    21209027.480
 123023997.497 7  95862931.930 6  23410687.617                    23410696.363
 115761709.676 8  90204019.63445  22028705.508                    22028713.859
 113626058.172 7  88539862.962 7  21622311.438                    21622319.992
 124705513.810 7  97173304.577 6  23730697.625                    23730708.789
 126064630.629 7  98232235.51344  23989312.641                    23989324.340
 108412658.365 8  84477495.04146  20630227.297                    20630232.898
 11  8 20  0 32  0.0000000  0  9G10G30G12G17G04G05G25G09G02
 109960698.229 8  85683758.36546  20924817.367                    20924825.520
 122515082.668 6  95466369.95743  23313851.805                    23313861.238
 111404024.212 8  86808415.851 7  21199482.008                    21199489.344
 123080114.967 7  95906659.760 6  23421366.508                    23421375.563
 115841081.756 7  90265867.98745  22043809.820                    22043818.387
 113543583.673 8  88475597.185 7  21606617.102                    21606625.621
 124610364.613 7  97099162.361 6  23712591.828                    23712602.117
 126145771.171 6  98295461.79944  24004753.664                    24004765.078
 108418580.095 8  84482109.38546  20631353.992                    20631359.426
 11  8 20  0 32 30.0000000  0  9G10G30G12G17G04G05G25G09G02
 109975355.468 8  85695179.60346  20927606.977                    20927614.570
 122423406.898 6  95394934.35443  23296406.320                    23296415.652
 111354377.389 8  86769730.013 7  21190034.664                    21190041.434
 123136399.204 7  95950517.546 6  23432077.211                    23432086.273
 115920548.516 8  90327790.11745  22058931.422                    22058940.070
 113461475.459 8  88411616.822 7  21590992.266                    21591000.684
 124515446.179 7  97025199.991 6  23694528.594                    23694539.934
 126227003.209 7  98358759.40044  24020211.172                    24020222.750
 108424764.646 8  84486928.52446  20632530.992                    20632536.391
 11  8 20  0 33  0.0000000  0  9G10G30G12G17G04G05G25G09G02
 109990640.519 8  85707090.05946  20930515.336                    20930523.031
 122332058.219 6  95323753.64644  23279022.820                    23279033.043
 111305209.657 8  86731417.509 7  21180678.336                    21180685.176
 123192851.419 7  95994506.212 6  23442819.594                    23442828.457
 116000108.374 8  90389784.79745  22074071.508                    22074079.805
 113379736.353 8  88347924.067 7  21575437.922                    21575446.242
 124420761.463 7  96951419.731 6  23676511.117                    23676522.211
 126308323.537 6  98422125.78044  24035686.766                    24035697.457
 108431211.654 8  84491952.18046  20633757.617                    20633763.828
 11  8 20  0 33 30.0000000  0  9G10G30G12G17G04G05G25G09G02
 110006553.222 8  85719489.58546  20933543.180                    20933551.090
 122241039.726 6  95252830.19244  23261703.547                    23261712.629
 111256523.220 8  86693480.029 7  21171413.398                    21171420.969
 123249471.895 7  96038625.988 6  23453594.547                    23453603.273
 116079759.831 8  90451850.85545  22089228.719                    22089236.930
 113298369.079 7  88284521.057 7  21559954.398                    21559962.504
 124326313.359 6  96877823.843 6  23658537.766                    23658549.434
 126389728.926 7  98485558.47744  24051176.711                    24051188.676
 108437920.024 8  84497179.48846  20635034.352                    20635039.953
 11  8 20  0 34  0.0000000  0  9G10G30G12G17G04G05G25G09G02
 110023093.166 8  85732377.87546  20936690.711                    20936698.688
 122150354.183 7  95182166.20644  23244446.813                    23244455.766
 111208319.967 8  86655919.069 7  21162240.578                    21162248.098
 123306260.933 6  96082877.128 6  23464400.414                    23464409.891
 116159500.948 7  90513986.76845  22104402.383                    22104411.352
 113217376.521 7  88221410.032 7  21544541.445                    21544550.594
 124232104.474 6  96804414.405 6  23640610.180                    23640621.852
 126471216.037 6  98549054.81243  24066683.773                    24066695.520
 108444888.588 8  84502609.54046  20636360.773                    20636365.895
 11  8 20  0 34 30.0000000  0  9G10G30G12G17G04G05G25G09G02
 110040259.361 8  85745754.14846  20939957.430                    20939965.477
 122060004.146 7  95111763.63644  23227253.445                    23227262.223
 111160601.860 8  86618736.138 7  21153160.266                    21153167.707
 123363219.375 7  96127260.260 6  23475239.602                    23475248.789
 116239329.879 7  90576191.10045  22119593.234                    22119601.691
 113136760.778 7  88158592.629 7  21529201.148                    21529209.531
 124138137.316 6  96731193.310 6  23622728.977                    23622740.707
 126552781.356 7  98612612.05944  24082205.563                    24082217.070
 108452115.749 8  84508241.10246  20637736.063                    20637741.438
 11  8 20  0 35  0.0000000  0  9G10G30G12G17G04G05G25G09G02
 110058051.315 8  85759618.01646  20943342.961                    20943351.426
 121969992.268 7  95041624.57644  23210124.281                    23210133.684
 111113370.618 8  86581932.575 7  21144172.242                    21144179.734
 123420347.627 7  96171775.743 7  23486111.023                    23486120.105
 116319244.670 7  90638462.33845  22134800.703                    22134809.375
 113056524.426 7  88096070.843 7  21513932.836                    21513940.996
 124044414.348 6  96658162.486 6  23604893.820                    23604905.094
 126634421.361 7  98676227.52744  24097740.859                    24097752.531
 108459600.044 8  84514073.03146  20639160.086                    20639165.266
 11  8 20  0 35 30.0000000  0  9G10G30G12G17G04G05G25G09G02
 110076468.847 8  85773969.35446  20946848.023                    20946855.727
 121880321.784 7  94971751.50744  23193060.883                    23193069.395
 111066628.387 8  86545510.067 7  21135277.695                    21135284.934
 123477645.564 7  96216423.419 6  23497014.320                    23497023.672
 116399243.872 7  90700799.35245  22150024.117                    22150033.070
 112976670.966 8  88033847.416 7  21498736.758                    21498745.582
 123950938.656 6  96585324.367 6  23587106.242                    23587118.070
 126716133.392 7  98739899.10543  24113290.352                    24113301.645
 108467340.830 8  84520104.82446  20640633.164                    20640638.152
 11  8 20  0 36  0.0000000  0  9G10G30G12G17G04G05G25G09G02
 110095511.228 8  85788807.58646  20950471.477                    20950479.645
 121790995.283 7  94902146.51243  23176062.555                    23176070.715
 111020377.200 8  86509470.197 7  21126475.938                    21126483.691
 123535114.051 7  96261204.004 6  23507950.180                    23507959.336
 116479325.848 7  90763200.85845  22165263.070                    22165271.902
 112897202.374 7  87971923.899 7  21483614.102                    21483622.824
 123857712.822 7  96512680.944 6  23569365.781                    23569377.465
 126797913.929 7  98803624.09243  24128852.336                    24128864.477
 108475336.925 8  84526335.55346  20642154.477                    20642159.859
 11  8 20  0 36 30.0000000  0  9G10G30G12G17G04G05G25G09G02
 110115177.503 8  85804131.98346  20954213.711                    20954221.355
 121702015.354 7  94832811.52444  23159130.914                    23159138.375
 110974618.755 8  86473814.278 7  21117768.555                    21117775.852
 123592753.531 7  96306117.810 6  23518919.000                    23518927.695
 116559488.576 7  90825665.29345  22180517.594                    22180526.031
 112818121.297 7  87910302.336 7  21468565.180                    21468574.324
 123764739.335 7  96440234.127 6  23551674.281                    23551684.676
 126879759.613 6  98867399.85143  24144427.188                    24144439.605
 108483586.918 8  84532764.12546  20643724.367                    20643730.148
 11  8 20  0 37  0.0000000  0  9G10G30G12G17G04G05G25G09G02
 110135467.316 8  85819942.24346  20958074.727                    20958082.523
 121613385.002 7  94763748.92143  23142264.641                    23142272.340
 110929355.385 8  86438544.122 7  21109155.578                    21109162.711
 123650564.143 6  96351164.969 6  23529919.594                    23529929.148
 116639730.498 7  90888191.43545  22195787.289                    22195795.816
 112739430.461 7  87848984.853 7  21453591.070                    21453599.898
 123672020.982 7  96367986.139 6  23534029.766                    23534040.516
 126961667.205 6  98931223.86843  24160013.898                    24160025.934
 108492089.412 8  84539389.46346  20645342.398                    20645348.191
 11  8 20  0 37 30.0000000  0  9G10G30G12G17G04G05G25G09G02
 110156380.252 8  85836238.06346  20962054.273                    20962062.219
 121525107.094 7  94694960.98943  23125464.992                    23125473.801
 110884589.026 8  86403661.251 7  21100636.641                    21100644.102
 123708546.757 6  96396346.146 6  23540953.234                    23540963.230
 116720049.987 7  90950778.03145  22211071.695                    22211080.277
 112661132.421 7  87787973.446 7  21438691.797                    21438700.441
 123579560.612 7  96295939.129 6  23516435.398                    23516447.293
 127043633.831 7  98995093.83643  24175611.195                    24175623.930
 108500843.723 8  84546211.01246  20647008.352                    20647013.973
 11  8 20  0 38  0.0000000  0  9G10G30G12G17G04G05G25G09G02
 110177915.360 8  85853018.68446  20966152.195                    20966159.797
 121437184.422 7  94626449.88543  23108734.406                    23108742.762
 110840321.509 8  86369167.081 7  21092212.656                    21092220.316
 123766701.666 6  96441661.593 6  23552019.789                    23552029.184
 116800445.538 7  91013423.88245  22226370.516                    22226379.273
 112583229.981 8  87727270.290 7  21423867.273                    21423876.109
 123487360.915 7  96224095.265 6  23498890.633                    23498901.332
 127125655.901 6  99059007.06543  24191219.680                    24191232.430
 108509848.540 8  84553227.75846  20648721.664                    20648727.559
 11  8 20  0 38 30.0000000  0  9G10G30G12G17G04G05G25G09G02
 110200071.438 8  85870283.18546  20970368.273                    20970375.730
 121349619.578 7  94558217.53244  23092070.563                    23092079.871
 110796554.492 8  86335062.905 7  21083883.930                    21083891.512
 123825029.325 6  96487111.627 6  23563119.031                    23563128.813
 116880915.091 7  91076127.40345  22241683.352                    22241692.293
 112505725.569 8  87666877.297 7  21409118.461                    21409126.969
 123395424.330 7  96152456.427 6  23481395.234                    23481405.359
 127207730.148 6  99122960.88242  24206837.977                    24206849.789
 108519102.536 8  84560438.66546  20650482.680                    20650488.387
 11  8 20  0 39  0.0000000  0  9G10G30G12G17G04G05G25G09G02
 110222847.850 8  85888031.05246  20974702.109                    20974710.750
 121262415.377 7  94490266.21144  23075477.180                    23075485.586
 110753289.734 8  86301350.107 7  21075651.375                    21075658.969
 123883529.920 7  96532696.452 6  23574252.586                    23574261.738
 116961456.997 7  91138887.30745  22257009.898                    22257018.758
 112428621.865 8  87606796.540 7  21394446.086                    21394454.598
 123303753.542 7  96081024.662 6  23463950.836                    23463961.016
 127289853.213 6  99186952.77243  24222465.078                    24222477.848
 108528604.190 8  84567842.55046  20652290.930                    20652296.719
 11  8 20  0 39 30.0000000  0  9G10G30G12G17G04G05G25G09G02
 110246243.903 8  85906261.76046  20979154.617                    20979162.848
 121175574.389 7  94422597.94544  23058950.906                    23058960.484
 110710529.075 8  86268030.108 7  21067513.875                    21067521.258
 123942204.094 6  96578416.532 6  23585417.109                    23585427.004
 117042069.612 7  91201702.29745  22272349.836                    22272358.828
 112351921.465 8  87547030.047 7  21379850.867                    21379859.066
 123212351.091 7  96009802.017 6  23446558.031                    23446569.000
 127372021.788 6  99250980.17442  24238101.516                    24238113.602
 108538352.137 8  84575438.35946  20654145.742                    20654151.383
 11  8 20  0 40  0.0000000  0  9G10G30G12G17G04G05G25G09G02
 110270258.647 8  85924974.56046  20983724.500                    20983732.605
 121089099.446 7  94355214.90744  23042495.641                    23042504.988
 110668274.447 8  86235104.433 7  21059473.477                    21059480.363
 124001052.084 7  96624272.032 6  23596615.984                    23596625.230
 117122751.063 7  91264570.94345  22287703.461                    22287712.188
 112275626.479 8  87487579.468 7  21365331.938                    21365340.418
 123121219.769 7  95938790.600 6  23429216.039                    23429226.836
 127454232.817 6  99315040.60843  24253745.875                    24253757.969
 108548345.337 8  84583225.26946  20656047.602                    20656053.273
 11  8 20  0 40 30.0000000  0  9G10G30G12G17G04G05G25G09G02
 110294891.694 8  85944169.15546  20988412.102                    20988420.141
 121002993.605 7  94288119.47744  23026110.172                    23026119.574
 110626528.205 8  86202574.897 7  21051529.164                    21051536.242
 124060074.712 6  96670263.630 6  23607847.008                    23607857.191
 117203500.301 7  91327492.39045  22303069.352                    22303078.391
 112199739.965 8  87428447.169 7  21350891.578                    21350899.570
 123030362.533 7  95867992.803 6  23411926.359                    23411936.801
 127536483.255 6  99379131.81143  24269397.680                    24269410.043
 108558583.341 8  84591202.93446  20657995.883                    20658001.563
 11  8 20  0 41  0.0000000  0  9G10G30G12G17G04G05G25G09G02
 110320141.960 8  85963844.69946  20993217.234                    20993225.035
 120917259.690 7  94221313.86744  23009795.688                    23009804.375
 110585291.753 8  86170442.594 7  21043682.375                    21043689.727
 124119272.066 7  96716391.371 6  23619111.945                    23619122.754
 117284315.594 7  91390465.33945  22318447.836                    22318456.914
 112124264.379 8  87369635.086 7  21336528.805                    21336536.832
 122939782.088 7  95797410.675 6  23394689.563                    23394699.090
 127618769.654 6  99443250.99743  24285056.648                    24285068.813
 108569064.631 8  84599370.17246  20659990.563                    20659996.066
 11  8 20  0 41 30.0000000  0  9G10G30G12G17G04G05G25G09G02
 110346008.471 8  85984000.42946  20998138.891                    20998146.973
 120831900.012 7  94154799.88944  22993552.047                    22993561.223
 110544566.916 8  86138708.954 7  21035932.672                    21035939.898
 124178644.552 6  96762655.592 6  23630410.438                    23630419.691
 117365195.158 7  91453488.36445  22333838.859                    22333847.879
 112049202.048 8  87311145.001 7  21322244.742                    21322253.301
 122849480.894 7  95727046.100 6  23377505.148                    23377515.496
 127701088.917 6  99507395.74843  24300721.602                    24300732.813
 108579787.750 8  84607725.85446  20662030.766                    20662036.152
 11  8 20  0 42  0.0000000  0  9G10G30G12G17G04G05G25G09G02
 110372490.001 8  86004635.39946  21003178.406                    21003186.523
 120746917.384 7  94088579.68644  22977380.164                    22977389.648
 110504355.171 8  86107375.125 7  21028280.430                    21028287.961
 124238192.423 6  96809056.472 6  23641742.664                    23641751.707
 117446137.272 7  91516560.11845  22349241.953                    22349250.098
 111974555.638 8  87252979.022 7  21308039.883                    21308048.113
 122759461.438 7  95656901.088 6  23360375.258                    23360385.980
 127783437.726 6  99571563.52643  24316392.445                    24316403.574
 108590751.171 8  84616268.77346  20664116.883                    20664122.559
 11  8 20  0 42 30.0000000  0  9G10G30G12G17G04G05G25G09G02
 110399585.676 8  86025748.91146  21008334.641                    21008342.469
 120662314.420 7  94022655.33744  22961280.570                    22961289.949
 110464658.306 8  86076442.507 7  21020726.531                    21020733.941
 124297916.023 7  96855594.314 6  23653106.680                    23653117.098
 117527140.335 7  91579679.36245  22364655.883                    22364664.898
 111900327.287 8  87195138.793 7  21293914.930                    21293923.148
 122669726.458 7  95586977.804 6  23343299.555                    23343309.789
 127865812.696 6  99635751.74743  24332068.539                    24332079.832
 108601953.779 8  84624998.08146  20666249.133                    20666254.441
 11  8 20  0 43  0.0000000  0  9G10G30G12G17G04G05G25G09G02
 110427295.047 8  86047340.62946  21013607.484                    21013615.238
 120578094.251 7  93957029.28944  22945253.969                    22945262.754
 110425478.436 8  86045912.735 7  21013270.773                    21013278.480
 124357815.965 6  96902269.541 6  23664505.734                    23664515.219
 117608202.952 7  91642845.01545  22380081.961                    22380090.547
 111826519.977 8  87137626.652 7  21279869.305                    21279877.773
 122580278.952 7  95517278.477 6  23326277.898                    23326289.168
 127948210.720 7  99699957.89644  24347747.578                    24347760.250
 108613394.501 8  84633912.92446  20668425.906                    20668431.223
 11  8 20  0 43 30.0000000  0  9G10G30G12G17G04G05G25G09G02
 110455616.790 8  86069409.52846  21018997.000                    21019004.742
 120494259.347 7  93891703.47644  22929301.094                    22929310.168
 110386817.210 8  86015787.104 7  21005913.547                    21005921.426
 124417892.676 6  96949082.518 6  23675938.164                    23675947.438
 117689323.470 7  91706055.78245  22395518.195                    22395527.980
 111753135.898 8  87080444.303 7  21265904.609                    21265913.387
 122491121.418 7  95447805.120 7  23309312.000                    23309323.355
 128030629.032 7  99764179.83244  24363432.305                    24363444.078
 108625072.665 8  84643012.79446  20670648.555                    20670653.605
 11  8 20  0 44  0.0000000  0  9G10G30G12G17G04G05G25G09G02
 110484549.568 8  86091954.54946  21024502.766                    21024510.352
 120410812.281 7  93826679.80744  22913421.391                    22913431.328
 110348675.901 8  85986066.608 7  20998655.930                    20998663.316
 124478146.286 6  96996033.332 6  23687403.570                    23687413.551
 117770500.180 7  91769310.33945  22410965.883                    22410974.930
 111680177.315 8  87023593.515 7  21252021.586                    21252030.133
 122402256.388 7  95378559.646 7  23292401.898                    23292412.727
 128113064.277 7  99828414.97544  24379118.773                    24379131.027
 108636986.565 8  84652296.35946  20672915.305                    20672921.012
 11  8 20  0 44 30.0000000  0  9G10G30G12G17G04G05G25G09G02
 110514092.752 8  86114975.21646  21030124.383                    21030132.441
 120327755.893 7  93761960.59144  22897616.578                    22897624.660
 110311056.173 8  85956752.544 7  20991496.875                    20991504.387
 124538577.171 6  97043122.272 6  23698903.656                    23698913.285
 117851731.733 7  91832607.63045  22426423.570                    22426432.934
 111607646.563 8  86967076.092 7  21238219.070                    21238227.656
 122313686.608 7  95309544.300 6  23275547.641                    23275557.895
 128195513.003 7  99892660.63444  24394808.070                    24394820.789
 108649134.902 8  84661762.60846  20675227.008                    20675232.375
 11  8 20  0 45  0.0000000  0  9G10G30G12G17G04G05G25G09G02
 110544245.014 8  86138470.48746  21035862.188                    21035870.582
 120245092.961 7  93697547.95744  22881886.844                    22881894.266
 110273960.146 8  85927846.557 7  20984437.945                    20984445.219
 124599185.890 6  97090349.801 6  23710436.523                    23710446.367
 117933016.619 7  91895946.48545  22441891.281                    22441901.141
 111535546.431 8  86910894.220 7  21224498.992                    21224507.703
 122225414.866 7  95240761.207 6  23258748.977                    23258760.250
 128277972.347 7  99956914.53844  24410499.914                    24410512.469
 108661516.918 8  84671410.92946  20677583.555                    20677588.941
 11  8 20  0 45 30.0000000  0  9G10G30G12G17G04G05G25G09G02
 110575005.227 8  86162439.47646  21041715.734                    21041723.824
 120162826.256 7  93633444.08544  22866231.883                    22866240.332
 110237389.541 8  85899349.997 7  20977478.469                    20977485.953
 124659972.927 6  97137716.271 6  23722004.664                    23722014.219
 118014353.327 7  91959325.71945  22457369.391                    22457378.582
 111463879.410 8  86855049.835 7  21210861.352                    21210869.426
 122137443.968 7  95172212.515 7  23242009.484                    23242020.594
 128360439.180 7 100021174.30644  24426193.227                    24426204.773
 108674131.050 8  84681240.13046  20679983.617                    20679989.414
 11  8 20  0 46  0.0000000  0  9G10G30G12G17G04G05G25G09G02
 110606372.602 8  86186881.58146  21047684.813                    21047692.965
 120080958.691 7  93569651.17344  22850652.633                    22850661.727
 110201345.865 8  85871264.022 7  20970619.875                    20970627.176
 124720938.766 6  97185222.075 6  23733606.242                    23733615.789
 118095740.595 7  92022744.35845  22472856.617                    22472866.383
 111392648.279 8  86799545.096 7  21197306.039                    21197314.594
 122049776.801 7  95103900.468 7  23225326.977                    23225337.383
 128442910.543 6 100085437.60444  24441886.656                    24441899.566
 108686976.403 8  84691249.50646  20682428.211                    20682433.430
 11  8 20  0 46 30.0000000  0  9G10G30G12G17G04G05G25G09G02
 110638345.443 8  86211795.48146  21053769.023                    21053777.285
 119999492.399 7  93506171.00844  22835150.492                    22835158.781
 110165830.556 8  85843589.767 7  20963861.398                    20963869.035
 124782083.352 6  97232867.162 6  23745241.203                    23745250.762
 118177176.437 7  92086200.84145  22488353.883                    22488362.785
 111321854.469 8  86744381.134 7  21183834.898                    21183843.012
 121962415.372 7  95035826.698 6  23208701.961                    23208712.723
 128525382.961 6 100149701.69344  24457580.617                    24457593.508
 108700051.251 8  84701437.71246  20684916.219                    20684921.500
 11  8 20  0 47  0.0000000  0  9G10G30G12G17G04G05G25G09G02
 110670922.891 8  86237180.50146  21059968.398                    21059976.473
 119918430.243 7  93443005.76944  22819724.906                    22819733.535
 110130845.588 8  85816328.765 7  20957203.984                    20957211.488
 124843407.206 6  97280651.947 6  23756911.023                    23756920.625
 118258659.537 7  92149694.14445  22503859.688                    22503868.215
 111251501.006 8  86689560.308 7  21170446.820                    21170455.203
 121875362.733 7  94967993.508 6  23192136.375                    23192147.164
 128607853.395 6 100213964.25444  24473273.844                    24473286.980
 108713355.101 8  84711804.35846  20687447.789                    20687453.008
 11  8 20  0 47 30.0000000  0  9G10G30G12G17G04G05G25G09G02
 110704103.384 8  86263035.43446  21066282.438                    21066290.570
 119837774.696 7  93380157.28844  22804376.766                    22804385.375
 110096391.909 8  85789481.753 7  20950647.758                    20950655.055
 124904910.301 6  97328576.402 6  23768614.422                    23768624.793
 118340188.270 7  92213223.00645  22519373.945                    22519383.043
 111181590.027 8  86635084.263 7  21157143.180                    21157151.469
 121788621.262 7  94900402.804 6  23175630.391                    23175641.438
 128690318.384 6 100278222.54544  24488967.430                    24488979.293
 108726885.945 8  84722347.88046  20690022.430                    20690028.145
 11  8 20  0 48  0.0000000  0  9G10G30G12G17G04G05G25G09G02
 110737885.849 8  86289359.42646  21072711.305                    21072719.148
 119757528.538 7  93317627.84744  22789106.133                    22789114.496
 110062471.157 8  85763050.007 7  20944192.930                    20944200.246
 124966593.044 6  97376640.815 6  23780352.945                    23780362.344
 118421761.181 7  92276786.29245  22534897.148                    22534905.855
 111112123.695 8  86580954.701 7  21143924.039                    21143932.465
 121702193.730 7  94833056.692 6  23159183.852                    23159194.449
 128772774.935 6 100342474.30344  24504657.898                    24504671.074
 108740643.175 8  84733067.80946  20692640.539                    20692646.320
 11  8 20  0 48 30.0000000  0  9G10G30G12G17G04G05G25G09G02
 110772268.688 8  86316151.25046  21079253.898                    21079261.793
 119677694.373 7  93255419.44544  22773914.117                    22773922.371
 110029085.051 8  85737034.871 7  20937839.539                    20937847.145
 125028455.890 6  97424845.598 6  23792124.648                    23792134.523
 118503376.761 7  92340382.83845  22550427.797                    22550436.898
 111043104.076 8  86527173.233 7  21130790.195                    21130798.547
 121616082.796 7  94765957.293 6  23142797.539                    23142807.270
 128855220.151 6 100406717.16644  24520346.750                    24520359.965
 108754625.636 8  84743963.25546  20695301.273                    20695306.867
 11  8 20  0 49  0.0000000  0  9G10G30G12G17G04G05G25G09G02
 110807250.270 8  86343409.61846  21085910.992                    21085918.578
 119598274.545 7  93193533.91344  22758801.180                    22758809.313
 109996234.673 8  85711437.188 7  20931588.234                    20931595.488
 125090498.871 6  97473190.704 6  23803931.000                    23803940.922
 118585033.278 7  92404011.27745  22565966.266                    22565975.434
 110974533.782 8  86473741.880 7  21117741.680                    21117750.086
 121530290.773 7  94699106.448 6  23126471.875                    23126481.930
 128937650.512 6 100470948.48543  24536032.719                    24536045.691
 108768831.035 8  84755032.40746  20698004.461                    20698009.883
 11  8 20  0 49 30.0000000  0  9G10G30G12G17G04G05G25G09G02
 110842829.975 8  86371134.06446  21092681.156                    21092689.566
 119519272.031 7  93131973.53644  22743766.984                    22743775.770
 109963921.972 8  85686258.473 7  20925439.430                    20925446.902
 125152722.339 6  97521676.475 6  23815772.203                    23815781.730
 118666729.755 7  92467670.87345  22581512.414                    22581521.688
 110906415.603 8  86420662.821 7  21104778.914                    21104787.371
 121444820.812 7  94632506.479 6  23110207.633                    23110218.059
 129020063.364 6 100535166.18243  24551715.898                    24551728.348
 108783259.055 8  84766275.02546  20700750.250                    20700755.496
 11  8 20  0 50  0.0000000  0  9G10G30G12G17G04G05G25G09G02
 110879006.431 8  86399323.50646  21099565.195                    21099573.797
 119440689.476 7  93070740.43244  22728813.188                    22728822.059
 109932148.154 8  85661499.664 7  20919392.750                    20919400.117
 125215126.796 6  97570303.277 6  23827647.680                    23827656.945
 118748464.630 7  92531360.35945  22597066.398                    22597075.355
 110838751.146 8  86367937.306 7  21091903.086                    21091911.133
 121359675.345 7  94566159.385 6  23094004.328                    23094015.363
 129102455.520 6 100599367.72743  24567394.773                    24567407.184
 108797908.602 8  84777690.27246  20703538.070                    20703543.430
 11  8 20  0 50 30.0000000  0  9G10G30G12G17G04G05G25G09G02
 110915777.976 8  86427976.65346  21106562.867                    21106571.098
 119362529.280 7  93009836.42944  22713939.578                    22713948.375
 109900914.977 8  85637162.138 7  20913449.703                    20913456.906
 125277712.677 6  97619071.471 6  23839556.852                    23839566.535
 118830236.424 7  92595078.62845  22612627.297                    22612636.047
 110771542.589 8  86315567.053 7  21079113.398                    21079122.023
 121274857.020 7  94500067.247 6  23077864.031                    23077874.465
 129184823.901 6 100663550.72343  24583068.719                    24583081.434
 108812778.428 8  84789277.16146  20706367.516                    20706373.086
 11  8 20  0 51  0.0000000  0  9G10G30G12G17G04G05G25G09G02
 110953143.051 8  86457092.29746  21113673.109                    21113681.504
 119284793.856 7  92949263.44544  22699147.500                    22699156.523
 109870223.304 8  85613246.562 7  20907609.023                    20907616.512
 125340479.880 6  97667980.934 6  23851501.063                    23851511.164
 118912043.488 7  92658824.38945  22628194.320                    22628203.547
 110704792.140 8  86263553.760 7  21066411.125                    21066419.527
 121190368.260 7  94434231.892 7  23061786.273                    23061796.902
 129267165.340 5 100727712.69742  24598736.898                    24598751.090
 108827866.671 8  84801034.24546  20709238.406                    20709243.832
 11  8 20  0 51 30.0000000  0  9G10G30G12G17G04G05G25G09G02
 110991100.497 8  86486669.53046  21120896.461                    21120904.223
 119207486.054 7  92889023.63544  22684435.555                    22684444.938
 109840075.067 8  85589754.435 7  20901871.914                    20901879.367
 125403428.873 6  97717032.039 6  23863480.156                    23863489.641
 118993884.700 7  92722596.73745  22643768.625                    22643777.320
 110638502.389 8  86211899.447 7  21053796.648                    21053805.090
 121106211.826 7  94368655.478 6  23045771.922                    23045782.520
 129349476.946 5 100791851.43642  24614401.055                    24614414.840
 108843172.650 8  84812960.99846  20712151.461                    20712156.438
 11  8 20  0 52  0.0000000  0  9G10G30G12G17G04G05G25G09G02
 111029648.585 8  86516707.00546  21128231.656                    21128239.684
 119130608.352 7  92829118.96744  22669806.383                    22669815.266
 109810471.189 8  85566686.486 7  20896238.789                    20896246.230
 125466559.731 6  97766224.847 6  23875493.500                    23875503.336
 119075758.474 7  92786394.45044  22659348.578                    22659357.777
 110572675.511 8  86160605.832 7  21041270.430                    21041278.375
 121022390.346 7  94303340.095 7  23029821.352                    23029832.301
 129431755.478 6 100855964.43652  24630059.023                    24630072.598
 108858695.034 8  84825056.36446  20715104.883                    20715110.324
 11  8 20  0 52 30.0000000  0  9G10G30G12G17G04G05G25G09G02
 111068786.113 8  86547203.78546  21135679.258                    21135687.605
 119054163.214 7  92769551.41245  22655259.570                    22655268.680
 109781413.181 8  85544043.887 7  20890708.961                    20890716.543
 125529872.916 6  97815559.761 6  23887541.422                    23887550.805
 119157663.531 7  92850216.53944  22674934.734                    22674943.555
 110507313.665 8  86109674.566 7  21028832.539                    21028840.977
 120938906.463 7  94238287.760 6  23013934.391                    23013945.340
 129513998.016 6 100920049.52542  24645709.539                    24645721.777
 108874432.780 8  84837319.55246  20718099.695                    20718105.242
 11  8 20  0 53  0.0000000  0  9G10G30G12G17G04G05G25G09G02
 111108511.411 8  86578158.56646  21143239.070                    21143246.945
 118978153.275 7  92710322.92045  22640795.250                    22640804.699
 109752902.353 8  85521827.670 7  20885284.000                    20885291.500
 125593368.604 6  97865036.895 6  23899623.820                    23899633.633
 119239598.333 7  92914061.82545  22690526.508                    22690535.574
 110442418.817 8  86059107.186 7  21016483.172                    21016491.727
 120855762.794 7  94173500.529 7  22998113.047                    22998123.906
 129596201.424 6 100984104.03042  24661351.555                    24661363.621
 108890384.525 8  84849749.48546  20721135.484                    20721140.871
 11  8 20  0 53 30.0000000  0  9G10G30G12G17G04G05G25G09G02
 111148823.647 8  86609570.70046  21150909.680                    21150917.840
 118902581.322 7  92651435.70145  22626414.742                    22626423.195
 109724940.443 8  85500039.177 7  20879962.719                    20879969.582
 125657046.984 6  97914656.366 6  23911741.984                    23911751.668
 119321562.079 7  92977929.67245  22706122.992                    22706132.355
 110377993.656 8  86008905.818 7  21004223.453                    21004231.859
 120772962.154 7  94108980.602 7  22982356.117                    22982367.566
 129678362.819 6 101048125.81143  24676986.852                    24676998.664
 108906549.352 8  84862345.46146  20724211.594                    20724217.008
 11  8 20  0 54  0.0000000  0  9G10G30G12G17G04G05G25G09G02
 111189720.703 8  86641438.53546  21158692.453                    21158700.270
 118827449.603 7  92592891.56844  22612117.273                    22612125.727
 109697528.562 8  85478679.273 7  20874746.375                    20874753.668
 125720908.604 6  97964418.648 6  23923894.594                    23923904.180
 119403552.923 7  93041818.61144  22721726.398                    22721734.516
 110314039.943 8  85959071.795 7  20992053.492                    20992062.125
 120690507.028 7  94044729.910 7  22966665.328                    22966675.992
 129760479.035 6 101112112.35843  24692612.766                    24692624.992
 108922926.010 8  84875106.50046  20727327.758                    20727333.133
 11  8 20  0 54 30.0000000  0  9G10G30G12G17G04G05G25G09G02
 111231200.808 8  86673760.70046  21166585.711                    21166593.645
 118752760.801 7  92534692.54644  22597903.734                    22597913.266
 109670667.922 8  85457748.909 7  20869635.109                    20869642.129
 125784953.502 6  98014323.784 6  23936081.359                    23936091.121
 119485569.644 7  93105727.73544  22737332.859                    22737341.992
 110250559.926 8  85909606.894 7  20979973.422                    20979981.809
 120608400.035 7  93980750.489 7  22951041.359                    22951051.910
 129842547.204 6 101176061.48443  24708230.727                    24708243.000
 108939513.471 8  84888031.80146  20730484.313                    20730489.688
 11  8 20  0 55  0.0000000  0  9G10G30G12G17G04G05G25G09G02
 111273262.244 8  86706535.85445  21174589.914                    21174597.836
 118678517.321 7  92476840.50044  22583775.883                    22583784.801
 109644359.690 8  85437248.984 7  20864629.102                    20864635.949
 125849181.787 6  98064371.758 6  23948303.930                    23948313.980
 119567610.889 7  93169655.95144  22752945.188                    22752954.090
 110187555.615 8  85860512.667 7  20967984.102                    20967992.688
 120526643.588 7  93917044.206 7  22935483.531                    22935494.371
 129924564.291 7 101239970.77443  24723837.766                    24723849.875
 108956310.048 8  84901120.05746  20733680.602                    20733686.313
 11  8 20  0 55 30.0000000  0  9G10G30G12G17G04G05G25G09G02
 111315903.478 8  86739762.80746  21182703.703                    21182711.977
 118604721.587 7  92419337.39145  22569733.477                    22569742.285
 109618605.054 8  85417180.450 7  20859727.719                    20859735.055
 125913593.763 6  98114562.881 6  23960561.422                    23960570.902
 119649675.353 7  93233602.27544  22768561.023                    22768570.676
 110125029.007 8  85811790.686 7  20956085.906                    20956093.863
 120445240.469 7  93853613.242 7  22919992.750                    22920003.359
 130006527.142 7 101303837.83744  24739435.102                    24739447.234
 108973314.818 8  84914370.53046  20736916.352                    20736922.082
 11  8 20  0 56  0.0000000  0  9G10G30G12G17G04G05G25G09G02
 111359123.295 8  86773440.59745  21190928.453                    21190936.441
 118531376.268 7  92362185.22544  22555775.500                    22555784.781
 109593405.606 8  85397544.509 7  20854932.250                    20854939.652
 125978189.651 6  98164897.310 6  23972853.891                    23972862.941
 119731761.751 7  93297565.68344  22784181.648                    22784190.816
 110062982.278 8  85763442.625 7  20944278.578                    20944286.938
 120364193.322 7  93790459.655 7  22904570.055                    22904580.684
 130088433.111 7 101367660.54344  24755021.156                    24755033.965
 108990526.864 8  84927782.51346  20740191.672                    20740196.965
 11  8 20  0 56 30.0000000  0  9G10G30G12G17G04G05G25G09G02
 111402919.612 8  86807567.60645  21199262.688                    21199270.051
 118458483.551 7  92305385.70344  22541904.969                    22541913.395
 109568761.925 8  85378341.647 7  20850242.773                    20850250.309
 126042969.510 6  98215375.103 6  23985180.398                    23985190.547
 119813868.667 7  93361545.09044  22799806.070                    22799815.238
 110001417.272 8  85715469.926 7  20932562.734                    20932571.199
 120283504.367 7  93727585.194 7  22889215.469                    22889226.332
 130170279.056 7 101431436.48644  24770595.625                    24770608.949
 109007944.559 8  84941354.74446  20743506.211                    20743511.918
 11  8 20  0 57  0.0000000  0  9G10G30G12G17G04G05G25G09G02
 111447290.645 7  86842142.44145  21207705.867                    21207714.344
 118386045.766 7  92248940.71345  22528120.281                    22528128.750
 109544675.168 8  85359572.740 7  20845659.523                    20845666.555
 126107933.761 6  98265996.572 6  23997542.961                    23997552.887
 119895994.680 7  93425539.34744  22815434.656                    22815443.688
 109940336.042 8  85667874.207 7  20920939.609                    20920948.168
 120203176.264 7  93664991.898 7  22873929.281                    22873940.387
 130252061.830 7 101495163.19344  24786158.758                    24786171.035
 109025566.619 8  84955086.22046  20746859.633                    20746865.180
 11  8 20  0 57 30.0000000  0  9G10G30G12G17G04G05G25G09G02
 111492235.262 7  86877164.23145  21216258.656                    21216266.527
 118314065.807 7  92192852.45744  22514423.266                    22514431.977
 109521146.900 8  85341239.022 7  20841181.891                    20841189.426
 126173082.582 6  98316761.885 6  24009940.109                    24009950.289
 119978138.836 7  93489547.77444  22831065.719                    22831074.961
 109879741.015 8  85620657.342 7  20909409.102                    20909416.809
 120123211.859 7  93602681.968 7  22858713.227                    22858723.262
 130333778.704 6 101558838.55844  24801708.914                    24801721.781
 109043392.413 8  84968976.44546  20750251.867                    20750256.969
 11  8 20  0 58  0.0000000  0  9G10G30G12G17G04G05G25G09G02
 111537751.221 7  86912631.21746  21224919.641                    21224927.824
 118242545.999 7  92137122.76044  22500813.375                    22500822.672
 109498178.071 8  85323341.235 7  20836811.258                    20836818.574
 126238416.129 6  98367671.086 6  24022372.773                    24022382.879
 120060299.647 7  93553569.17044  22846700.695                    22846709.836
 109819633.975 8  85573820.731 7  20897971.219                    20897979.246
 120043613.635 7  93540657.427 7  22843565.195                    22843576.219
 130415426.646 6 101622460.17144  24817246.367                    24817259.152
 109061420.719 8  84983024.47146  20753682.445                    20753687.680
 11  8 20  0 58 30.0000000  0  9G10G30G12G17G04G05G25G09G02
 111583836.625 8  86948541.94145  21233689.688                    21233698.105
 118171488.496 7  92081753.30445  22487291.711                    22487300.918
 109475769.604 8  85305880.092 7  20832547.203                    20832554.582
 126303934.309 6  98418724.183 5  24034840.609                    24034850.012
 120142475.829 7  93617602.53444  22862338.148                    22862346.887
 109760016.831 8  85527365.854 7  20886626.000                    20886634.313
 119964383.962 7  93478920.032 7  22828489.055                    22828499.414
 130497002.797 5 101686025.84043  24832769.703                    24832782.566
 109079649.756 8  84997228.91046  20757151.141                    20757157.344
 11  8 20  0 59  0.0000000  0  9G10G30G12G17G04G05G25G09G02
 111630490.335 7  86984895.49645  21242567.766                    21242575.898
 118100895.943 7  92026746.15845  22473858.164                    22473867.570
 109453922.901 8  85288856.685 7  20828389.734                    20828397.074
 126369637.527 6  98469921.455 5  24047344.453                    24047353.000
 120224666.304 7  93681647.05344  22877978.445                    22877987.078
 109700891.625 8  85481294.301 7  20875375.102                    20875382.965
 119885525.565 8  93417471.938 7  22813482.844                    22813493.121
 130578504.280 6 101749533.33043  24848279.000                    24848292.512
 109098078.794 8  85011589.19946  20760658.320                    20760664.215
 11  8 20  0 59 30.0000000  0  9G10G30G12G17G04G05G25G09G02
 111677710.498 8  87021690.44746  21251553.664                    21251561.230
 118030770.987 7  91972103.35145  22460514.563                    22460522.910
 109432639.323 8  85272272.076 7  20824339.664                    20824346.965
 126435526.278 6  98521263.299 6  24059881.844                    24059891.121
 120306870.037 7  93745701.86044  22893621.672                    22893630.680
 109642260.418 8  85435607.685 7  20864217.703                    20864225.773
 119807041.195 7  93356315.337 7  22798547.242                    22798557.777
 130659928.487 5 101812980.60543  24863773.141                    24863786.797
 109116707.265 8  85026104.88046  20764202.930                    20764208.555
 11  8 20  1  0  0.0000000  0  8G10G30G12G17G04G05G25G02
 111725496.359 8  87058926.18845  21260647.031                    21260654.914
 117961116.845 7  91917827.41645  22447259.227                    22447267.914
 109411920.549 8  85256127.577 7  20820397.164                    20820404.305
 126501601.728 6  98572750.626 5  24072455.375                    24072465.547
 120389086.685 7  93809766.75744  22909266.977                    22909275.563
 109584126.228 8  85390308.362 7  20853155.211                    20853163.227
 119728934.434 8  93295452.913 7  22783684.297                    22783694.691
 109135534.477 8  85040775.42746  20767785.867                    20767791.414
 11  8 20  1  0 30.0000000  0  8G10G30G12G17G04G05G25G02
 111773844.261 8  87096599.90145  21269847.086                    21269855.051
 117891934.569 7  91863919.16645  22434094.336                    22434102.715
 109391766.239 8  85240422.914 7  20816561.758                    20816569.469
 126567862.442 6  98624382.332 5  24085064.398                    24085073.719
 120471313.891 7  93873839.86444  22924913.320                    22924923.328
 109526489.673 8  85345396.799 7  20842187.344                    20842195.441
 119651206.267 8  93234885.523 7  22768893.414                    22768904.074
 109154558.206 8  85055599.11146  20771406.000                    20771411.547
 11  8 20  1  1  0.0000000  0  8G10G30G12G17G04G05G25G02
 111822753.055 8  87134710.66046  21279153.906                    21279162.332
 117823226.717 7  91810380.58045  22421019.820                    22421028.125
 109372177.671 8  85225159.095 8  20812833.828                    20812841.699
 126634308.744 6  98676158.613 5  24097708.766                    24097718.746
 120553550.550 7  93937920.33444  22940563.070                    22940572.988
 109469352.586 8  85300874.431 7  20831314.258                    20831322.613
 119573859.538 7  93174615.363 7  22754173.867                    22754185.273
 109173777.495 8  85070575.17746  20775063.266                    20775068.855
 11  8 20  1  1 30.0000000  0  8G10G30G12G17G04G05G25G02
 111872220.125 8  87173256.44746  21288567.297                    21288575.238
 117754995.050 7  91757213.04745  22408035.453                    22408044.383
 109353155.382 8  85210336.536 8  20809214.180                    20809221.930
 126700940.347 6  98728079.318 5  24110388.977                    24110397.723
 120635794.654 7  94002006.59144  22956213.813                    22956222.824
 109412716.608 8  85256742.541 7  20820536.742                    20820544.887
 119496896.176 7  93114643.925 7  22739528.867                    22739539.055
 109193190.021 8  85085701.81846  20778757.289                    20778762.793
 11  8 20  1  2  0.0000000  0  8G10G30G12G17G04G05G25G02
 111922243.482 8  87212235.69046  21298086.602                    21298094.426
 117687242.112 7  91704418.58145  22395142.977                    22395151.035
 109334700.079 8  85195955.787 7  20805702.398                    20805709.781
 126767757.656 6  98780144.718 6  24123104.344                    24123112.621
 120718045.268 7  94066097.94844  22971865.477                    22971874.887
 109356583.685 8  85213002.637 7  20809854.820                    20809863.070
 119420318.861 8  93054973.318 7  22724956.961                    22724967.246
 109212795.343 8  85100978.68946  20782488.438                    20782493.879
 11  8 20  1  2 30.0000000  0  8G10G30G12G17G04G05G25G02
 111972822.119 7  87251647.62846  21307711.313                    21307719.566
 117619970.674 7  91651999.30345  22382341.195                    22382350.434
 109316813.461 8  85182018.162 7  20802298.789                    20802305.887
 126834760.996 6  98832355.058 6  24135854.398                    24135863.945
 120800301.896 6  94130193.98444  22987518.672                    22987527.133
 109300955.789 8  85169656.261 7  20799269.547                    20799277.395
 119344130.628 7  92995605.857 7  22710458.180                    22710469.387
 109232592.938 8  85116405.38546  20786255.695                    20786260.758
 11  8 20  1  3  0.0000000  0  8G10G30G12G17G04G05G25G02
 112023953.467 7  87291490.22346  21317441.375                    21317449.453
 117553182.727 7  91599956.72045  22369632.195                    22369640.813
 109299496.229 8  85168524.218 7  20799003.281                    20799010.770
 126901950.255 6  98884710.306 6  24148640.063                    24148649.316
 120882562.751 6  94194293.31044  23003172.648                    23003180.922
 109245835.029 8  85126705.055 7  20788780.328                    20788788.602
 119268333.641 8  92936543.288 7  22696034.727                    22696045.285
 109252581.178 8  85131980.64546  20790058.852                    20790064.508
 11  8 20  1  3 30.0000000  0  8G10G30G12G17G04G05G25G02
 112075635.924 7  87331762.26445  21327276.031                    21327284.652
 117486880.848 7  91548292.91545  22357015.203                    22357024.051
 109282749.351 8  85155474.695 7  20795816.781                    20795824.324
 126969325.805 6  98937210.715 6  24161461.023                    24161470.590
 120964827.370 7  94258395.56544  23018826.352                    23018835.598
 109191223.089 8  85084150.326 7  20778388.141                    20778395.879
 119192930.634 7  92877787.732 7  22681686.453                    22681696.699
 109272759.410 8  85147703.94246  20793899.102                    20793904.371
 11  8 20  1  4  0.0000000  0  8G10G30G12G17G04G05G25G02
 112127867.250 8  87372462.00245  21337215.688                    21337223.234
 117421067.020 7  91497009.43945  22344491.414                    22344499.914
 109266573.367 8  85142870.032 8  20792738.570                    20792745.758
 127036887.640 6  98989856.284 6  24174317.258                    24174327.477
 121047094.215 7  94322499.53044  23034481.961                    23034490.883
 109137121.359 8  85041993.182 7  20768092.578                    20768100.559
 119117923.877 7  92819340.919 7  22667412.523                    22667423.195
 109293125.995 8  85163574.01646  20797774.477                    20797779.746
 11  8 20  1  4 30.0000000  0  8G10G30G12G17G04G05G25G02
 112180644.994 7  87413587.50645  21347258.508                    21347266.945
 117355743.293 7  91446107.85045  22332060.563                    22332069.254
 109250968.902 8  85130710.713 7  20789768.930                    20789776.711
 127104635.593 6  99042646.846 6  24187209.313                    24187219.934
 121129361.892 7  94386604.17344  23050136.625                    23050145.602
 109083531.685 8  85000235.019 7  20757894.773                    20757902.949
 119043315.586 8  92761204.585 7  22653215.102                    22653225.508
 109313679.530 8  85179589.75746  20801685.758                    20801691.164
 11  8 20  1  5  0.0000000  0  8G10G30G12G17G04G05G25G02
 112233967.415 8  87455137.45145  21357405.758                    21357413.902
 117290912.093 7  91395590.02345  22319723.906                    22319731.902
 109235936.994 8  85118997.530 8  20786908.539                    20786915.852
 127172570.111 6  99095582.793 6  24200136.109                    24200147.582
 121211629.543 7  94450708.79744  23065792.172                    23065800.723
 109030455.837 8  84958877.253 7  20747794.805                    20747803.082
 118969108.439 8  92703380.860 7  22639093.906                    22639104.887
 109334419.362 8  85195750.67746  20805632.063                    20805637.680
 11  8 20  1  5 30.0000000  0  8G10G30G12G17G04G05G25G02
 112287833.036 8  87497110.66045  21367655.945                    21367663.859
 117226576.005 7  91345458.03645  22307480.570                    22307489.160
 109221478.963 8  85107731.531 7  20784157.305                    20784164.453
 127240691.151 6  99148664.069 6  24213099.883                    24213110.539
 121293896.334 7  94514812.75344  23081447.117                    23081455.582
 108977895.861 8  84917921.461 8  20737793.117                    20737801.328
 118895305.391 7  92645872.011 7  22625049.656                    22625060.629
 109355344.701 8  85212056.13646  20809614.281                    20809619.816
 11  8 20  1  6  0.0000000  0  8G10G30G12G17G04G05G25G02
 112342239.285 7  87539505.13045  21378009.320                    21378017.324
 117162736.857 7  91295713.24645  22295333.352                    22295340.926
 109207594.810 8  85096912.698 7  20781515.117                    20781522.656
 127308998.586 6  99201890.609 6  24226098.594                    24226108.813
 121376160.767 7  94578914.87844  23097101.438                    23097110.285
 108925853.201 8  84877368.780 8  20727889.414                    20727897.527
 118821908.255 8  92588679.427 7  22611082.891                    22611093.723
 109376453.748 8  85228504.74946  20813631.125                    20813636.629
 11  8 20  1  6 30.0000000  0  8G10G30G12G17G04G05G25G02
 112397184.323 8  87582319.43845  21388465.008                    21388472.883
 117099396.925 7  91246357.47845  22283279.594                    22283287.594
 109194285.398 8  85086541.725 8  20778982.672                    20778989.836
 127377492.800 6  99255262.673 6  24239132.422                    24239142.887
 121458421.875 7  94643014.38644  23112755.391                    23112763.488
 108874329.542 8  84837220.507 8  20718085.258                    20718093.066
 118748919.647 7  92531805.228 7  22597193.234                    22597203.699
 109397745.715 8  85245095.88846  20817682.984                    20817688.559
 11  8 20  1  7  0.0000000  0  8G10G30G12G17G04G05G25G02
 112452665.831 7  87625551.77845  21399022.477                    21399030.523
 117036558.418 7  91197392.42445  22271321.820                    22271329.883
 109181551.214 8  85076618.967 7  20776559.117                    20776566.395
 127446173.564 6  99308780.126 6  24252201.680                    24252213.039
 121540678.683 7  94707110.55944  23128408.328                    23128416.402
 108823326.479 8  84797477.893 7  20708379.234                    20708387.535
 118676342.028 7  92475251.246 7  22583382.250                    22583392.969
 109419219.500 8  85261828.69846  20821769.242                    20821774.797
 11  8 20  1  7 30.0000000  0  8G10G30G12G17G04G05G25G02
 112508681.254 7  87669200.14345  21409681.891                    21409689.773
 116974223.000 7  91148819.41745  22259459.344                    22259468.227
 109169393.128 8  85067145.141 7  20774245.438                    20774253.152
 127515041.129 6  99362443.112 6  24265307.555                    24265318.309
 121622929.704 7  94771202.21644  23144060.102                    23144068.566
 108772845.258 8  84758141.921 8  20698773.063                    20698781.227
 118604177.374 7  92419019.086 7  22569649.914                    22569660.586
 109440873.547 8  85278701.98646  20825890.023                    20825895.148
 11  8 20  1  8  0.0000000  0  8G10G30G12G17G04G05G25G02
 112565229.045 7  87713263.35545  21420442.398                    21420450.547
 116912393.319 7  91100640.50245  22247694.094                    22247702.469
 109157811.960 8  85058120.841 7  20772041.758                    20772049.234
 127584095.376 6  99416251.590 6  24278447.328                    24278458.469
 121705174.247 7  94835288.82944  23159710.984                    23159719.723
 108722888.020 8  84719214.229 8  20689266.539                    20689274.543
 118532428.590 7  92363110.964 7  22555996.469                    22556007.383
 109462707.196 8  85295715.21246  20830044.742                    20830050.129
 11  8 20  1  8 30.0000000  0  8G10G30G12G17G04G05G25G02
 112622307.159 8  87757739.81645  21431303.938                    21431312.762
 116851071.653 7  91052857.40645  22236024.758                    22236032.750
 109146808.158 8  85049546.438 7  20769947.766                    20769955.234
 127653336.484 6  99470205.676 6  24291623.633                    24291634.422
 121787411.503 7  94899369.76244  23175360.336                    23175369.094
 108673456.315 8  84680696.053 8  20679860.063                    20679868.230
 118461098.145 7  92307528.831 7  22542422.313                    22542433.047
 109484719.679 8  85312867.79646  20834233.547                    20834239.223
 11  8 20  1  9  0.0000000  0  8G10G30G12G17G04G05G25G02
 112679913.311 8  87802627.72145  21442266.516                    21442274.426
 116790259.862 7  91005471.61845  22224452.281                    22224460.922
 109136382.373 8  85041422.447 7  20767963.773                    20767971.125
 127722764.270 6  99524305.223 6  24304835.797                    24304846.516
 121869640.156 7  94963444.00544  23191007.242                    23191016.727
 108624551.634 8  84642588.554 8  20670553.914                    20670562.043
 118390188.328 7  92252274.451 7  22528929.070                    22528938.992
 109506909.433 8  85330158.52346  20838455.906                    20838461.828
 11  8 20  1  9 30.0000000  0  9G10G30G12G17G04G05G25G29G02
 112738045.050 7  87847925.18345  21453328.367                    21453336.488
 116729960.061 7  90958484.77845  22212977.961                    22212986.387
 109126535.380 8  85033749.460 7  20766089.969                    20766097.441
 127792378.873 6  99578550.359 6  24318083.008                    24318092.910
 121951858.998 7  95027510.56944  23206652.961                    23206662.141
 108576175.679 8  84604893.026 8  20661348.117                    20661355.875
 118319701.459 7  92197349.656 7  22515515.484                    22515526.039
 129594838.25016 100983028.57516  24661082.742                    24661092.328
 109529275.592 7  85347586.71246  20842712.203                    20842717.777
 11  8 20  1 10  0.0000000  0  9G10G30G12G17G04G05G25G29G02
 112796700.432 7  87893630.67545  21464490.133                    21464498.070
 116670174.390 7  90911898.56345  22201600.852                    22201609.301
 109117267.723 8  85026527.903 7  20764326.594                    20764334.273
 127862180.460 6  99632941.155 6  24331366.016                    24331376.098
 122034067.405 7  95091569.04044  23222296.984                    23222305.980
 108528329.618 8  84567610.409 8  20652243.133                    20652251.398
 118249639.940 7  92142756.307 7  22502183.156                    22502194.105
 129515398.634 6 100921127.617 6  24645965.367                    24645976.262
 109551817.093 8  85365151.51446  20847001.422                    20847007.203
 11  8 20  1 10 30.0000000  0  9G10G30G12G17G04G05G25G29G02
 112855876.868 7  87939742.18445  21475751.352                    21475759.582
 116610904.766 7  90865714.50345  22190321.875                    22190330.566
 109108579.480 8  85019757.833 7  20762673.109                    20762680.656
 127932168.844 6  99687477.530 6  24344683.734                    24344693.914
 122116264.283 7  95155618.50943  23237938.477                    23237947.383
 108481015.407 8  84530742.236 8  20643239.391                    20643247.656
 118180006.002 7  92088496.120 7  22488932.414                    22488943.070
 129435881.006 7 100859165.864 6  24630833.953                    24630845.121
 109574532.674 8  85382851.96646  20851324.383                    20851329.801
 11  8 20  1 11  0.0000000  0  9G10G30G12G17G04G05G25G29G02
 112915572.637 8  87986258.36845  21487111.203                    21487119.156
 116552153.272 7  90819934.19945  22179141.906                    22179150.484
 109100471.490 8  85013439.914 7  20761130.352                    20761137.809
 128002344.012 6  99742159.464 6  24358038.523                    24358047.895
 122198448.400 7  95219658.01544  23253577.664                    23253586.340
 108434234.524 8  84494289.632 8  20634337.375                    20634345.629
 118110802.151 7  92034571.084 7  22475763.797                    22475774.488
 129356285.769 6 100797143.665 6  24615688.086                    24615698.137
 109597421.556 8  85400687.45046  20855679.813                    20855685.387
 11  8 20  1 11 30.0000000  0  9G10G30G12G17G04G05G25G29G02
 112975784.923 8  88033177.04545  21498569.000                    21498576.883
 116493921.886 7  90774559.11745  22168061.188                    22168069.723
 109092943.889 8  85007574.253 7  20759697.852                    20759705.379
 128072705.811 6  99796986.802 6  24371427.414                    24371437.684
 122280618.754 7  95283686.84043  23269214.320                    23269223.207
 108387987.771 8  84458253.241 8  20625536.930                    20625545.188
 118042030.417 7  91980982.777 7  22462676.672                    22462687.203
 129276613.205 6 100735061.212 6  24600526.766                    24600536.430
 109620482.135 8  85418656.73246  20860068.578                    20860074.250
 11  8 20  1 12  0.0000000  0  9G10G30G12G17G04G05G25G29G02
 113036511.806 7  88080496.70645  21510124.820                    21510132.902
 116436212.534 7  90729590.81545  22157079.125                    22157087.359
 109085997.166 8  85002161.216 7  20758375.953                    20758383.625
 128143254.412 6  99851959.704 6  24384852.984                    24384862.617
 122362774.640 6  95347704.36744  23284848.156                    23284856.813
 108342276.889 8  84422634.402 8  20616838.539                    20616846.391
 117973693.313 7  91927733.103 7  22449672.430                    22449682.898
 129196864.017 6 100672919.048 6  24585350.430                    24585360.441
 109643713.631 8  85436759.18646  20864489.164                    20864494.277
 11  8 20  1 12 30.0000000  0  9G10G30G12G17G04G05G25G29G02
 113097750.844 7  88128215.44445  21521778.234                    21521786.473
 116379027.339 7  90685030.93345  22146197.430                    22146205.629
 109079632.084 8  84997201.415 7  20757164.492                    20757171.664
 128213989.707 6  99907078.090 6  24398312.820                    24398323.520
 122444914.839 6  95411709.69544  23300479.156                    23300487.730
 108297103.465 8  84387434.372 8  20608242.297                    20608249.996
 117905793.115 7  91874823.887 7  22436751.852                    22436761.891
 129117038.638 6 100610717.544 6  24570160.500                    24570170.152
 109667114.960 8  85454993.98846  20868942.125                    20868947.625
 11  8 20  1 13  0.0000000  0  9G10G30G12G17G04G05G25G29G02
 113159499.872 7  88176331.57945  21533528.797                    21533536.359
 116322368.227 7  90640881.01345  22135415.453                    22135423.559
 109073848.910 8  84992695.043 7  20756063.984                    20756071.336
 128284911.568 6  99962341.848 6  24411808.539                    24411819.180
 122527038.649 6  95475702.24844  23316106.438                    23316115.621
 108252468.566 8  84352653.961 8  20599748.383                    20599756.676
 117838332.158 7  91822256.977 7  22423913.719                    22423924.367
 129037137.929 7 100548457.336 6  24554955.594                    24554965.578
 109690685.152 8  85473360.37746  20873427.445                    20873432.824
 11  8 20  1 13 30.0000000  0  9G10G30G12G17G04G05G25G29G02
 113221756.491 7  88224843.23845  21545375.563                    21545383.820
 116266236.978 7  90597142.39545  22124734.219                    22124742.426
 109068647.983 8  84988642.365 7  20755074.414                    20755081.426
 128356019.932 6 100017750.957 5  24425339.555                    24425350.402
 122609144.798 6  95539681.04044  23331731.188                    23331740.199
 108208373.707 8  84318294.364 8  20591357.461                    20591365.211
 117771312.646 7  91770034.028 7  22411160.609                    22411170.699
 128957162.371 7 100486138.786 6  24539737.148                    24539746.715
 109714422.982 8  85491857.38846  20877944.641                    20877950.195
 11  8 20  1 14  0.0000000  0  9G10G30G12G17G04G05G25G29G02
 113284518.352 7  88273748.59245  21557319.102                    21557326.750
 116210635.606 7  90553816.67345  22114153.617                    22114161.746
 109064029.315 8  84985043.412 7  20754195.703                    20754202.984
 128427314.704 6 100073305.286 5  24438907.117                    24438917.270
 122691232.381 7  95603645.39344  23347351.711                    23347361.289
 108164820.285 8  84284356.664 8  20583069.570                    20583077.426
 117704736.859 7  91718156.832 7  22398491.609                    22398501.980
 128877112.375 7 100423762.228 6  24524503.898                    24524513.359
 109738327.410 8  85510484.21046  20882493.703                    20882498.930
 11  8 20  1 14 30.0000000  0  9G10G30G12G17G04G05G25G29G02
 113347783.189 7  88323045.88545  21569357.758                    21569365.648
 116155566.129 8  90510905.41345  22103674.281                    22103682.391
 109059993.951 8  84981898.962 8  20753427.680                    20753435.234
 128498796.120 6 100129005.043 6  24452509.813                    24452519.301
 122773300.801 7  95667594.79644  23362968.742                    23362977.922
 108121809.651 8  84250841.921 8  20574884.922                    20574892.801
 117638607.132 7  91666627.204 7  22385907.211                    22385917.656
 128796988.636 7 100361328.205 6  24509256.602                    24509266.273
 109762397.754 8  85529240.32446  20887073.555                    20887079.590
 11  8 20  1 15  0.0000000  0  9G10G30G12G17G04G05G25G29G02
 113411548.364 8  88372733.03445  21581492.133                    21581499.512
 116101030.179 8  90468409.86845  22093296.523                    22093304.188
 109056541.089 8  84979208.419 7  20752770.539                    20752777.746
 128570463.957 6 100184850.112 6  24466146.750                    24466157.598
 122855348.709 6  95731528.23144  23378581.531                    23378591.563
 108079342.821 8  84217750.919 8  20566804.133                    20566811.145
 117572925.487 8  91615446.726 7  22373408.711                    22373418.836
 128716791.582 7 100298837.062 6  24493995.391                    24494005.031
 109786632.488 8  85548124.54046  20891685.477                    20891690.961
 11  8 20  1 15 30.0000000  0  9G10G30G12G17G04G05G25G29G02
 113475811.523 7  88422808.22445  21593721.180                    21593728.625
 116047029.820 7  90426331.67445  22083020.484                    22083029.043
 109053671.722 8  84976972.551 7  20752224.539                    20752232.016
 128642318.062 6 100240840.294 6  24479820.383                    24479831.648
 122937375.570 6  95795445.24744  23394190.750                    23394200.160
 108037421.579 8  84185085.050 8  20558826.047                    20558834.090
 117507694.422 7  91564617.347 6  22360995.273                    22361005.797
 128636522.050 7 100236289.425 6  24478721.125                    24478730.313
 109811030.966 8  85567136.35046  20896328.523                    20896334.281
 11  8 20  1 16  0.0000000  0  9G10G30G12G17G04G05G25G29G02
 113540570.382 7  88473269.67745  21606043.852                    21606051.648
 115993566.868 7  90384672.25245  22072846.563                    22072854.633
 109051385.851 8  84975191.353 7  20751789.617                    20751796.863
 128714358.228 6 100296975.474 6  24493530.727                    24493540.809
 123019380.299 6  95859345.00844  23409796.156                    23409804.859
 107996046.707 8  84152844.913 8  20550952.813                    20550959.953
 117442915.982 7  91514140.691 7  22348668.688                    22348678.809
 128556180.430 6 100173685.640 6  24463432.547                    24463441.684
 109835591.856 8  85586274.71446  20901002.273                    20901007.531
 11  8 20  1 16 30.0000000  0  9G10G30G12G17G04G05G25G29G02
 113605822.929 7  88524115.82245  21618461.047                    21618469.082
 115940643.386 7  90343433.20445  22062775.883                    22062784.133
 109049684.245 8  84973865.428 7  20751465.508                    20751472.949
 128786584.860 6 100353255.984 6  24507274.250                    24507284.461
 123101362.346 6  95923227.12144  23425396.805                    23425405.652
 107955220.053 8  84121031.977 8  20543183.820                    20543191.270
 117378592.735 7  91464018.703 7  22336428.648                    22336438.578
 128475767.821 6 100111026.520 5  24448130.500                    24448139.621
 109860314.572 8  85605539.17746  20905706.711                    20905712.418
 11  8 20  1 17  0.0000000  0  8G10G30G12G04G05G25G29G02
 113671566.578 8  88575344.63245  21630971.734                    21630979.438
 115888261.213 7  90302615.92444  22052808.133                    22052816.320
 109048566.824 8  84972994.714 7  20751253.109                    20751260.734
 123183320.867 6  95987090.89743  23440993.328                    23441001.910
 107914942.554 8  84089646.946 8  20535519.109                    20535526.727
 117314726.878 7  91414253.102 7  22324275.164                    22324285.477
 128395284.752 6 100048312.453 6  24432814.820                    24432824.430
 109885197.990 8  85624928.86046  20910441.961                    20910447.418
 11  8 20  1 17 30.0000000  0  8G10G30G12G04G05G25G29G02
 113737798.858 8  88626954.20345  21643575.414                    21643582.848
 115836422.002 7  90262221.74844  22042942.961                    22042950.988
 109048033.647 8  84972579.262 7  20751151.500                    20751158.852
 123265254.714 6  96050935.44243  23456584.641                    23456594.145
 107875215.377 8  84058690.741 8  20527959.219                    20527967.039
 117251320.428 7  91364845.461 7  22312208.867                    22312219.910
 128314731.937 6  99985544.071 6  24417485.852                    24417495.730
 109910241.184 8  85644443.03446  20915207.563                    20915213.160
 11  8 20  1 18  0.0000000  0  8G10G30G12G04G05G25G29G02
 113804516.727 8  88678942.16445  21656271.336                    21656278.574
 115785127.332 7  90222251.86344  22033181.547                    22033189.977
 109048084.793 8  84972619.112 8  20751161.383                    20751168.719
 123347163.116 6  96114760.17744  23472170.945                    23472180.305
 107836039.495 8  84028164.121 8  20520504.289                    20520511.902
 117188375.468 7  91315797.447 7  22300230.977                    22300241.539
 128234109.742 6  99922721.613 6  24402143.180                    24402154.066
 109935442.969 8  85664080.80446  20920003.242                    20920009.148
 11  8 20  1 18 30.0000000  0  8G10G30G12G04G05G25G29G02
 113871717.870 8  88731306.67945  21669059.516                    21669066.844
 115734378.784 7  90182707.56544  22023524.688                    22023532.887
 109048720.191 8  84973114.231 7  20751282.547                    20751289.676
 123429044.892 7  96178564.18744  23487752.516                    23487762.246
 107797415.945 8  83998067.876 8  20513154.539                    20513162.172
 117125893.901 7  91267110.546 7  22288341.625                    22288351.949
 128153418.596 6  99859845.437 6  24386789.094                    24386798.926
 109960801.923 8  85683841.03346  20924829.109                    20924834.434
 11  8 20  1 19  0.0000000  0  8G10G30G12G04G05G25G29G02
 113939399.328 7  88784045.48045  21681938.234                    21681946.316
 115684177.625 7  90143589.76144  22013971.367                    22013979.914
 109049939.334 8  84974064.220 7  20751514.289                    20751521.992
 123510898.798 7  96242346.45143  23503328.359                    23503338.551
 107759345.685 8  83968402.773 8  20505909.844                    20505917.598
 117063877.373 7  91218785.991 7  22276539.992                    22276550.426
 128072658.965 6  99796915.912 6  24371420.797                    24371430.566
 109986316.720 8  85703722.70546  20929684.266                    20929689.793
 11  8 20  1 19 30.0000000  0  8G10G30G12G04G05G25G29G02
 114007559.883 7  88837157.59545  21694909.352                    21694917.121
 115634526.738 7  90104900.75744  22004523.289                    22004531.605
 109051743.746 8  84975470.258 7  20751857.492                    20751865.004
 123592725.161 7  96306107.23844  23518900.219                    23518909.141
 107721830.205 8  83939169.967 8  20498771.320                    20498778.555
 117002329.291 8  91170826.463 7  22264827.602                    22264838.219
 127991832.404 6  99733934.258 6  24356039.953                    24356049.168
 110011987.709 8  85723726.08846  20934568.961                    20934574.824
 11  8 20  1 20  0.0000000  0  8G10G30G12G04G05G25G29G02
 114076196.530 7  88890640.70045  21707970.039                    21707978.391
 115585427.350 7  90066641.49844  21995179.695                    21995188.875
 109054132.870 8  84977331.922 7  20752312.258                    20752319.762
 123674522.742 6  96369845.58043  23534465.836                    23534474.309
 107684870.397 8  83910370.150 8  20491737.516                    20491744.973
 116941251.269 8  91123233.179 7  22253205.125                    22253215.480
 127910939.232 6  99670900.671 6  24340646.430                    24340656.141
 110037813.385 8  85743849.99246  20939484.094                    20939489.402
 11  8 20  1 20 30.0000000  0  8G10G30G12G04G05G25G29G02
 114145306.438 7  88944492.57445  21721121.547                    21721129.465
 115536880.781 7  90028813.00544  21985942.508                    21985950.934
 109057106.039 8  84979648.686 7  20752877.742                    20752885.391
 123756290.495 6  96433560.70043  23550025.227                    23550034.141
 107648466.976 8  83882003.889 8  20484809.984                    20484817.844
 116880645.103 8  91076007.568 7  22241671.945                    22241682.918
 127829979.970 7  99607815.577 6  24325240.430                    24325249.309
 110063792.344 8  85764093.34246  20944427.086                    20944432.742
 11  8 20  1 21  0.0000000  0  8G10G30G12G04G05G25G29G02
 114214886.605 7  88998710.88245  21734362.250                    21734370.266
 115488888.172 7  89991416.17544  21976809.234                    21976817.898
 109060663.080 8  84982420.403 7  20753554.828                    20753561.828
 123838027.061 6  96497251.53343  23565579.438                    23565587.793
 107612620.822 8  83854071.853 8  20477989.156                    20477996.480
 116820512.427 8  91029150.942 7  22230229.484                    22230240.383
 127748954.920 7  99544679.254 6  24309821.516                    24309830.879
 110089923.064 8  85784454.94546  20949399.883                    20949405.359
 11  8 20  1 21 30.0000000  0  8G10G30G12G04G05G25G29G02
 114284935.176 7  89053294.18345  21747691.914                    21747700.359
 115441452.004 7  89954452.93744  21967782.523                    21967790.879
 109064804.838 8  84985647.750 7  20754343.164                    20754350.375
 123919732.311 6  96560917.96843  23581127.031                    23581136.039
 107577333.465 8  83826575.242 8  20471274.156                    20471281.754
 116760856.035 8  90982665.447 7  22218877.164                    22218887.570
 127667865.318 7  99481492.604 6  24294391.109                    24294400.473
 110116205.570 8  85804934.83146  20954401.125                    20954406.871
 11  8 20  1 22  0.0000000  0  8G10G30G12G04G05G25G29G02
 114355449.904 7  89108240.71245  21761110.336                    21761118.941
 115394573.978 7  89917924.62344  21958861.281                    21958870.363
 109069531.219 8  84989330.639 7  20755242.516                    20755249.711
 124001405.815 7  96624559.62443  23596669.438                    23596678.375
 107542606.048 8  83799514.950 8  20464665.609                    20464673.660
 116701678.184 8  90936552.839 7  22207616.086                    22207626.699
 127586712.170 6  99418256.452 6  24278947.938                    24278957.246
 110142639.112 8  85825532.40646  20959431.250                    20959437.219
 11  8 20  1 22 30.0000000  0  8G10G30G12G04G05G25G29G02
 114426427.621 7  89163548.02245  21774616.703                    21774624.934
 115348255.172 7  89881832.05144  21950047.797                    21950055.984
 109074841.454 8  84993468.482 7  20756253.211                    20756260.438
 124083046.250 7  96688175.51643  23612205.023                    23612214.250
 107508439.196 8  83772891.470 8  20458163.977                    20458171.742
 116642980.405 8  90890814.321 7  22196446.297                    22196456.688
 127505495.866 7  99354971.083 6  24263492.828                    24263501.988
 110169222.075 8  85846246.39546  20964490.039                    20964495.598
 11  8 20  1 23  0.0000000  0  8G10G30G12G04G05G25G29G02
 114497865.553 7  89219213.93545  21788211.328                    21788219.313
 115302496.972 7  89846176.30045  21941339.961                    21941348.832
 109080735.365 8  84998061.149 7  20757374.516                    20757382.059
 124164652.626 7  96751764.89843  23627734.219                    23627743.824
 107474833.801 8  83746705.478 8  20451768.852                    20451776.617
 116584764.484 8  90845451.284 7  22185368.047                    22185378.238
 127424216.919 7  99291636.908 6  24248025.695                    24248035.234
 110195953.173 8  85867075.82746  20969576.594                    20969582.383
 11  8 20  1 23 30.0000000  0  8G10G30G12G04G05G25G29G02
 114569761.790 7  89275236.96945  21801892.836                    21801900.703
 115257301.513 8  89810959.04445  21932739.961                    21932748.301
 109087213.442 8  85003108.983 7  20758607.188                    20758614.293
 124246224.969 7  96815327.75043  23643257.383                    23643265.648
 107441790.557 8  83720957.531 8  20445481.063                    20445488.859
 116527033.141 8  90800465.824 7  22174382.297                    22174392.477
 127342876.682 7  99228254.944 6  24232547.758                    24232556.781
 110222832.291 8  85888020.59146  20974691.500                    20974697.230
 11  8 20  1 24  0.0000000  0  8G10G30G12G04G05G25G29G02
 114642113.367 7  89331614.81245  21815660.797                    21815668.891
 115212670.308 8  89776181.48745  21924246.938                    21924255.574
 109094275.607 8  85008611.975 7  20759951.086                    20759958.438
 124327762.470 7  96878863.42943  23658773.063                    23658782.277
 107409310.897 8  83695648.746 8  20439300.195                    20439307.797
 116469788.262 8  90755859.424 7  22163488.703                    22163499.348
 127261475.403 7  99164825.452 6  24217057.195                    24217066.891
 110249858.437 8  85909079.93146  20979834.320                    20979839.902
 11  8 20  1 24 30.0000000  0  8G10G30G12G04G05G25G29G02
 114714917.513 7  89388345.30545  21829514.836                    21829522.934
 115168604.391 8  89741844.41946  21915861.406                    21915870.098
 109101921.299 8  85014569.657 7  20761406.234                    20761413.195
 124409264.042 7  96942371.14543  23674282.164                    23674290.828
 107377395.157 8  83670779.371 8  20433226.953                    20433234.770
 116413031.497 8  90711633.398 7  22152688.109                    22152698.609
 127180014.519 7  99101349.530 6  24201555.383                    24201564.754
 110277030.390 8  85930252.88346  20985004.930                    20985010.836
 11  8 20  1 25  0.0000000  0  8G10G30G12G04G05G25G29G02
 114788172.102 8  89445426.79745  21843454.680                    21843462.758
 115125105.503 8  89707949.18046  21907583.805                    21907592.063
 109110150.262 8  85020981.834 7  20762972.031                    20762979.441
 124490729.167 7  97005850.42143  23689784.703                    23689793.988
 107346044.371 8  83646350.214 8  20427260.969                    20427268.660
 116356765.034 8  90667789.414 7  22141980.992                    22141991.625
 127098494.422 7  99037827.408 6  24186042.867                    24186051.668
 110304347.353 8  85951538.82446  20990203.711                    20990209.164
 11  8 20  1 25 30.0000000  0  8G10G30G12G04G05G25G29G02
 114861873.954 7  89502856.78445  21857479.758                    21857487.742
 115082174.705 8  89674496.61845  21899414.406                    21899422.238
 109118961.882 8  85027848.021 7  20764648.578                    20764655.996
 124572156.878 7  97069300.57243  23705279.844                    23705289.098
 107315259.243 8  83622361.838 8  20421402.992                    20421410.484
 116300990.451 8  90624328.718 7  22131367.672                    22131378.188
 127016915.683 6  98974259.588 6  24170519.422                    24170528.188
 110331808.034 8  85972936.75046  20995429.219                    20995434.273
 11  8 20  1 26  0.0000000  0  8G10G30G12G04G05G25G29G02
 114936020.716 7  89560633.47345  21871589.063                    21871596.914
 115039813.795 8  89641488.14045  21891353.156                    21891361.730
 109128356.507 8  85035168.512 7  20766436.281                    20766443.953
 124653546.670 7  97132721.16544  23720767.672                    23720777.371
 107285040.690 8  83598814.942 8  20415652.148                    20415659.922
 116245710.088 8  90581253.136 7  22120848.172                    22120858.324
 126935279.606 6  98910647.107 6  24154983.578                    24154993.473
 110359412.000 7  85994446.32046  21000682.203                    21000687.641
 11  8 20  1 26 30.0000000  0  8G10G30G12G04G05G25G29G02
 115010609.547 7  89618754.63045  21885782.688                    21885791.020
 114998023.821 8  89608924.54445  21883401.234                    21883409.203
 109138333.639 8  85042942.887 7  20768335.102                    20768342.082
 124734897.749 7  97196111.61643  23736248.156                    23736257.914
 107255389.195 8  83575709.915 8  20410010.000                    20410017.445
 116190925.399 8  90538563.796 7  22110422.961                    22110433.172
 126853586.532 6  98846990.268 6  24139438.281                    24139447.629
 110387157.863 8  86016066.46046  21005961.742                    21005967.488
 11  8 20  1 27  0.0000000  0  8G10G30G12G04G05G25G29G02
 115085637.988 7  89677218.34445  21900060.625                    21900068.969
 114956806.612 8  89576807.22045  21875557.656                    21875565.582
 109148892.910 8  85051170.885 7  20770344.391                    20770351.570
 124816209.895 7  97259471.71143  23751721.320                    23751731.492
 107226305.800 8  83553047.558 8  20404475.625                    20404483.016
 116136638.861 8  90496262.616 7  22100092.344                    22100102.035
 126771837.800 5  98783290.059 6  24123881.758                    24123891.832
 110415045.378 8  86037796.98446  21011268.328                    21011274.449
 11  8 20  1 27 30.0000000  0  8G10G30G12G04G05G25G29G02
 115161103.222 7  89736022.40445  21914420.914                    21914429.422
 114916163.450 8  89545137.19645  21867823.508                    21867831.090
 109160033.840 8  85059852.124 7  20772464.359                    20772472.020
 124897482.214 7  97322800.75643  23767187.539                    23767196.684
 107197791.318 8  83530828.509 8  20399049.344                    20399056.566
 116082852.199 8  90454350.943 7  22089857.211                    22089867.457
 126690034.159 6  98719547.000 6  24108315.703                    24108324.566
 110443073.598 8  86059637.14846  21016602.359                    21016608.000
 11  8 20  1 28  0.0000000  0  8G10G30G12G04G05G25G29G02
 115237002.416 7  89795164.61145  21928863.953                    21928872.004
 114876095.193 8  89513915.18845  21860198.719                    21860206.648
 109171755.859 8  85068986.158 7  20774695.344                    20774702.371
 124978713.374 7  97386097.74043  23782645.234                    23782654.129
 107169846.175 8  83509053.093 8  20393731.344                    20393739.055
 116029566.866 8  90412829.945 7  22079717.320                    22079727.359
 126608175.948 6  98655761.441 6  24092738.602                    24092747.410
 110471240.849 8  86081585.64746  21021962.289                    21021967.980
 11  8 20  1 28 30.0000000  0  8G10G30G12G04G05G25G29G02
 115313332.932 7  89854642.91345  21943389.367                    21943397.434
 114836603.329 8  89483142.31645  21852683.563                    21852691.996
 109184058.763 8  85078572.831 7  20777036.508                    20777044.012
 125059903.444 7  97449362.71343  23798094.930                    23798104.566
 107142470.556 8  83487721.464 8  20388522.219                    20388529.504
 115976784.861 8  90371701.101 7  22069673.219                    22069683.465
 126526264.345 6  98591934.191 5  24077151.406                    24077159.605
 110499546.720 8  86103642.15646  21027348.602                    21027354.207
 11  8 20  1 29  0.0000000  0  8G10G30G12G04G05G25G29G02
 115390092.365 7  89914455.43145  21957996.109                    21958004.445
 114797689.364 8  89452819.73745  21845278.547                    21845286.848
 109196942.397 8  85088612.017 7  20779488.117                    20779495.512
 125141051.676 7  97512595.07943  23813537.094                    23813545.824
 107115665.526 8  83466834.452 8  20383421.297                    20383428.684
 115924508.268 8  90330966.122 7  22059725.289                    22059735.703
 126444300.295 7  98528066.104 6  24061553.383                    24061562.875
 110527990.540 8  86125806.16146  21032761.461                    21032766.973
 11  8 20  1 29 30.0000000  0  8G10G30G12G04G05G25G29G02
 115467277.391 7  89974599.57545  21972683.930                    21972692.664
 114759353.923 8  89422947.96045  21837983.852                    21837991.863
 109210405.539 8  85099102.779 7  20782050.063                    20782057.711
 125222156.869 7  97575793.92843  23828971.242                    23828979.926
 107089431.317 8  83446392.234 8  20378428.969                    20378436.137
 115872738.244 8  90290625.842 7  22049873.727                    22049883.734
 126362284.356 7  98464157.609 6  24045947.359                    24045956.613
 110556570.545 8  86148076.30146  21038200.070                    21038205.453
 11  8 20  1 30  0.0000000  0  8G10G30G12G04G05G25G29G02
 115544886.030 7  90035073.82745  21987452.883                    21987460.879
 114721599.007 8  89393528.55545  21830798.711                    21830807.164
 109224448.465 8  85110045.310 7  20784722.047                    20784729.777
 125303219.323 6  97638959.43343  23844396.305                    23844405.988
 107063769.214 8  83426395.806 8  20373545.445                    20373552.918
 115821477.409 8  90250682.322 7  22040119.320                    22040129.434
 126280218.107 7  98400209.908 6  24030329.859                    24030338.609
 110585287.248 8  86170452.95146  21043664.250                    21043669.957
 11  8 20  1 30 30.0000000  0  8G10G30G12G04G05G25G29G02
 115622915.083 7  90095875.66745  22002300.961                    22002309.117
 114684425.080 8  89364561.85745  21823724.695                    21823733.543
 109239069.617 8  85121438.408 7  20787504.750                    20787512.469
 125384237.599 6  97702090.53643  23859814.031                    23859823.293
 107038679.255 8  83406845.212 8  20368771.188                    20368778.555
 115770726.767 8  90211136.382 7  22030461.484                    22030471.855
 126198101.607 7  98336223.062 6  24014704.320                    24014712.816
 110614138.428 8  86192934.37246  21049154.508                    21049160.199
 11  8 20  1 31  0.0000000  0  8G10G30G12G04G05G25G29G02
 115701361.800 7  90157002.95845  22017229.047                    22017237.090
 114647833.443 8  89336048.89845  21816761.773                    21816770.070
 109254268.805 8  85133281.931 7  20790396.977                    20790404.320
 125465211.167 6  97765186.80143  23875222.867                    23875232.180
 107014161.425 8  83387740.433 8  20364105.539                    20364112.984
 115720488.142 8  90171989.396 7  22020901.289                    22020911.559
 126115935.857 6  98272197.820 6  23999068.430                    23999077.258
 110643123.271 8  86215519.96946  21054670.438                    21054676.449
 11  8 20  1 31 30.0000000  0  8G10G30G12G04G05G25G29G02
 115780224.020 7  90218454.01245  22032236.031                    22032243.930
 114611825.838 7  89307991.03445  21809909.820                    21809918.156
 109270046.668 8  85145576.376 7  20793399.328                    20793406.754
 125546140.074 6  97828248.22443  23890623.125                    23890631.848
 106990217.190 8  83369082.603 8  20359549.031                    20359556.613
 115670763.926 8  90133243.278 7  22011439.047                    22011449.703
 126033722.466 6  98208135.476 6  23983423.375                    23983432.605
 110672242.265 8  86238210.08646  21060211.547                    21060217.426
 11  8 20  1 32  0.0000000  0  8G10G30G12G04G05G25G29G02
 115859498.395 7  90280226.22845  22047320.992                    22047329.512
 114576403.105 8  89280388.92045  21803169.219                    21803177.809
 109286401.670 8  85158320.528 7  20796511.492                    20796519.008
 125627023.534 6  97891274.24243  23906014.359                    23906024.176
 106966846.778 8  83350871.918 8  20355101.914                    20355109.457
 115621555.565 8  90094899.111 7  22002075.172                    22002085.742
 125951462.225 6  98144036.634 6  23967769.516                    23967779.207
 110701494.068 8  86261003.69046  21065778.016                    21065783.813
 11  8 20  1 32 30.0000000  0  8G10G30G12G04G05G25G29G02
 115939182.009 7  90342317.34445  22062484.914                    22062492.922
 114541566.130 8  89253243.25645  21796540.086                    21796548.141
 109303333.135 8  85171513.872 7  20799733.383                    20799740.617
 125707860.600 6  97954264.15243  23921397.609                    23921406.121
 106944050.706 8  83333108.764 8  20350763.797                    20350771.477
 115572864.498 8  90056958.041 7  21992809.156                    21992819.902
 125869155.952 7  98079901.927 6  23952107.375                    23952117.008
 110730877.453 8  86283899.83346  21071369.539                    21071374.770
 11  8 20  1 33  0.0000000  0  8G10G30G12G04G05G25G29G02
 116019272.546 7  90404725.53845  22077725.797                    22077733.547
 114507316.256 7  89226555.05745  21790022.313                    21790031.227
 109320840.616 8  85185156.052 7  20803065.063                    20803072.852
 125788651.044 6  98017217.69243  23936771.016                    23936780.813
 106921829.161 8  83315793.293 8  20346535.234                    20346543.000
 115524692.612 8  90019421.555 7  21983642.453                    21983652.832
 125786804.688 7  98015732.167 6  23936436.680                    23936445.246
 110760391.847 8  86306898.06546  21076985.859                    21076991.559
 11  8 20  1 33 30.0000000  0  8G10G30G12G04G05G25G29G02
 116099767.344 7  90467448.74945  22093042.969                    22093051.145
 114473654.413 7  89200325.07145  21783616.695                    21783625.273
 109338923.438 8  85199246.558 7  20806506.203                    20806513.227
 125869394.321 6  98080134.48643  23952135.570                    23952144.777
 106900182.540 8  83298925.827 8  20342415.898                    20342423.547
 115477041.560 8  89982290.879 7  21974575.023                    21974585.090
 125704408.956 6  97951527.771 6  23920756.953                    23920765.941
 110790036.403 8  86329997.72246  21082627.430                    21082632.734
 11  8 20  1 34  0.0000000  0  8G10G30G12G04G05G25G29G02
 116180663.059 7  90530484.35445  22108437.188                    22108445.371
 114440581.201 7  89174553.76845  21777322.961                    21777331.398
 109357580.499 8  85213784.521 7  20810056.266                    20810063.828
 125950089.375 6  98143013.72443  23967491.711                    23967500.992
 106879111.060 8  83282506.504 8  20338406.164                    20338414.191
 115429912.536 8  89945566.979 7  21965606.703                    21965617.258
 125621969.980 6  97887289.628 6  23905069.195                    23905078.410
 110819809.749 8  86353197.73146  21088292.688                    21088298.270
 11  8 20  1 34 30.0000000  0  8G10G30G12G04G05G25G29G02
 116261957.254 7  90593830.47345  22123906.648                    22123914.941
 114408098.333 7  89149242.46445  21771141.586                    21771150.395
 109376811.516 8  85228769.717 7  20813716.203                    20813723.305
 126030736.372 6  98205855.52543  23982838.289                    23982847.758
 106858615.421 8  83266535.911 8  20334505.930                    20334513.629
 115383307.817 8  89909251.628 7  21956737.953                    21956748.164
 125539489.061 6  97823018.817 6  23889373.344                    23889383.434
 110849712.059 8  86376498.22846  21093983.047                    21093988.559
 11  8 20  1 35  0.0000000  0  8G10G30G12G04G05G25G29G02
 116343646.905 7  90657484.72545  22139451.930                    22139459.867
 114376206.238 7  89124391.49945  21765073.094                    21765080.590
 109396615.343 8  85244201.261 7  20817484.398                    20817491.934
 126111334.327 6  98268659.10943  23998175.625                    23998185.520
 106838695.580 8  83251013.983 8  20330714.977                    20330722.836
 115337228.483 8  89873345.694 7  21947969.477                    21947978.961
 125456966.766 6  97758715.799 6  23873670.141                    23873679.824
 110879741.643 8  86399897.90946  21099697.758                    21099703.211
 11  8 20  1 35 30.0000000  0  8G10G30G12G04G05G25G29G02
 116425729.085 7  90721444.84845  22155071.883                    22155079.676
 114344905.948 7  89100001.70245  21759116.641                    21759124.484
 109416991.418 8  85260078.706 7  20821362.070                    20821369.297
 126191882.658 6  98331424.00843  24013503.594                    24013512.883
 106819351.974 8  83235941.074 8  20327034.398                    20327042.102
 115291676.207 8  89837850.458 7  21939300.727                    21939310.809
 125374403.982 6  97694381.202 6  23857958.852                    23857968.172
 110909897.991 8  86423396.36046  21105435.750                    21105441.379
 11  8 20  1 36  0.0000000  0  8G10G30G12G04G05G25G29G02
 116508201.412 7  90785708.99245  22170765.367                    22170773.684
 114314198.651 7  89076073.95845  21753273.281                    21753281.359
 109437938.863 8  85276401.386 7  20825348.227                    20825355.504
 126272381.401 6  98394150.26043  24028821.305                    24028831.414
 106800585.088 8  83221317.549 8  20323463.445                    20323470.813
 115246652.881 8  89802767.369 7  21930732.922                    21930743.156
 125291801.840 6  97630015.954 6  23842239.734                    23842249.785
 110940180.536 8  86446993.14946  21111198.586                    21111203.902
 11  8 20  1 36 30.0000000  0  8G10G30G12G04G05G25G29G02
 116591060.740 7  90850274.67545  22186533.477                    22186541.469
 114284084.800 8  89052608.64845  21747542.617                    21747551.133
 109459457.043 8  85293168.791 7  20829442.734                    20829449.852
 126352829.298 6  98456836.90242  24044130.211                    24044140.254
 106782394.675 8  83207143.233 8  20320001.484                    20320009.203
 115202159.517 8  89768097.242 7  21922266.289                    21922276.484
 125209161.300 6  97565620.750 6  23826513.945                    23826523.797
 110970588.041 8  86470687.31546  21116984.805                    21116990.363
 11  8 20  1 37  0.0000000  0  8G10G30G12G04G05G25G29G02
 116674304.943 7  90915140.26345  22202374.266                    22202382.133
 114254565.912 7  89029606.93745  21741925.227                    21741933.672
 109481544.950 8  85310380.139 7  20833646.188                    20833653.609
 126433226.676 6  98519484.18242  24059430.141                    24059439.512
 106764781.610 8  83193418.799 8  20316649.930                    20316657.559
 115158198.306 8  89733841.781 7  21913900.344                    21913910.941
 125126484.239 6  97501197.066 6  23810780.719                    23810790.121
 111001120.691 8  86494478.99646  21122795.125                    21122800.504
 11  8 20  1 37 30.0000000  0  8G10G30G12G04G05G25G29G02
 116757930.313 7  90980302.86545  22218287.445                    22218296.027
 114225642.087 8  89007068.92145  21736421.422                    21736429.438
 109504201.400 8  85328034.502 7  20837957.500                    20837965.066
 126513572.368 5  98582091.15742  24074719.016                    24074728.633
 106747745.293 8  83180143.781 8  20313408.023                    20313415.578
 115114769.963 8  89700001.549 7  21905636.695                    21905646.797
 125043770.682 7  97436744.938 6  23795041.297                    23795050.379
 111031776.541 8  86518366.67446  21128628.719                    21128634.219
 11  8 20  1 38  0.0000000  0  8G10G30G12G04G05G25G29G02
 116841934.150 7  91045760.37045  22234272.773                    22234281.223
 114197314.355 7  88984995.38545  21731030.563                    21731039.180
 109527425.604 8  85346131.267 7  20842377.086                    20842384.020
 126593866.152 6  98644657.70143  24089998.234                    24090007.965
 106731286.267 8  83167318.593 8  20310275.930                    20310283.352
 115071876.290 8  89666577.932 7  21897474.297                    21897484.598
 124961021.994 7  97372265.458 6  23779295.391                    23779303.547
 111062555.279 8  86542350.10146  21134485.906                    21134491.672
 11  8 20  1 38 30.0000000  0  8G10G30G12G04G05G25G29G02
 116926314.118 7  91111510.97445  22250330.125                    22250338.281
 114169583.863 7  88963387.22845  21725753.391                    21725762.586
 109551216.864 8  85364669.915 7  20846904.320                    20846911.867
 126674107.600 5  98707183.47942  24105268.156                    24105277.508
 106715404.891 8  83154943.522 8  20307253.898                    20307261.484
 115029518.960 8  89633572.256 7  21889414.000                    21889423.746
 124878239.443 7  97307759.593 5  23763542.016                    23763550.324
 111093456.512 8  86566428.99246  21140366.141                    21140371.336
 11  8 20  1 39  0.0000000  0  8G10G30G12G04G05G25G29G02
 117011067.341 7  91177552.44545  22266457.789                    22266466.172
 114142451.262 7  88942244.95545  21720590.453                    21720599.156
 109575574.413 8  85383649.805 7  20851539.547                    20851546.527
 126754296.279 6  98769668.14143  24120527.719                    24120537.074
 106700101.152 8  83143018.552 8  20304341.586                    20304348.910
 114987699.369 8  89600985.557 7  21881456.141                    21881466.242
 124795424.202 7  97243228.237 6  23747782.641                    23747791.215
 111124479.466 8  86590602.72346  21146269.836                    21146274.984
 11  8 20  1 39 30.0000000  0  8G10G30G12G04G05G25G29G02
 117096190.334 7  91243882.02545  22282656.336                    22282664.828
 114115916.743 7  88921568.72745  21715541.008                    21715549.426
 109600496.544 8  85403069.645 7  20856281.852                    20856289.023
 126834431.376 6  98832111.07242  24135776.523                    24135786.574
 106685374.722 8  83131543.433 8  20301539.156                    20301547.164
 114946418.398 8  89568818.584 7  21873600.320                    21873610.387
 124712576.713 7  97178671.771 6  23732017.367                    23732026.383
 111155622.613 8  86614870.10946  21152195.766                    21152201.004
 11  8 20  1 40  0.0000000  0  8G10G30G12G04G05G25G29G02
 117181680.457 7  91310497.68445  22298924.367                    22298932.867
 114089981.250 7  88901359.27445  21710605.609                    21710614.082
 109625982.712 8  85422928.994 7  20861131.867                    20861138.668
 126914512.714 6  98894512.02743  24151015.844                    24151026.047
 106671225.703 8  83120518.248 8  20298846.656                    20298854.395
 114905677.659 8  89537072.574 7  21865847.734                    21865858.059
 124629698.420 7  97114091.300 5  23716246.219                    23716254.207
 111186885.624 8  86639230.90446  21158145.219                    21158150.613
 11  8 20  1 40 30.0000000  0  8G10G30G12G04G05G25G29G02
 117267535.304 7  91377397.55745  22315262.125                    22315269.844
 114064645.746 7  88881617.33245  21705784.297                    21705793.152
 109652031.980 8  85443227.111 7  20866088.875                    20866096.258
 126994540.051 6  98956870.96342  24166244.531                    24166254.824
 106657654.759 8  83109943.507 8  20296263.961                    20296271.492
 114865478.867 8  89505748.844 7  21858198.203                    21858208.078
 124546790.640 7  97049487.843 6  23700469.391                    23700477.313
 111218268.306 8  86663684.94046  21164116.930                    21164122.324
 11  8 20  1 41  0.0000000  0  8G10G30G12G04G05G25G29G02
 117353751.373 7  91444578.89544  22331668.789                    22331676.555
 114039910.469 7  88862343.08845  21701077.578                    21701085.836
 109678642.792 8  85463962.808 7  20871152.609                    20871160.152
 127074512.487 6  99019187.17243  24181463.008                    24181472.746
 106644661.282 8  83099818.740 8  20293791.695                    20293799.230
 114825822.844 8  89474848.059 7  21850652.070                    21850661.867
 124463853.879 7  96984861.860 6  23684686.672                    23684694.945
 111249768.956 8  86688230.90646  21170111.305                    21170116.512
 11  8 20  1 41 30.0000000  0  8G10G30G12G04G05G25G29G02
 117440325.971 7  91512039.61645  22348143.406                    22348151.609
 114015776.249 8  88843537.21145  21696485.000                    21696493.207
 109705814.658 8  85485135.687 7  20876323.305                    20876330.492
 127154429.837 6  99081460.34642  24196671.039                    24196680.027
 106632245.519 8  83090144.139 8  20291429.039                    20291436.551
 114786711.209 8  89444371.451 7  21843209.547                    21843219.031
 124380890.037 7  96920214.753 6  23668898.961                    23668908.180
 111281387.485 8  86712868.72446  21176128.078                    21176133.555
 11  8 20  1 42  0.0000000  0  8G10G30G12G04G05G25G29G02
 117527256.806 7  91579777.91945  22364685.563                    22364693.367
 113992244.057 8  88825200.43945  21692007.227                    21692015.637
 109733546.219 8  85506744.698 7  20881600.266                    20881607.590
 127234292.070 6  99143690.65643  24211867.805                    24211877.262
 106620407.355 8  83080919.616 8  20289176.039                    20289183.348
 114748145.515 8  89414320.277 7  21835870.422                    21835880.668
 124297900.169 7  96855547.400 6  23653106.445                    23653115.156
 111313123.577 8  86737598.15046  21182166.875                    21182172.719
 11  8 20  1 42 30.0000000  0  8G10G30G12G04G05G25G29G02
 117614540.722 7  91647791.35945  22381295.117                    22381303.406
 113969314.203 8  88807333.03445  21687643.766                    21687652.227
 109761836.278 8  85528788.883 7  20886983.852                    20886991.172
 127314098.579 6  99205877.54442  24227055.031                    24227063.902
 106609147.024 8  83072145.347 8  20287033.141                    20287040.492
 114710126.908 8  89384695.371 7  21828635.648                    21828645.734
 124214885.260 6  96790860.516 6  23637308.773                    23637318.102
 111344976.154 7  86762418.34746  21188228.453                    21188234.117
 11  8 20  1 43  0.0000000  0  8G10G30G12G04G05G25G29G02
 117702174.462 7  91716077.40045  22397971.125                    22397979.207
 113946986.870 8  88789935.10845  21683395.000                    21683403.199
 109790683.557 7  85551267.289 7  20892473.508                    20892480.867
 127393848.562 6  99268020.39442  24242230.109                    24242239.648
 106598463.724 8  83063820.716 8  20285000.563                    20285008.016
 114672656.244 8  89355497.463 7  21821505.375                    21821515.613
 124131845.834 6  96726154.577 6  23621507.656                    23621516.863
 111376943.828 7  86787328.21546  21194311.766                    21194317.219
 11  8 20  1 43 30.0000000  0  8G10G30G12G04G05G25G29G02
 117790155.620 7  91784634.14244  22414713.375                    22414721.641
 113925263.012 8  88773007.44945  21679260.938                    21679269.305
 109820087.409 8  85574179.368 7  20898068.695                    20898075.797
 127473542.079 6  99330119.16242  24257395.555                    24257404.676
 106588358.172 8  83055946.274 8  20283077.031                    20283084.711
 114635735.262 8  89326727.855 7  21814479.438                    21814489.199
 124048783.916 6  96661431.077 6  23605700.414                    23605710.695
 111409027.023 8  86812328.11946  21200416.945                    21200422.656
 11  8 20  1 44  0.0000000  0  9G10G30G12G26G04G05G25G29G02
 117878481.200 7  91853459.26345  22431520.898                    22431529.918
 113904142.968 8  88756550.25745  21675241.836                    21675250.113
 109850046.293 7  85597523.956 7  20903769.891                    20903777.266
 130497055.89515                  24832770.695
 127553178.655 6  99392173.58642  24272549.695                    24272559.074
 106578829.952 8  83048521.709 8  20281264.289                    20281271.926
 114599364.940 8  89298387.343 7  21807558.273                    21807568.742
 123965700.453 6  96596690.808 6  23589890.688                    23589899.867
 111441224.654 7  86837417.18146  21206544.281                    21206549.152
 11  8 20  1 44 30.0000000  0  9G10G30G12G26G04G05G25G29G02
 117967148.534 7  91922550.68445  22448393.500                    22448402.336
 113883627.374 8  88740564.08345  21671337.703                    21671346.559
 109880559.019 8  85621300.098 7  20909576.250                    20909583.391
 130405002.338 5                  24815254.484
 127632758.145 6  99454183.64342  24287693.078                    24287703.000
 106569878.917 8  83041546.894 8  20279560.930                    20279568.688
 114563546.703 8  89270477.033 7  21800742.609                    21800752.262
 123882596.871 7  96531934.830 6  23574076.406                    23574086.344
 111473536.147 8  86862594.97546  21212692.508                    21212698.539
 11  8 20  1 45  0.0000000  0  9G10G30G12G26G04G05G25G29G02
 118056154.889 7  91991906.27245  22465331.719                    22465339.715
 113863716.984 8  88725049.48545  21667549.313                    21667557.613
 109911624.761 8  85645507.173 7  20915487.727                    20915494.785
 130312814.647 5 101542525.95352  24797711.766                    24797722.828
 127712280.518 6  99516149.11242  24302826.586                    24302835.738
 106561505.099 8  83035021.869 8  20277967.250                    20277974.996
 114528281.972 8  89242998.017 7  21794031.992                    21794042.000
 123799474.626 7  96467164.325 6  23558259.016                    23558268.355
 111505961.134 8  86887861.20546  21218862.828                    21218868.648
 11  8 20  1 45 30.0000000  0  9G10G30G12G26G04G05G25G29G02
 118145496.845 7  92061523.36345  22482332.438                    22482340.777
 113844411.685 8  88710006.39945  21663875.117                    21663883.430
 109943241.780 8  85670143.812 7  20921504.266                    20921511.652
 130220494.783 5 101470588.58942  24780143.586                    24780155.668
 127791744.797 6  99578069.34042  24317947.609                    24317957.809
 106553707.971 8  83028946.219 8  20276483.578                    20276491.074
 114493571.471 8  89215950.901 7  21787426.523                    21787436.820
 123716334.303 7  96402379.697 6  23542438.195                    23542446.996
 111538498.567 8  86913215.05746  21225054.602                    21225059.910
 11  8 20  1 46  0.0000000  0  9G10G30G12G26G04G05G25G29G02
 118235171.101 7  92131399.38645  22499397.023                    22499405.625
 113825711.538 8  88695434.84645  21660316.859                    21660324.484
 109975408.115 8  85695208.488 7  20927625.375                    20927632.461
 130128045.392 5 101398550.25242  24762550.828                    24762562.871
 127871150.442 6  99639943.90742  24333057.180                    24333068.211
 106546486.892 8  83023319.439 8  20275109.414                    20275117.055
 114459415.904 8  89189336.159 7  21780926.898                    21780937.309
 123633176.874 7  96337581.758 6  23526613.641                    23526623.031
 111571147.267 8  86938655.60446  21231266.984                    21231272.969
 11  8 20  1 46 30.0000000  0  9G10G30G12G26G04G05G25G29G02
 118325175.329 7  92201532.54144  22516524.320                    22516532.828
 113807617.376 8  88681335.50045  21656873.609                    21656882.309
 110008123.224 8  85720700.780 7  20933850.820                    20933858.133
 130035469.845 5 101326413.66342  24744933.555                    24744946.781
 127950497.350 6  99701772.63042  24348157.719                    24348167.477
 106539842.029 8  83018141.658 8  20273845.203                    20273852.223
 114425816.939 8  89163155.176 7  21774533.133                    21774543.898
 123550003.920 7  96272771.723 6  23510786.594                    23510795.641
 111603907.219 8  86964182.84646  21237501.594                    21237506.836
 11  8 20  1 47  0.0000000  0  9G10G30G12G26G04G05G25G29G02
 118415506.310 7  92271920.30545  22533713.602                    22533722.008
 113790129.127 8  88667708.30445  21653546.031                    21653553.824
 110041385.403 8  85746619.353 7  20940180.461                    20940187.949
 129942771.19815 101254180.72352  24727294.055                    24727306.023
 128029785.022 6  99763555.26042  24363245.203                    24363255.488
 106533772.741 8  83013412.377 8  20272689.867                    20272697.625
 114392775.197 8  89137408.367 7  21768245.508                    21768256.105
 123466816.457 7  96207950.329 6  23494956.188                    23494965.098
 111636777.438 8  86989796.00346  21243756.492                    21243761.887
 11  8 20  1 47 30.0000000  0  9G10G30G12G26G04G05G25G29G02
 118506161.253 7  92342560.51544  22550964.578                    22550973.012
 113773247.096 8  88654553.48945  21650333.398                    21650341.191
 110075193.381 8  85772963.229 7  20946613.844                    20946621.020
 129849950.363 5 101181853.43542  24709629.641                    24709642.977
 128109013.289 6  99825291.59742  24378321.484                    24378332.422
 106528278.645 8  83009131.299 8  20271644.406                    20271651.879
 114360291.814 8  89112096.652 7  21762064.258                    21762075.016
 123383615.821 7  96143118.681 6  23479123.852                    23479132.477
 111669757.301 8  87015494.60546  21250032.336                    21250037.543
 11  8 20  1 48  0.0000000  0  9G10G30G12G26G04G05G25G29G02
 118597137.419 7  92413451.03444  22568277.086                    22568285.094
 113756971.734 8  88641871.39045  21647236.469                    21647244.484
 110109545.574 8  85799731.196 7  20953150.953                    20953158.109
 129757012.49115                  24691944.031
 128188182.016 6  99886981.55842  24393387.383                    24393397.277
 106523359.754 8  83005298.433 8  20270708.367                    20270715.902
 114328367.892 8  89087220.877 7  21755988.969                    21755999.586
 123300403.257 6  96078277.783 6  23463288.742                    23463297.133
 111702846.428 8  87041278.35146  21256329.008                    21256334.586
 11  8 20  1 48 30.0000000  0  9G10G30G12G26G04G05G25G29G02
 118688431.738 7  92484589.44845  22585649.766                    22585658.094
 113741303.240 8  88629662.17846  21644254.555                    21644263.281
 110144441.000 8  85826922.430 7  20959790.961                    20959798.555
 129663960.23415                  24674236.836
 128267290.603 6  99948624.61042  24408441.305                    24408451.117
 106519015.818 8  83001913.592 8  20269881.594                    20269888.840
 114297004.477 8  89062781.850 7  21750020.742                    21750031.094
 123217180.154 7  96013428.646 6  23447452.063                    23447461.207
 111736044.018 7  87067146.60146  21262645.719                    21262651.551
 11  8 20  1 49  0.0000000  0  9G10G30G12G26G04G05G25G29G02
 118780041.702 7  92555973.85644  22603082.961                    22603091.055
 113726241.873 8  88617926.04146  21641388.391                    21641396.832
 110179877.860 8  85854535.562 7  20966534.211                    20966542.156
 129570795.049 5                  24656508.484
 128346339.034 6 100010220.82442  24423483.414                    24423492.504
 106515246.092 8  82998976.167 8  20269164.430                    20269171.934
 114266202.575 8  89038780.380 7  21744159.289                    21744170.082
 123133947.844 7  95948572.325 6  23431613.523                    23431621.906
 111769349.569 8  87093098.98446  21268984.266                    21268989.801
 11  8 20  1 49 30.0000000  0  9G10G30G12G26G04G05G25G29G02
 118871964.552 7  92627602.05044  22620575.086                    22620583.355
 113711788.258 8  88606663.47546  21638638.516                    21638646.164
 110215855.132 8  85882569.807 7  20973380.664                    20973388.000
 129477521.692 5                  24638758.625
 128425327.177 5 100071770.09742  24438513.719                    24438523.813
 106512050.776 8  82996486.357 8  20268556.070                    20268563.879
 114235963.620 8  89015217.559 7  21738405.023                    21738415.582
 123050707.921 7  95883710.071 6  23415773.383                    23415781.852
 111802763.004 7  87119135.43346  21275342.023                    21275347.949
 11  8 20  1 50  0.0000000  0  9G10G30G12G26G04G05G25G29G02
 118964196.879 7  92699471.40544  22638126.688                    22638134.340
 113697942.056 8  88595874.23046  21636003.531                    21636011.672
 110252371.050 8  85911023.763 7  20980329.469                    20980337.188
 129384142.222 6 100818867.77552  24620989.320                    24620998.809
 128504254.614 5 100133272.04942  24453533.320                    24453543.512
 106509428.921 7  82994443.386 8  20268057.203                    20268064.762
 114206287.986 8  88992093.702 7  21732758.195                    21732768.688
 122967461.325 7  95818842.621 6  23399932.266                    23399941.133
 111836283.196 7  87145255.05746  21281721.070                    21281726.418
 11  8 20  1 50 30.0000000  0  9G10G30G12G26G04G05G25G29G02
 119056736.307 7  92771580.07044  22655735.648                    22655744.184
 113684703.473 8  88585558.44646  21633484.648                    21633492.082
 110289424.193 8  85939896.344 7  20987380.297                    20987388.078
 129290659.617 5 100746024.39342  24603200.453                    24603210.125
 128583120.895 6 100194726.22742  24468540.883                    24468551.500
 106507380.131 8  82992846.965 8  20267667.250                    20267674.844
 114177176.797 8  88969409.652 7  21727218.813                    21727228.590
 122884209.456 7  95753971.084 6  23384089.711                    23384098.316
 111869909.569 8  87171457.42646  21288120.172                    21288125.363
 11  8 20  1 51  0.0000000  0  9G10G30G12G26G04G05G25G29G02
 119149579.350 7  92843925.30644  22673403.414                    22673411.668
 113672072.427 8  88575716.08446  21631080.398                    21631088.480
 110327012.340 8  85969185.808 7  20994533.375                    20994541.059
 129197076.798 6 100673102.84142  24585391.367                    24585402.281
 128661925.673 6 100256132.53942  24483538.375                    24483547.301
 106505903.746 8  82991696.567 8  20267386.266                    20267393.477
 114148630.615 8  88947165.890 7  21721786.391                    21721796.723
 122800953.205 7  95689096.110 6  23368246.734                    23368255.578
 111903641.458 7  87197742.01546  21294538.961                    21294544.668
 11  8 20  1 51 30.0000000  0  9G10G30G12G26G04G05G25G29G02
 119242723.395 7  92916505.07544  22691127.844                    22691136.344
 113660049.126 8  88566347.28646  21628792.500                    21628800.676
 110365134.561 8  85998891.439 7  21001787.898                    21001795.211
 129103396.784 6 100600105.61242  24567564.477                    24567575.820
 128740668.78916 100317490.84752  24498521.047                    24498531.289
 106504999.472 8  82990991.969 8  20267214.156                    20267221.766
 114120650.503 8  88925363.203 7  21716462.109                    21716472.086
 122717694.525 6  95624219.251 6  23352402.875                    23352410.988
 111937478.568 8  87224108.60546  21300978.031                    21300983.227
 11  8 20  1 52  0.0000000  0  9G10G30G12G26G04G05G25G29G02
 119336165.336 7  92989316.99144  22708909.758                    22708917.699
 113648633.503 8  88557451.98646  21626620.086                    21626628.488
 110403789.089 8  86029011.842 7  21009143.461                    21009151.137
 129009622.194 6 100527034.68242  24549719.617                    24549731.020
 128819349.938 6 100378800.85942  24513494.609                    24513504.207
 106504666.470 8  82990732.531 8  20267150.555                    20267157.801
 114093237.147 8  88904002.147 7  21711245.242                    21711255.547
 122634434.367 7  95559341.252 6  23336559.125                    23336566.875
 111971419.961 8  87250556.44146  21307436.797                    21307442.250
 11  8 20  1 52 30.0000000  0  9G10G30G12G26G04G05G25G29G02
 119429902.359 7  93062358.82944  22726747.133                    22726755.551
 113637825.622 8  88549030.25846  21624563.313                    21624571.770
 110442974.327 8  86059545.802 7  21016600.219                    21016607.047
 128915756.246 6 100453892.54742  24531857.047                    24531868.766
 128897969.064 6 100440062.53342  24528454.406                    24528464.945
 106504904.353 8  82990917.928 8  20267196.156                    20267203.582
 114066391.511 8  88883083.473 7  21706136.469                    21706147.238
 122551174.234 7  95494463.269 6  23320715.086                    23320724.242
 112005465.328 8  87277085.30346  21313915.531                    21313921.332
 11  8 20  1 53  0.0000000  0  9G10G30G12G26G04G05G25G29G02
 119523931.688 7  93135628.44444  22744640.063                    22744648.641
 113627625.606 8  88541082.18946  21622622.438                    21622631.113
 110482688.915 8  86090492.228 7  21024157.617                    21024164.992
 128821802.042 6 100380681.58642  24513978.102                    24513989.984
 128976525.692 5 100501275.49442  24543404.703                    24543414.098
 106505712.408 8  82991547.620 8  20267350.117                    20267357.234
 114040114.399 8  88862607.805 7  21701136.266                    21701146.473
 122467915.492 6  95429586.380 6  23304870.969                    23304880.180
 112039614.165 8  87303694.78146  21320413.781                    21320419.465
 11  8 20  1 53 30.0000000  0  9G10G30G12G26G04G05G25G29G02
 119618250.277 7  93209123.45744  22762588.477                    22762596.832
 113618033.299 8  88533607.67146  21620797.281                    21620805.313
 110522931.343 8  86121849.962 7  21031815.664                    21031822.941
 128727762.785 6 100307404.37942  24496083.688                    24496094.668
 129055019.965 6 100562439.84842  24558341.039                    24558350.754
 106507090.345 8  82992621.368 8  20267612.125                    20267619.574
 114014406.614 8  88842575.771 7  21696244.469                    21696254.832
 122384659.585 6  95364711.717 6  23289028.109                    23289036.996
 112073865.947 8  87330384.49546  21326931.563                    21326937.234
 11  8 20  1 54  0.0000000  0  9G10G30G12G26G04G05G25G29G02
 119712855.127 7  93282841.51344  22780591.180                    22780599.895
 113609048.527 8  88526606.54046  21619086.656                    21619095.352
 110563699.437 8  86153617.302 7  21039573.672                    21039580.930
 128633640.984 6 100234062.82243  24478172.828                    24478183.645
 129133451.441 6 100623555.31742  24573265.914                    24573275.680
 106509037.126 8  82994138.365 8  20267982.703                    20267990.000
 113989268.667 8  88822987.774 7  21691461.008                    21691471.441
 122301407.704 6  95299840.146 6  23273186.250                    23273195.094
 112108219.996 8  87357153.89346  21333469.016                    21333474.379
 11  8 20  1 54 30.0000000  0  9G10G30G12G26G04G05G25G29G02
 119807743.379 7  93356780.41044  22798647.703                    22798656.227
 113600671.288 8  88520078.81746  21617492.813                    21617501.590
 110604991.557 8  86185792.972 7  21047431.156                    21047438.637
 128539439.852 6 100160659.46043  24460246.859                    24460258.188
 129211819.959 6 100684621.65142  24588178.047                    24588188.906
 106511552.302 7  82996098.274 8  20268461.117                    20268468.738
 113964701.451 8  88803844.508 7  21686785.727                    21686795.941
 122218161.406 6  95234972.974 6  23257344.250                    23257353.262
 112142675.907 8  87384002.68246  21340025.703                    21340031.449
 11  8 20  1 55  0.0000000  0  9G10G30G12G26G04G05G25G29G02
 119902912.165 7  93430937.89844  22816757.695                    22816766.398
 113592901.355 8  88514024.33046  21616015.078                    21616023.441
 110646805.584 8  86218375.324 7  21055388.055                    21055395.207
 128445162.491 6 100087196.69843  24442306.766                    24442317.152
 129290125.107 6 100745638.70242  24603079.297                    24603090.484
 106514635.139 8  82998500.507 8  20269047.859                    20269055.246
 113940705.493 8  88785146.382 7  21682219.602                    21682229.602
 122134921.891 6  95170111.090 6  23241504.188                    23241513.777
 112177232.962 8  87410930.26846  21346601.836                    21346607.074
 11  8 20  1 55 30.0000000  0  9G10G30G12G26G04G05G25G29G02
 119998358.557 7  93505311.70844  22834920.422                    22834929.180
 113585738.657 8  88508443.00245  21614651.609                    21614660.352
 110689140.250 8  86251363.370 7  21063444.250                    21063451.457
 128350812.073 6 100013676.99543  24424352.313                    24424362.500
 129368366.884 6 100806606.29742  24617969.203                    24617979.414
 106518284.815 8  83001344.428 8  20269742.375                    20269749.824
 113917281.546 8  88766893.968 7  21677762.164                    21677772.672
 122051690.429 7  95105255.451 6  23225666.922                    23225675.375
 112211890.666 7  87437936.29546  21353196.922                    21353202.281
 11  8 20  1 56  0.0000000  0  9G10G30G12G26G04G05G25G29G02
 120094079.840 7  93579899.71444  22853135.977                    22853144.180
 113579183.154 8  88503334.82545  21613404.477                    21613412.363
 110731994.207 8  86284756.058 7  21071598.773                    21071606.336
 128256391.448 6  99940102.57843  24406383.906                    24406395.023
 129446545.329 6 100867524.50142  24632846.141                    24632855.941
 106522500.856 8  83004629.678 8  20270544.594                    20270552.395
 113894430.408 8  88749087.912 7  21673413.742                    21673424.082
 121968468.920 7  95040407.559 6  23209829.867                    23209838.809
 112246648.985 8  87465020.71246  21359810.820                    21359816.563
 11  8 20  1 56 30.0000000  0  9G10G30G12G26G04G05G25G29G02
 120190073.085 7  93654699.62544  22871403.047                    22871411.246
 113573234.366 8  88498699.42146  21612272.281                    21612281.012
 110775365.165 8  86318551.601 7  21079852.242                    21079859.293
 128161903.774 6  99866475.97743  24388403.852                    24388414.855
 129524659.915 5 100928393.01142  24647710.398                    24647721.254
 106527282.148 8  83008355.373 8  20271454.164                    20271462.012
 113872152.437 8  88731728.478 7  21669174.133                    21669184.352
 121885258.380 6  94975568.219 6  23193995.281                    23194004.121
 112281506.880 8  87492182.73046  21366444.141                    21366449.422
 11  8 20  1 57  0.0000000  0  9G10G30G12G26G04G05G25G29G02
 120286335.179 7  93729709.02844  22889720.711                    22889729.164
 113567892.200 8  88494536.70045  21611255.305                    21611263.770
 110819251.126 8  86352748.452 7  21088203.398                    21088211.148
 128067352.071 6  99792799.48643  24370411.547                    24370421.785
 129602710.473 6 100989211.58642  24662563.594                    24662573.301
 106532628.101 8  83012521.064 8  20272471.492                    20272479.121
 113850448.319 8  88714816.201 7  21665043.805                    21665054.367
 121802060.597 7  94910738.798 6  23178163.734                    23178172.465
 112316463.932 8  87519422.00146  21373096.523                    21373102.496
 11  8 20  1 57 30.0000000  0  8G10G30G12G26G05G25G29G02
 120382863.933 7  93804926.20844  22908089.547                    22908097.707
 113563156.661 8  88490846.68246  21610354.156                    21610362.758
 110863651.000 8  86387345.749 7  21096652.461                    21096660.160
 127972739.930 6  99719075.88542  24352407.547                    24352417.680
 106538538.251 8  83017126.387 8  20273596.617                    20273603.754
 113829318.962 8  88698351.796 7  21661023.320                    21661033.617
 121718877.374 7  94845920.711 6  23162333.664                    23162341.879
 112351520.101 8  87546738.52046  21379767.305                    21379773.047
 11  8 20  1 58  0.0000000  0  8G10G30G12G26G05G25G29G02
 120479656.239 7  93880348.75144  22926508.445                    22926517.063
 113559027.511 8  88487629.16546  21609568.469                    21609576.656
 110908563.213 8  86422342.272 7  21105198.969                    21105206.332
 127878070.321 6  99645307.49542  24334392.328                    24334402.445
 106545011.817 8  83022170.734 8  20274828.023                    20274835.535
 113808764.926 8  88682335.676 7  21657112.094                    21657122.363
 121635710.057 7  94781115.007 6  23146508.086                    23146515.797
 112386675.183 8  87574132.11546  21386457.359                    21386462.402
 11  8 20  1 58 30.0000000  0  8G10G30G12G26G05G25G29G02
 120576709.136 7  93955974.34344  22944977.195                    22944985.484
 113555504.327 7  88484883.84145  21608898.391                    21608906.660
 110953985.337 8  86457736.128 7  21113842.641                    21113849.926
 127783346.203 6  99571496.59842  24316366.070                    24316376.199
 106552048.184 8  83027653.634 8  20276167.141                    20276174.141
 113788786.642 8  88666768.218 7  21653310.453                    21653320.512
 121552560.004 7  94716322.752 6  23130684.758                    23130693.188
 112421928.459 8  87601602.22446  21393165.625                    21393171.070
 11  8 20  1 59  0.0000000  0  8G10G30G12G26G05G25G29G02
 120674019.462 7  94031800.55744  22963495.070                    22963503.254
 113552586.415 8  88482610.15145  21608343.078                    21608351.184
 110999915.227 8  86493525.647 7  21122582.430                    21122590.477
 127688570.566 6  99497645.62542  24298330.703                    24298341.719
 106559645.485 8  83033573.629 8  20277612.930                    20277620.176
 113769384.261 8  88651649.516 7  21649617.797                    21649628.184
 121469428.272 7  94651544.807 6  23114865.281                    23114873.945
 112457279.185 8  87629148.25546  21399892.461                    21399898.129
 11  8 20  1 59 30.0000000  0  8G10G30G12G26G05G25G29G02
 120771584.225 7  94107825.01844  22982060.836                    22982068.773
 113550273.371 7  88480807.78445  21607902.711                    21607910.574
 111046351.169 8  86529709.501 7  21131418.992                    21131426.727
 127593746.752 6  99423757.13642  24280285.805                    24280296.820
 106567803.055 8  83039930.188 8  20279165.188                    20279172.621
 113750558.131 8  88636979.838 7  21646035.180                    21646045.496
 121386316.404 7  94586782.355 6  23099049.789                    23099058.137
 112492726.648 8  87656769.66146  21406637.984                    21406643.402
 11  8 20  2  0  0.0000000  0  8G10G30G12G26G05G25G29G02
 120869400.827 7  94184045.70844  23000674.359                    23000683.379
 113548565.010 8  88479476.61945  21607576.984                    21607585.629
 111093291.100 8  86566286.064 7  21140351.438                    21140358.797
 127498877.650 6  99349833.28142  24262232.844                    24262244.082
 106576520.293 8  83046722.857 8  20280824.016                    20280831.563
 113732309.037 8  88622759.798 7  21642562.453                    21642572.941
 121303226.278 7  94522036.806 6  23083237.516                    23083246.547
 112528270.697 8  87684466.33046  21413401.695                    21413407.539
 11  8 20  2  0 30.0000000  0  8G10G30G12G26G05G25G29G02
 120967466.193 7  94260460.22844  23019335.859                    23019344.367
 113547460.564 8  88478616.01945  21607367.383                    21607375.266
 111140732.908 8  86603253.701 7  21149379.320                    21149386.816
 127403966.213 6  99275876.44542  24244172.078                    24244182.488
 106585795.874 8  83053950.609 8  20282588.953                    20282596.289
 113714637.010 8  88608989.410 7  21639199.797                    21639209.727
 121220159.190 7  94457309.210 6  23067430.664                    23067439.391
 112563910.719 8  87712237.77646  21420184.000                    21420189.262
 11  8 20  2  1  0.0000000  0  8G10G30G12G26G05G25G29G02
 121065777.562 7  94337066.45144  23038043.828                    23038052.617
 113546959.808 8  88478225.83945  21607271.938                    21607280.176
 111188674.955 8  86640611.139 7  21158502.477                    21158509.855
 127309015.925 6  99201889.35242  24226103.117                    24226113.664
 106595629.163 8  83061612.934 8  20284460.344                    20284467.457
 113697542.704 8  88595669.187 7  21635946.953                    21635957.492
 121137116.574 7  94392600.749 6  23051628.586                    23051636.922
 112599646.478 8  87740083.83246  21426984.125                    21426989.762
 11  8 20  2  1 30.0000000  0  8G10G30G12G26G05G25G29G02
 121164331.879 7  94413861.98544  23056798.242                    23056806.848
 113547062.054 8  88478305.53045  21607291.953                    21607299.488
 111237115.210 8  86678356.793 7  21167720.328                    21167727.824
 127214029.980 6  99127874.48042  24208026.820                    24208038.582
 106606018.952 8  83069708.900 8  20286437.367                    20286444.602
 113681026.294 8  88582799.287 7  21632803.953                    21632814.457
 121054100.258 7  94327912.779 6  23035831.031                    23035839.766
 112635477.480 8  87768004.09346  21433802.617                    21433808.445
 11  8 20  2  2  0.0000000  0  8G10G30G12G26G05G25G29G02
 121263126.752 7  94490844.95644  23075598.328                    23075607.223
 113547767.038 8  88478854.87945  21607425.508                    21607433.629
 111286051.796 8  86716489.197 7  21177032.438                    21177039.871
 127119011.505 6  99053834.22743  24189946.828                    24189957.465
 106616964.343 8  83078237.811 8  20288520.188                    20288527.746
 113665088.294 8  88570380.088 7  21629770.906                    21629781.117
 120971111.484 7  94263246.257 6  23020038.758                    23020047.238
 112671403.551 8  87795998.43446  21440639.133                    21440644.734
 11  8 20  2  2 30.0000000  0  8G10G30G12G26G05G25G29G02
 121362158.930 7  94568012.84444  23094443.563                    23094452.020
 113549073.897 8  88479873.23145  21607674.273                    21607682.266
 111335482.363 8  86755006.523 7  21186439.047                    21186446.316
 127023963.471 6  98979770.96943  24171859.148                    24171869.816
 106628464.176 8  83087198.746 8  20290708.578                    20290715.914
 113649728.801 8  88558411.673 7  21626848.102                    21626858.984
 120888151.999 7  94198602.571 6  23004251.688                    23004260.156
 112707423.856 8  87824066.20946  21447493.219                    21447499.305
 11  8 20  2  3  0.0000000  0  8G10G30G12G26G05G25G29G02
 121461425.417 7  94645363.33544  23113333.719                    23113341.906
 113550982.350 7  88481360.36045  21608037.469                    21608045.375
 111385405.126 8  86793907.375 7  21195938.742                    21195946.625
 126928889.557 6  98905687.49943  24153767.813                    24153777.574
 106640517.732 8  83096591.160 8  20293002.078                    20293009.402
 113634948.275 8  88546894.386 7  21624035.555                    21624045.410
 120805223.274 7  94133982.855 6  22988470.773                    22988479.727
 112743538.251 8  87852207.29446  21454365.750                    21454371.430
 11  8 20  2  3 30.0000000  0  8G10G30G12G26G05G25G29G02
 121560923.683 6  94722894.43644  23132267.023                    23132275.609
 113553491.596 8  88483315.62845  21608514.672                    21608523.395
 111435817.879 8  86833190.052 7  21205531.930                    21205539.543
 126833792.560 6  98831586.07643  24135671.406                    24135680.719
 106653123.714 8  83106414.037 8  20295400.953                    20295408.539
 113620746.907 8  88535828.400 7  21621333.281                    21621343.215
 120722327.022 7  94069388.510 7  22972696.000                    22972705.414
 112779746.474 8  87880421.50346  21461256.156                    21461261.797
 11  8 20  2  4  0.0000000  0  8G10G30G12G26G05G25G29G02
 121660650.880 7  94800603.90944  23151244.453                    23151253.301
 113556601.134 7  88485738.65945  21609106.445                    21609114.539
 111486718.456 8  86872852.835 7  21215218.336                    21215225.738
 126738675.760 6  98757469.21243  24117571.289                    24117580.820
 106666281.022 8  83116666.512 8  20297904.953                    20297912.070
 113607124.895 8  88525213.857 7  21618740.914                    21618751.469
 120639464.767 7  94004820.618 6  22956928.172                    22956936.902
 112816047.933 8  87908708.36346  21468163.938                    21468169.723
 11  8 20  2  4 30.0000000  0  8G10G30G12G26G05G25G29G02
 121760603.883 7  94878489.33244  23170264.766                    23170273.316
 113560310.029 7  88488628.72545  21609812.102                    21609820.672
 111538104.886 8  86912894.215 7  21224996.352                    21225004.824
 126643542.413 6  98683339.44843  24099467.438                    24099477.758
 106679988.063 8  83127347.363 8  20300512.836                    20300520.195
 113594082.353 8  88515050.856 7  21616259.031                    21616269.207
 120556637.832 7  93940280.230 6  22941166.055                    22941174.656
 112852442.123 8  87937067.48246  21475089.750                    21475095.039
 11  8 20  2  5  0.0000000  0  8G10G30G12G26G05G25G29G02
 121860780.077 7  94956548.68644  23189327.703                    23189336.184
 113564618.002 7  88491985.60045  21610632.305                    21610640.531
 111589975.359 8  86953312.765 7  21234867.445                    21234874.984
 126548395.966 6  98609199.41043  24081361.484                    24081372.000
 106694244.386 8  83138456.212 8  20303225.914                    20303233.000
 113581619.742 8  88505339.745 7  21613887.633                    21613897.758
 120473848.111 7  93875768.825 7  22925412.414                    22925421.375
 112888929.155 8  87965498.95446  21482032.617                    21482038.734
 11  8 20  2  5 30.0000000  0  8G10G30G12G26G05G25G29G02
 121961176.537 7  95034779.66844  23208432.609                    23208441.527
 113569524.177 7  88495808.61145  21611565.734                    21611573.691
 111642327.401 8  86994106.560 7  21244829.375                    21244837.391
 126453239.598 6  98535051.72443  24063254.273                    24063263.168
 106709048.767 8  83149992.125 8  20306043.109                    20306050.504
 113569737.064 8  88496080.549 7  21611626.430                    21611636.770
 120391097.380 7  93811287.844 6  22909665.078                    22909673.824
 112925508.383 8  87994002.27046  21488993.609                    21488999.430
 11  8 20  2  6  0.0000000  0  8G10G30G12G26G05G25G29G02
 122061790.420 7  95113180.04944  23227579.469                    23227587.664
 113575027.701 7  88500097.09545  21612613.266                    21612621.461
 111695159.088 8  87035274.107 7  21254882.727                    21254890.566
 126358076.625 6  98460898.89143  24045145.313                    24045154.383
 106724399.705 8  83161953.920 8  20308964.375                    20308971.594
 113558434.433 8  88487273.318 7  21609475.484                    21609485.598
 120308386.842 7  93746838.182 6  22893925.547                    22893934.563
 112962179.506 8  88022577.18646  21495971.859                    21495977.195
 11  8 20  2  6 30.0000000  0  8G10G30G12G26G05G25G29G02
 122162618.813 7  95191747.60444  23246766.336                    23246774.594
 113581127.715 8  88504850.37745  21613773.898                    21613782.188
 111748467.681 8  87076813.265 7  21265027.477                    21265034.852
 126262910.005 6  98386743.13943  24027035.141                    24027045.148
 106740295.910 8  83174340.607 8  20311989.156                    20311996.480
 113547711.755 8  88478918.009 7  21607434.742                    21607445.176
 120225718.313 7  93682421.249 6  22878194.234                    22878202.945
 112998942.147 8  88051223.41846  21502967.578                    21502973.281
 11  8 20  2  7  0.0000000  0  8G10G30G12G26G05G25G29G02
 122263658.820 7  95270480.05044  23265993.438                    23266002.055
 113587823.474 8  88510067.87445  21615047.852                    21615055.793
 111802251.240 8  87118722.538 7  21275262.367                    21275269.324
 126167743.306 7  98312587.37443  24008926.117                    24008935.148
 106756736.229 8  83187151.275 8  20315117.648                    20315124.832
 113537569.200 8  88471014.735 7  21605504.938                    21605515.508
 120143093.455 7  93618038.321 6  22862470.906                    22862479.645
 113035795.634 8  88079940.43846  21509980.531                    21509985.984
 11  8 20  2  7 30.0000000  0  8G10G30G12G26G05G25G29G02
 122364907.980 7  95349375.47744  23285260.313                    23285268.984
 113595114.393 8  88515749.13445  21616435.773                    21616443.648
 111856507.887 8  87161000.436 7  21285586.531                    21285594.328
 126072579.727 6  98238434.03343  23990816.680                    23990826.469
 106773719.822 8  83200385.265 8  20318349.469                    20318356.645
 113528007.056 8  88463563.742 7  21603684.992                    21603695.539
 120060514.213 7  93553690.927 6  22846756.766                    22846765.289
 113072740.233 8  88108728.45046  21517010.531                    21517016.348
 11  8 20  2  8  0.0000000  0  8G10G30G12G26G05G25G29G02
 122466363.158 7  95428431.42644  23304566.883                    23304575.395
 113602999.172 8  88521893.14245  21617935.852                    21617943.375
 111911235.029 8  87203644.949 7  21296000.969                    21296008.453
 125977422.622 6  98164285.68543  23972708.828                    23972718.902
 106791244.844 8  83214041.150 8  20321684.414                    20321691.688
 113519024.886 8  88456564.664 7  21601975.852                    21601986.418
 119977981.770 7  93489380.010 7  22831051.047                    22831060.215
 113109775.234 8  88137586.90846  21524058.453                    21524063.676
 11  8 20  2  8 30.0000000  0  8G10G30G12G26G05G25G29G02
 122568022.021 7  95507646.09944  23323912.313                    23323920.488
 113611477.528 8  88528499.67445  21619548.797                    21619557.070
 111966430.978 8  87246654.792 7  21306504.305                    21306511.926
 125882275.411 6  98090145.06043  23954603.133                    23954613.277
 106809310.663 8  83228118.441 8  20325122.352                    20325129.063
 113510623.292 8  88450017.993 7  21600377.148                    21600387.543
 119895498.253 7  93425107.234 6  22815354.859                    22815363.953
 113146900.770 8  88166515.92246  21531122.930                    21531128.766
 11  8 20  2  9  0.0000000  0  8G10G30G12G26G05G25G29G02
 122669881.295 7  95587016.93244  23343295.586                    23343303.832
 113620548.074 7  88535567.65345  21621275.164                    21621283.871
 112022092.979 8  87290027.763 7  21317096.758                    21317104.344
 125787141.156 6  98016014.52343  23936499.188                    23936509.348
 106827915.437 8  83242615.686 8  20328662.750                    20328669.914
 113502801.758 8  88443923.299 7  21598888.859                    21598898.996
 119813065.006 7  93360873.567 6  22799668.641                    22799676.145
 113184116.314 8  88195515.04946  21538204.922                    21538210.297
 11  8 20  2  9 30.0000000  0  8G10G30G12G26G05G25G29G02
 122771938.445 7  95666541.96544  23362716.164                    23362724.715
 113630210.161 7  88543096.56445  21623113.891                    21623122.223
 112078218.774 8  87333762.150 7  21327776.820                    21327784.813
 125692023.460 6  97941896.90443  23918398.648                    23918408.652
 106847058.220 8  83257532.169 8  20332305.133                    20332312.410
 113495560.500 8  88438280.774 7  21597510.875                    21597521.262
 119730683.930 7  93296680.550 6  22783992.320                    22784000.973
 113221421.492 8  88224584.03546  21545303.914                    21545308.867
 11  8 20  2 10  0.0000000  0  8G10G30G12G26G05G25G29G02
 122874190.554 7  95746218.90344  23382173.695                    23382182.504
 113640462.730 7  88551085.59645  21625064.945                    21625073.043
 112134806.603 8  87377856.559 7  21338545.367                    21338552.977
 125596925.598 6  97867794.78943  23900301.891                    23900311.762
 106866737.617 8  83272866.782 8  20336049.977                    20336057.324
 113488899.420 8  88433090.341 7  21596243.141                    21596253.367
 119648356.786 7  93232529.590 6  22768326.031                    22768333.945
 113258815.951 8  88253722.57746  21552419.508                    21552425.328
 11  8 20  2 10 30.0000000  0  8G10G30G12G26G05G25G29G02
 122976634.756 7  95826045.52543  23401668.813                    23401676.785
 113651304.833 8  88559533.99445  21627128.172                    21627136.004
 112191853.554 8  87422308.727 7  21349401.258                    21349408.445
 125501850.995 6  97793710.74143  23882210.031                    23882220.352
 106886951.948 8  83288618.223 8  20339896.516                    20339903.754
 113482818.284 8  88428351.797 7  21595086.164                    21595096.211
 119566085.053 7  93168421.804 6  22752669.539                    22752677.754
 113296299.651 8  88282930.67346  21559552.602                    21559557.777
 11  8 20  2 11  0.0000000  0  8G10G30G12G26G05G25G29G02
 123079268.234 6  95906019.65043  23421199.625                    23421207.902
 113662735.484 8  88568441.00245  21629303.320                    21629311.000
 112249357.830 8  87467117.257 7  21360343.367                    21360351.445
 125406802.999 6  97719647.39143  23864122.891                    23864132.758
 106907700.083 8  83304785.615 8  20343844.789                    20343851.738
 113477317.116 8  88424065.184 7  21594039.344                    21594049.633
 119483870.797 7  93104358.795 6  22737024.867                    22737032.922
 113333872.383 8  88312208.14346  21566702.711                    21566707.938
 11  8 20  2 11 30.0000000  0  8G10G30G12G26G05G25G29G02
 123182088.218 7  95986139.11643  23440765.539                    23440773.227
 113674753.329 8  88577805.56846  21631590.414                    21631597.980
 112307316.575 8  87512279.914 7  21371372.570                    21371380.531
 125311784.903 6  97645607.41943  23846040.914                    23846051.504
 106928980.456 8  83321367.745 8  20347894.188                    20347901.902
 113472395.452 8  88420230.122 7  21593102.867                    21593112.516
 119401715.397 7  93040341.643 6  22721391.664                    22721398.957
 113371533.498 8  88341554.48246  21573869.375                    21573874.746
 11  8 20  2 12  0.0000000  0  8G10G30G12G26G05G25G29G02
 123285092.154 7  96066401.93244  23460366.008                    23460374.508
 113687357.574 8  88587627.05545  21633989.117                    21633996.543
 112365727.616 8  87557795.000 7  21382488.023                    21382495.559
 125216800.196 6  97571593.43343  23827966.336                    23827976.543
 106950791.989 8  83338363.763 8  20352044.914                    20352052.359
 113468053.348 8  88416846.664 7  21592276.578                    21592286.457
 119319620.750 7  92976371.813 6  22705769.055                    22705777.309
 113409283.116 8  88370969.77846  21581052.758                    21581058.613
 11  8 20  2 12 30.0000000  0  8G10G30G12G26G05G25G29G02
 123388276.844 7  96146805.59143  23480001.172                    23480010.059
 113700546.975 8  88597904.51645  21636498.539                    21636506.531
 112424588.666 7  87603660.743 7  21393688.930                    21393696.680
 125121851.986 6  97497607.92344  23809898.602                    23809908.402
 106973132.605 8  83355772.055 8  20356296.516                    20356303.523
 113464290.387 8  88413914.505 7  21591560.305                    21591570.332
 119237588.564 7  92912450.675 6  22690158.688                    22690167.281
 113447120.753 8  88400453.66546  21588252.898                    21588258.473
 11  8 20  2 13  0.0000000  0  8G10G30G12G26G05G25G29G02
 123491639.538 6  96227347.94743  23499670.445                    23499678.977
 113714320.196 8  88608636.89445  21639119.211                    21639127.465
 112483896.989 8  87649875.017 7  21404974.820                    21404982.637
 125026943.602 6  97423653.41943  23791837.578                    23791847.688
 106996000.869 8  83373591.492 8  20360647.633                    20360655.266
 113461106.172 8  88411433.308 7  21590954.359                    21590964.191
 119155620.525 7  92848579.526 6  22674560.984                    22674569.344
 113485045.955 8  88430005.78846  21595469.523                    21595475.066
 11  8 20  2 13 30.0000000  0  8G10G30G12G26G05G25G29G02
 123595177.662 7  96308027.01543  23519373.609                    23519381.895
 113728676.123 8  88619823.31945  21641851.352                    21641859.504
 112543650.169 7  87696435.930 7  21416345.617                    21416353.164
 124932078.325 6  97349732.51944  23773786.164                    23773795.316
 107019395.345 8  83391820.981 8  20365099.703                    20365107.008
 113458500.427 8  88409402.850 7  21590458.398                    21590468.395
 119073718.326 7  92784759.689 7  22658975.414                    22658983.633
 113523058.006 8  88459625.58446  21602703.203                    21602708.934
 11  8 20  2 14  0.0000000  0  8G10G30G12G26G05G25G29G02
 123698888.774 6  96388840.87943  23539108.633                    23539117.469
 113743613.939 8  88631463.18045  21644694.055                    21644702.711
 112603846.073 8  87743341.828 7  21427800.625                    21427808.410
 124837260.011 6  97275848.24344  23755742.664                    23755752.367
 107043314.911 8  83410459.617 8  20369651.234                    20369658.676
 113456473.224 8  88407823.221 7  21590072.695                    21590082.957
 118991883.924 8  92720992.652 6  22643403.172                    22643410.207
 113561157.892 8  88489313.82446  21609953.219                    21609959.023
 11  8 20  2 14 30.0000000  0  8G10G30G12G26G05G25G29G02
 123802769.879 7  96469787.21043  23558876.273                    23558885.285
 113759132.439 8  88643555.50345  21647646.758                    21647655.219
 112664482.592 8  87790591.059 7  21439339.219                    21439346.629
 124742492.179 6  97202003.31444  23737708.063                    23737718.641
 107067758.305 8  83429506.431 8  20374302.875                    20374310.250
 113455024.214 8  88406694.116 7  21589796.883                    21589807.383
 118910119.189 7  92657279.938 6  22627843.453                    22627851.871
 113599344.941 8  88519069.97146  21617220.211                    21617226.156
 11  8 20  2 15  0.0000000  0  9G10G30G12G26G15G05G25G29G02
 123906818.233 7  96550863.85843  23578676.094                    23578685.168
 113775230.301 8  88656099.28645  21650710.344                    21650718.406
 112725556.875 8  87838181.393 7  21450961.172                    21450968.828
 124647778.049 6  97128200.20444  23719684.828                    23719694.883
 129411633.60015 100840291.63914  24626219.945
 107092723.544 8  83448959.874 8  20379053.563                    20379060.977
 113454152.967 8  88406015.221 7  21589631.258                    21589641.602
 118828426.143 8  92593623.070 7  22612298.102                    22612306.063
 113637619.153 8  88548894.04345  21624503.414                    21624508.848
 11  8 20  2 15 30.0000000  0  9G10G30G12G26G15G05G25G29G02
 124011030.922 6  96632068.56443  23598507.438                    23598516.125
 113791906.141 8  88669093.42945  21653884.102                    21653891.785
 112787066.536 7  87886111.004 7  21462665.703                    21462673.234
 124553121.098 6  97054441.62843  23701672.125                    23701682.203
 129318588.934 5 100767789.428 4  24608514.305
 107118208.903 8  83468818.621 8  20383903.516                    20383910.453
 113453859.056 8  88405786.206 7  21589575.086                    21589585.063
 118746806.108 7  92530023.115 7  22596766.586                    22596774.297
 113675980.128 8  88578785.72046  21631803.234                    21631808.445
 11  8 20  2 16  0.0000000  0  9G10G30G12G26G15G05G25G29G02
 124115405.471 6  96713399.36243  23618369.641                    23618377.742
 113809158.562 8  88682536.87146  21657167.063                    21657174.875
 112849008.910 8  87934377.785 7  21474453.555                    21474460.578
 124458524.486 6  96980730.08144  23683670.289                    23683680.074
 129225413.380 6 100695185.307 4  24590783.273
 107144212.687 8  83489081.340 8  20388851.563                    20388858.672
 113454141.906 8  88406006.629 7  21589629.242                    21589639.512
 118665261.053 7  92466481.586 7  22581247.922                    22581257.289
 113714427.338 8  88608744.60146  21639119.828                    21639124.734
 11  8 20  2 16 30.0000000  0  9G10G30G12G26G15G05G25G29G02
 124219939.016 7  96794854.07743  23638261.391                    23638270.301
 113826986.261 8  88696428.57645  21660559.063                    21660567.125
 112911381.514 7  87982979.812 7  21486322.508                    21486330.215
 124363991.715 7  96907068.31343  23665681.797                    23665691.262
 129132109.922 6 100622481.535 4  24573028.523
 107170733.455 8  83509746.887 8  20393898.258                    20393905.832
 113455001.121 8  88406676.169 7  21589792.367                    21589802.527
 118583792.922 7  92402999.997 7  22565744.922                    22565753.602
 113752960.764 8  88638770.66046  21646452.406                    21646457.258
 11  8 20  2 17  0.0000000  0  9G10G30G12G26G15G05G25G29G02
 124324629.197 7  96876430.85443  23658183.133                    23658191.832
 113845388.459 8  88710767.95145  21664060.703                    21664068.836
 112974182.375 8  88031915.556 7  21498273.117                    21498280.633
 124269526.755 6  96833459.34843  23647706.117                    23647714.891
 129038681.029 5 100549680.038 4  24555249.813
 107197770.204 8  83530814.514 8  20399043.234                    20399050.500
 113456436.713 8  88407794.824 7  21590065.758                    21590075.777
 118502403.622 7  92339579.831 7  22550257.422                    22550266.613
 113791580.667 8  88668864.11946  21653801.648                    21653806.410
 11  8 20  2 17 30.0000000  0  9G10G30G12G26G15G05G25G29G02
 124429472.978 7  96958127.30243  23678134.000                    23678142.762
 113864363.393 8  88725553.61745  21667672.031                    21667679.863
 113037408.548 8  88081182.705 7  21510304.563                    21510311.906
 124175132.676 6  96759905.63443  23629742.523                    23629752.363
 128945129.083 6 100476782.636 4  24537446.109
 107225320.785 8  83552282.522 8  20404285.938                    20404293.250
 113458447.790 8  88409361.923 7  21590448.375                    21590458.336
 118421094.895 7  92276222.464 7  22534784.633                    22534793.145
 113830286.242 8  88699024.32546  21661166.680                    21661172.176
 11  8 20  2 18  0.0000000  0  9G10G30G12G26G15G05G25G29G02
 124534467.847 7  97039941.45043  23698113.953                    23698122.973
 113883909.913 8  88740784.67245  21671391.367                    21671399.727
 113101057.789 8  88130779.522 7  21522417.063                    21522424.367
 124080813.169 6  96686410.00543  23611794.125                    23611803.430
 128851456.734 5 100403791.363 4  24519620.578
 107253383.768 8  83574149.801 8  20409626.211                    20409633.406
 113461034.137 8  88411377.291 7  21590940.484                    21590950.715
 118339868.679 7  92212929.366 7  22519327.656                    22519336.473
 113869077.953 8  88729251.64045  21668548.547                    21668553.730
 11  8 20  2 18 30.0000000  0  9G10G30G12G26G15G05G25G29G02
 124639610.751 7  97121870.96743  23718122.117                    23718131.172
 113904026.237 8  88756459.73445  21675219.273                    21675227.223
 113165127.097 8  88180703.658 7  21534608.836                    21534616.285
 123986571.569 6  96612975.03743  23593860.516                    23593869.359
 128757666.135 5 100330708.007 4  24501773.023
 107281957.124 8  83596414.780 8  20415063.461                    20415070.570
 113464194.880 8  88413840.223 7  21591541.945                    21591551.758
 118258726.712 7  92149701.931 7  22503887.195                    22503895.516
 113907954.896 8  88759545.38645  21675946.305                    21675951.730
 11  8 20  2 19  0.0000000  0  9G10G30G12G26G15G05G25G29G02
 124744899.287 7  97203913.97943  23738157.828                    23738166.473
 113924711.051 8  88772577.78845  21679155.500                    21679163.539
 113229614.194 8  88230953.333 7  21546880.055                    21546887.691
 123892411.085 6  96539603.30643  23575942.266                    23575951.277
 128663760.147 5 100257534.733 5  24483902.813
 107311039.315 8  83619076.250 8  20420597.508                    20420604.840
 113467929.538 8  88416750.364 7  21592252.438                    21592263.023
 118177670.842 7  92086541.591 6  22488462.984                    22488470.824
 113946917.363 8  88789905.76745  21683360.664                    21683366.094
 11  8 20  2 19 30.0000000  0  9G10G30G12G26G15G05G25G29G02
 124850330.705 7  97286068.33443  23758221.031                    23758229.176
 113945963.112 8  88789137.85745  21683199.469                    21683208.051
 113294516.789 8  88281526.769 7  21559230.805                    21559238.371
 123798335.621 6  96466297.84643  23558039.992                    23558049.559
 128569741.329 6 100184273.558 5  24466010.891
 107340628.983 8  83642133.162 8  20426228.344                    20426235.469
 113472237.727 8  88420107.417 7  21593072.289                    21593082.691
 118096703.301 7  92023450.061 7  22473055.242                    22473063.270
 113985965.463 8  88820332.87145  21690791.211                    21690796.758
 11  8 20  2 20  0.0000000  0  9G10G30G12G26G15G05G25G29G02
 124955902.117 7  97368331.76843  23778310.477                    23778318.891
 113967780.870 8  88806138.72145  21687351.422                    21687359.531
 113359831.833 8  88332421.610 7  21571660.102                    21571667.594
 123704348.694 7  96393061.35943  23540154.875                    23540164.641
 128475612.173 6 100110926.396 5  24448099.141                    24448109.344
 107370724.203 8  83665584.008 8  20431955.375                    20431962.488
 113477118.750 8  88423910.824 7  21594001.430                    21594011.270
 118015825.790 7  91960428.684 6  22457664.289                    22457672.781
 114025098.945 8  88850826.51446  21698238.055                    21698243.156
 11  8 20  2 20 30.0000000  0  9G10G30G12G26G15G05G25G29G02
 125061611.037 7  97450702.35943  23798426.430                    23798435.164
 113990162.644 8  88823579.08545  21691610.586                    21691618.906
 113425556.867 8  88383635.912 7  21584167.391                    21584174.215
 123610453.625 6  96319896.47543  23522287.344                    23522296.805
 128381374.962 6 100037494.986 5  24430166.672                    24430176.289
 107401323.100 8  83689427.323 8  20437778.328                    20437784.742
 113482571.831 8  88428160.008 7  21595039.055                    21595049.113
 117935040.117 7  91897478.859 7  22442291.383                    22442299.629
 114064317.467 7  88881386.41745  21705701.414                    21705706.484
 11  8 20  2 21  0.0000000  0  9G10G30G12G26G15G05G25G29G02
 125167454.793 7  97533178.00743  23818567.492                    23818576.273
 114013106.607 8  88841457.52745  21695976.352                    21695984.863
 113491688.855 8  88435167.331 7  21596751.273                    21596758.816
 123516653.578 6  96246805.62943  23504438.039                    23504446.543
 128287032.090 6  99963981.218 5  24412213.469                    24412223.711
 107432423.398 8  83713661.346 8  20443696.031                    20443702.891
 113488596.010 8  88432854.197 7  21596185.586                    21596195.254
 117854347.830 7  91834601.828 7  22426936.453                    22426944.785
 114103620.381 7  88912012.09645  21713180.492                    21713185.664
 11  8 20  2 21 30.0000000  0  9G10G30G12G26G15G05G25G29G02
 125273430.995 7  97615756.84043  23838734.383                    23838742.668
 114036611.648 8  88859773.15945  21700449.414                    21700457.664
 113558225.719 7  88487014.228 7  21609412.969                    21609420.238
 123422952.519 6  96173791.92743  23486607.711                    23486615.918
 128192586.314 6  99890387.301 5  24394240.789                    24394251.066
 107464023.924 8  83738285.143 8  20449709.484                    20449716.348
 113495190.997 8  88437993.166 7  21597440.359                    21597450.719
 117773751.253 7  91771799.332 7  22411599.414                    22411607.094
 114143008.384 7  88942704.05845  21720675.500                    21720680.988
 11  8 20  2 22  0.0000000  0  9G10G30G12G26G15G05G25G29G02
 125379536.885 6  97698436.76443  23858925.734                    23858934.086
 114060676.062 8  88878524.67045  21705028.977                    21705036.945
 113625164.670 7  88539174.450 7  21622151.195                    21622158.430
 123329354.070 6  96100858.16743  23468795.828                    23468805.359
 128098040.358 6  99816715.260 5  24376248.945                    24376259.211
 107496122.984 8  83763297.427 8  20455817.602                    20455824.941
 113502356.010 8  88443576.322 7  21598803.633                    21598813.688
 117693252.225 7  91709072.884 7  22396280.211                    22396288.602
 114182481.159 7  88973462.06245  21728187.008                    21728192.266
 11  8 20  2 22 30.0000000  0  9G10G30G12G26G15G05G25G29G02
 125485769.582 7  97781215.45543  23879141.477                    23879149.996
 114085298.108 8  88897710.70746  21709714.109                    21709722.266
 113692503.033 8  88591645.878 7  21634965.094                    21634972.664
 123235861.550 6  96028006.93343  23451004.602                    23451014.078
 128003396.723 6  99742967.100 5  24358238.195                    24358249.203
 107528718.616 8  83788696.633 8  20462020.516                    20462027.492
 113510090.183 8  88449602.960 7  21600275.477                    21600285.184
 117612852.898 7  91646424.118 7  22380980.570                    22380989.352
 114222038.383 7  89004285.88645  21735714.805                    21735720.090
 11  8 20  2 23  0.0000000  0  9G10G30G12G26G15G05G25G29G02
 125592126.465 7  97864090.95043  23899380.109                    23899388.293
 114110476.362 8  88917330.14345  21714505.367                    21714513.434
 113760238.230 7  88644426.557 7  21647854.563                    21647862.211
 123142478.500 6  95955241.00143  23433234.320                    23433243.738
 127908658.204 6  99669145.017 5  24340210.086                    24340220.336
 107561809.010 8  83814481.375 8  20468317.273                    20468324.641
 113518392.838 8  88456072.575 7  21601855.344                    21601865.379
 117532555.230 7  91583854.549 7  22365701.180                    22365709.063
 114261680.143 7  89035175.58445  21743257.680                    21743263.223
 11  8 20  2 23 30.0000000  0  9G10G30G12G26G15G05G25G29G02
 125698605.019 7  97947061.22943  23919642.172                    23919650.383
 114136208.888 8  88937381.49145  21719402.055                    21719410.816
 113828367.174 8  88697514.021 7  21660819.328                    21660826.523
 123049208.506 6  95882563.14543  23415486.008                    23415494.137
 127813826.845 6  99595250.548 5  24322165.555                    24322173.840
 107595392.107 8  83840650.042 8  20474708.117                    20474714.863
 113527263.094 8  88462984.485 7  21603543.117                    21603553.402
 117452360.808 7  91521365.440 7  22350440.609                    22350449.141
 114301406.327 7  89066131.06945  21750817.359                    21750823.125
 11  8 20  2 24  0.0000000  0  9G10G30G12G26G15G05G25G29G02
 125805202.656 6  98030124.34443  23939927.602                    23939935.887
 114162494.039 8  88957863.44945  21724403.844                    21724412.074
 113896887.651 8  88750906.615 7  21673858.070                    21673865.531
 122956054.889 6  95809975.98543  23397759.578                    23397767.703
 127718905.701 6  99521286.111 5  24304102.352                    24304110.789
 107629466.127 8  83867201.237 8  20481192.102                    20481199.336
 113536700.029 8  88470337.946 7  21605339.195                    21605348.832
 117372271.616 8  91458958.313 7  22335200.125                    22335207.645
 114341216.495 8  89097151.99745  21758393.195                    21758398.945
 11  8 20  2 24 30.0000000  0  9G10G30G12G26G15G05G25G29G02
 125911916.938 6  98113278.31343  23960234.250                    23960243.207
 114189330.454 7  88978774.95945  21729510.719                    21729518.988
 113965796.806 8  88804602.046 7  21686971.281                    21686978.316
 122863021.654 7  95737482.59243  23380055.781                    23380063.500
 127623897.545 6  99447253.897 5  24286022.305                    24286031.031
 107664029.773 8  83894133.958 8  20487769.203                    20487776.320
 113546703.061 8  88478132.517 7  21607242.625                    21607252.879
 117292289.694 7  91396634.765 7  22319979.703                    22319988.035
 114381110.952 8  89128238.60045  21765984.648                    21765990.609
 11  8 20  2 25  0.0000000  0  9G10G30G12G26G15G05G25G29G02
 126018745.039 6  98196520.98943  23980562.945                    23980571.277
 114216716.066 7  89000114.40046  21734722.148                    21734730.176
 114035091.679 8  88858598.053 7  21700157.844                    21700164.684
 122770112.044 6  95665085.55143  23362375.547                    23362383.797
 127528804.444 6  99373155.510 5  24267926.344                    24267935.660
 107699080.562 8  83921446.274 8  20494439.273                    20494446.367
 113557271.155 8  88486367.410 7  21609253.398                    21609263.574
 117212417.092 7  91334396.416 7  22304780.570                    22304788.633
 114421089.668 8  89159390.84845  21773592.766                    21773598.445
 11  8 20  2 25 30.0000000  0  9G10G30G12G26G15G05G25G29G02
 126125684.217 7  98279850.20943  24000913.430                    24000921.273
 114244649.255 7  89021880.53345  21740037.758                    21740045.848
 114104769.852 8  88912892.718 7  21713417.250                    21713424.016
 122677329.692 6  95592787.70144  23344719.078                    23344728.762
 127433629.511 6  99298993.360 5  24249815.781                    24249824.148
 107734616.700 8  83949136.783 8  20501201.531                    20501208.426
 113568403.478 8  88495041.958 7  21611371.859                    21611382.020
 117132655.898 7  91272244.854 7  22289602.453                    22289610.563
 114461152.438 8  89190608.59645  21781216.125                    21781222.133
 11  8 20  2 26  0.0000000  0  9G10G30G12G26G15G05G25G29G02
 126232732.147 7  98363264.20243  24021282.969                    24021291.504
 114273128.298 8  89044071.99945  21745457.195                    21745465.230
 114174828.659 8  88967483.987 7  21726748.711                    21726756.230
 122584678.366 6  95520591.92844  23327087.789                    23327097.191
 127338375.603 6  99224769.645 5  24231689.055                    24231697.426
 107770636.568 8  83977204.228 8  20508055.805                    20508062.973
 113580099.111 8  88504155.431 7  21613597.672                    21613607.633
 117053007.895 7  91210181.505 7  22274446.094                    22274453.703
 114501299.407 7  89221891.95045  21788856.141                    21788861.250
 11  8 20  2 26 30.0000000  0  9G10G30G12G26G15G05G25G29G02
 126339886.177 6  98446760.80943  24041674.008                    24041682.879
 114302151.098 8  89066687.18145  21750979.898                    21750987.988
 114245265.121 7  89022369.540 7  21740152.148                    21740159.676
 122492161.250 6  95448500.76444  23309482.813                    23309491.914
 127243044.822 6  99150486.061 5  24213547.797                    24213556.840
 107807137.659 8  84005646.657 8  20515001.727                    20515009.059
 113592356.837 8  88513706.921 7  21615930.031                    21615940.344
 116973475.091 7  91148207.928 7  22259311.164                    22259319.004
 114541530.173 7  89253240.60645  21796512.063                    21796517.016
 11  8 20  2 27  0.0000000  0  9G10G30G12G26G15G05G25G29G02
 126447143.720 6  98530338.14843  24062084.125                    24062093.047
 114331716.022 8  89089724.78645  21756605.531                    21756614.082
 114316076.458 8  89077547.202 7  21753627.102                    21753634.176
 122399782.155 6  95376517.12044  23291904.172                    23291912.836
 127147640.043 6  99076144.827 5  24195393.172                    24195401.418
 107844118.358 8  84034462.809 8  20522039.148                    20522046.086
 113605175.905 8  88523695.800 7  21618369.211                    21618379.891
 116894059.710 7  91086325.836 7  22244198.797                    22244206.371
 114581844.848 7  89284654.64545  21804183.617                    21804188.637
 11  8 20  2 27 30.0000000  0  9G10G30G12G26G15G05G25G29G02
 126554502.311 6  98613994.21643  24082514.055                    24082522.730
 114361821.320 8  89113183.45645  21762334.695                    21762342.957
 114387260.149 7  89133014.999 7  21767172.922                    21767180.340
 122307544.785 6  95304643.93543  23274351.438                    23274360.191
 127052163.942 6  99001748.006 5  24177224.250                    24177233.320
 107881576.889 8  84063651.290 8  20529166.984                    20529174.039
 113618555.295 8  88534121.305 8  21620915.609                    21620926.156
 116814763.816 7  91024536.874 7  22229108.930                    22229116.785
 114622243.330 7  89316133.97445  21811870.914                    21811876.188
 11  8 20  2 28  0.0000000  0  9G10G30G12G26G15G05G25G29G02
 126661959.345 6  98697726.95143  24102962.945                    24102970.746
 114392464.853 8  89137061.53845  21768166.297                    21768174.172
 114458813.247 7  89188770.651 7  21780789.078                    21780796.633
 122215452.569 6  95232883.84043  23256826.727                    23256835.645
 126956618.907 6  98927297.459 6  24159042.414                    24159052.430
 107919510.802 8  84093210.201 8  20536385.680                    20536392.621
 113632493.827 8  88544982.506 7  21623567.789                    21623578.113
 116735589.160 7  90962842.353 7  22214043.258                    22214050.484
 114662725.542 7  89347678.55945  21819574.578                    21819579.691
 11  8 20  2 28 30.0000000  0  9G10G30G12G26G15G05G25G29G02
 126769512.326 6  98781534.42843  24123429.234                    24123437.711
 114423645.020 8  89161357.79045  21774099.234                    21774107.457
 114530733.127 7  89244812.109 7  21794474.648                    21794482.008
 122123509.177 7  95161239.73143  23239330.609                    23239338.164
 126861008.239 6  98852795.766 6  24140848.945                    24140858.414
 107957918.593 7  84123138.380 8  20543694.398                    20543701.512
 113646990.715 8  88556278.766 7  21626326.625                    21626336.707
 116656537.833 7  90901243.962 7  22199000.102                    22199007.441
 114703291.704 7  89379288.55945  21827293.781                    21827299.480
 11  8 20  2 29  0.0000000  0  9G10G30G12G26G15G05G25G29G02
 126877158.662 6  98865414.72443  24143913.461                    24143921.805
 114455359.919 7  89186070.69745  21780134.406                    21780142.988
 114603016.913 7  89301137.116 7  21808230.500                    21808237.934
 122031718.359 7  95089714.54243  23221862.734                    23221870.574
 126765334.440 6  98778244.885 6  24122641.180                    24122652.316
 107996798.434 8  84153434.379 7  20551093.125                    20551099.707
 113662044.862 8  88568009.274 7  21629191.594                    21629201.617
 116577612.266 7  90839743.577 7  22183981.148                    22183988.887
 114743941.983 8  89410964.09945  21835029.625                    21835034.984
 11  8 20  2 29 30.0000000  0  9G10G30G12G26G15G05G25G29G02
 126984895.900 6  98949365.80643  24164415.648                    24164423.879
 114487607.869 8  89211198.97045  21786270.961                    21786279.191
 114675662.212 7  89357743.824 7  21822054.133                    21822061.902
 121940084.170 7  95018311.32043  23204425.156                    23204433.113
 126669600.332 6  98703646.980 6  24104424.773                    24104434.934
 108036148.561 8  84184096.835 7  20558581.023                    20558588.078
 113677655.479 8  88580173.384 7  21632162.047                    21632172.023
 116498814.641 7  90778342.895 7  22168986.242                    22168994.355
 114784676.458 8  89442705.23945  21842780.664                    21842786.355
 11  8 20  2 30  0.0000000  0  9G10G30G12G26G15G05G25G29G02
 127092721.209 6  99033385.50743  24184934.680                    24184941.785
 114520386.150 7  89236740.49145  21792508.344                    21792516.691
 114748665.259 7  89414629.298 7  21835946.000                    21835953.734
 121848609.037 7  94947032.07844  23187018.297                    23187026.480
 126573808.133 6  98629003.812 6  24086196.008                    24086206.203
 108075965.690 8  84215123.189 8  20566158.156                    20566164.785
 113693820.539 8  88592769.523 7  21635238.633                    21635248.422
 116420146.269 7  90717042.942 7  22154016.141                    22154024.355
 114825494.320 7  89474511.35545  21850548.508                    21850553.875
 11  8 20  2 30 30.0000000  0  9G10G30G12G26G15G05G25G29G02
 127200632.609 6  99117472.31243  24205468.648                    24205476.828
 114553693.122 8  89262693.97145  21798846.281                    21798854.645
 114822023.855 7  89471791.819 7  21849905.797                    21849913.355
 121757297.173 7  94875880.04944  23169642.375                    23169650.074
 126477960.917 6  98554317.781 6  24067956.094                    24067966.434
 108116248.693 8  84246512.562 7  20573823.773                    20573830.449
 113710539.328 8  88605797.159 7  21638419.844                    21638429.918
 116341609.422 7  90655845.459 7  22139070.695                    22139078.742
 114866395.901 7  89506382.72745  21858331.359                    21858337.148
 11  8 20  2 31  0.0000000  0  9G10G30G12G26G15G05G25G29G02
 127308627.281 6  99201624.02343  24226019.469                    24226027.609
 114587526.776 8  89289057.85245  21805284.727                    21805292.824
 114895734.989 7  89529229.069 7  21863932.641                    21863940.172
 121666152.280 7  94804858.13244  23152297.805                    23152306.070
 126382061.155 6  98479590.758 6  24049707.063                    24049717.320
 108156995.108 8  84278263.026 7  20581577.609                    20581584.258
 113727810.699 8  88619255.354 7  21641706.227                    21641716.660
 116263206.134 8  90594752.051 7  22124151.367                    22124159.555
 114907381.407 8  89538319.48445  21866130.750                    21866136.000
 11  8 20  2 31 30.0000000  0  9G10G30G12G26G15G05G25G29G02
 127416702.867 6  99285838.72043  24246585.781                    24246593.852
 114621885.518 8  89315830.89145  21811823.453                    21811830.969
 114969796.204 7  89586939.081 7  21878026.055                    21878033.418
 121575178.180 7  94733969.29243  23134985.859                    23134994.359
 126286112.010 6  98404825.313 6  24031448.555                    24031458.746
 108198203.585 8  84310373.542 7  20589419.039                    20589425.934
 113745633.807 8  88633143.492 7  21645097.961                    21645107.918
 116184939.093 8  90533764.812 7  22109257.352                    22109265.336
 114948451.064 8  89570321.81945  21873946.750                    21873951.883
 11  8 20  2 32  0.0000000  0  9G10G30G12G26G15G05G25G29G02
 127524856.715 6  99370114.46543  24267166.891                    24267174.695
 114656766.625 8  89343010.96545  21818460.898                    21818468.594
 115044203.979 7  89644919.172 7  21892185.023                    21892193.211
 121484377.946 7  94663215.95344  23117707.461                    23117715.695
 126190115.929 6  98330023.284 6  24013180.930                    24013190.520
 108239871.136 8  84342841.764 7  20597348.000                    20597354.691
 113764006.804 8  88647460.114 7  21648593.953                    21648604.156
 116106809.709 7  90472884.831 7  22094389.695                    22094398.098
 114989604.274 7  89602389.25245  21881777.445                    21881783.148
 11  8 20  2 32 30.0000000  0  9G10G30G12G26G15G05G25G29G02
 127633086.502 6  99454449.37942  24287761.875                    24287769.668
 114692168.271 8  89370596.65045  21825197.039                    21825205.668
 115118956.023 7  89703167.495 7  21906410.297                    21906418.047
 121393755.486 7  94592601.14644  23100462.961                    23100471.344
 126094075.603 6  98255186.752 6  23994905.477                    23994914.738
 108281995.955 8  84375666.310 8  20605364.383                    20605371.012
 113782928.579 8  88662204.339 7  21652194.703                    21652204.957
 116028820.197 7  90412113.858 7  22079548.875                    22079556.434
 115030841.459 8  89634522.13445  21889624.688                    21889629.875
 11  8 20  2 33  0.0000000  0  9G10G30G12G26G15G05G25G29G02
 127741389.765 6  99538841.58142  24308371.367                    24308379.121
 114728088.409 8  89398586.36545  21832032.953                    21832041.301
 115194049.175 7  89761681.635 7  21920700.023                    21920707.973
 121303314.388 7  94522127.63144  23083252.352                    23083260.145
 125997994.066 6  98180318.123 6  23976621.953                    23976631.539
 108324576.323 8  84408845.823 8  20613467.281                    20613474.035
 113802397.984 8  88677375.317 7  21655899.367                    21655909.813
 115950972.686 7  90351453.534 7  22064734.734                    22064743.137
 115072162.497 8  89666720.35345  21897487.734                    21897493.375
 11  8 20  2 33 30.0000000  0  9G10G30G12G26G15G05G25G29G02
 127849763.933 6  99623289.01042  24328994.102                    24329002.305
 114764525.060 8  89426978.54845  21838966.539                    21838974.555
 115269480.584 7  89820459.344 7  21935054.188                    21935061.418
 121213058.492 7  94451798.43244  23066076.758                    23066085.613
 125901874.077 6  98105419.539 6  23958330.422                    23958340.637
 108367610.097 8  84442378.652 7  20621655.828                    20621662.922
 113822413.808 8  88692972.054 7  21659708.875                    21659718.469
 115873269.651 7  90290905.770 7  22049948.773                    22049956.504
 115113567.722 7  89698984.18745  21905366.883                    21905372.582
 11  8 20  2 34  0.0000000  0  9G10G30G12G26G15G05G25G29G02
 127958206.538 6  99707789.73242  24349629.438                    24349638.258
 114801475.722 8  89455771.25645  21845998.211                    21846005.949
 115345247.525 7  89879498.514 7  21949472.195                    21949480.418
 121122991.195 7  94381616.18444  23048937.906                    23048946.277
 125805718.007 6  98030492.824 6  23940032.609                    23940041.734
 108411094.448 7  84476262.572 7  20629930.625                    20629937.977
 113842974.363 8  88708993.270 7  21663620.852                    21663631.199
 115795712.575 7  90230471.743 7  22035189.945                    22035198.137
 115155056.800 7  89731313.36145  21913262.141                    21913267.605
 11  8 20  2 34 30.0000000  0  9G10G30G12G26G15G05G25G29G02
 128066715.148 6  99792342.00742  24370278.352                    24370287.063
 114838938.438 7  89484962.98745  21853127.172                    21853135.277
 115421346.696 7  89938796.562 7  21963953.328                    21963960.816
 121033116.321 7  94311583.87644  23031835.695                    23031843.504
 125709528.934 6  97955540.405 6  23921728.203                    23921737.117
 108455027.806 8  84510496.363 8  20638291.086                    20638298.184
 113864078.503 8  88725438.050 7  21667637.078                    21667646.965
 115718303.950 7  90170153.385 7  22020459.547                    22020467.406
 115196629.969 7  89763708.06045  21921172.930                    21921178.305
 11  8 20  2 35  0.0000000  0  9G10G30G12G26G15G05G25G29G02
 128175287.656 6  99876943.89642  24390938.938                    24390947.359
 114876911.297 8  89514552.21645  21860352.852                    21860360.926
 115497775.715 7  89998351.612 7  21978497.227                    21978505.262
 120943437.589 7  94241704.43844  23014769.336                    23014778.375
 125613309.707 6  97880564.497 6  23903418.508                    23903427.184
 108499408.235 8  84545078.531 8  20646736.156                    20646743.270
 113885725.042 8  88742305.483 7  21671756.164                    21671766.336
 115641046.006 7  90109952.428 7  22005757.695                    22005765.195
 115238287.429 8  89796168.43345  21929100.109                    21929105.594
 11  8 20  2 35 30.0000000  0  9G10G30G12G26G15G05G25G29G02
 128283921.335 6  99961593.56442  24411610.555                    24411619.859
 114915392.032 8  89544537.19545  21867675.617                    21867684.184
 115574531.545 7  90058161.344 7  21993103.383                    21993110.270
 120853958.550 7  94171980.59744  22997742.523                    22997750.797
 125517063.175 6  97805567.316 6  23885103.125                    23885112.160
 108544233.505 8  84580007.320 8  20655266.281                    20655273.215
 113907912.626 8  88759594.518 7  21675978.469                    21675988.520
 115563941.006 7  90049870.659 7  21991085.055                    21991093.133
 115280029.106 7  89828694.43145  21937043.281                    21937048.676
 11  8 20  2 36  0.0000000  0  9G10G30G12G26G15G05G25G29G02
 128392613.894 6 100046289.08342  24432295.289                    24432303.875
 114954378.147 8  89574915.99345  21875094.852                    21875102.828
 115651610.884 7  90118223.160 7  22007771.297                    22007778.836
 120764682.846 7  94102415.18744  22980753.641                    22980762.656
 125420792.054 6  97730550.964 6  23866783.852                    23866791.777
 108589501.075 8  84615280.767 8  20663880.609                    20663887.176
 113930639.495 8  88777303.784 7  21680303.094                    21680313.141
 115486990.744 7  89989909.465 7  21976442.352                    21976450.016
 115321854.995 8  89861286.05345  21945002.297                    21945007.668
 11  8 20  2 36 30.0000000  0  9G10G30G12G26G15G05G25G29G02
 128501363.008 6 100131028.69842  24452988.688                    24452997.879
 114993867.660 7  89605687.05145  21882609.016                    21882617.098
 115729011.148 7  90178535.036 7  22022499.516                    22022507.016
 120675613.956 7  94033010.89744  22963804.281                    22963813.617
 125324498.999 6  97655517.539 5  23848458.797                    23848467.863
 108635208.974 8  84650897.317 7  20672578.398                    20672585.449
 113953904.326 8  88795432.218 7  21684730.320                    21684740.480
 115410197.560 7  89930070.663 7  21961828.688                    21961836.430
 115363765.421 8  89893943.54845  21952977.758                    21952983.453
 11  8 20  2 37  0.0000000  0  9G10G30G12G26G15G05G25G29G02
 128610166.411 6 100215810.56942  24473693.195                    24473702.398
 115033858.220 7  89636848.52145  21890219.086                    21890227.844
 115806729.457 7  90239094.747 7  22037289.484                    22037296.789
 120586756.090 7  93963771.05944  22946895.219                    22946904.148
 125228187.138 6  97580469.467 5  23830131.766                    23830140.195
 108681355.179 8  84686855.416 7  20681359.656                    20681366.730
 113977705.756 8  88813978.805 7  21689259.867                    21689269.797
 115333563.511 7  89870355.871 7  21947245.531                    21947253.215
 115405760.415 8  89926666.93445  21960968.984                    21960974.633
 11  8 20  2 37 30.0000000  0 10G10G30G12G26G15G05G25G29G21G02
 128719021.461 6 100300632.69842  24494408.172                    24494416.602
 115074347.581 7  89668398.68345  21897923.984                    21897932.137
 115884762.878 7  90299899.999 7  22052138.430                    22052145.484
 120498112.320 7  93894698.07444  22930026.836                    22930035.922
 125131859.214 6  97505408.888 6  23811800.758                    23811809.402
 108727937.243 8  84723153.139 8  20690223.914                    20690230.672
 114002042.192 8  88832942.256 7  21693890.836                    21693900.895
 115257090.775 7  89810766.765 7  21932693.688                    21932700.996
 132345553.91516 103126460.84952  25184526.500                    25184534.969
 115447839.864 7  89959456.13845  21968976.617                    21968982.113
 11  8 20  2 38  0.0000000  0 10G10G30G12G26G15G05G25G29G21G02
 128827926.022 6 100385493.43342  24515131.750                    24515140.070
 115115333.418 7  89700335.71445  21905723.352                    21905731.332
 115963108.408 7  90360948.453 7  22067047.242                    22067054.898
 120409686.590 7  93825794.97344  22913199.766                    22913208.438
 125035518.049 6  97430337.983 6  23793468.422                    23793475.723
 108774953.143 8  84759788.913 7  20699170.711                    20699177.469
 114026912.138 8  88852321.440 7  21698623.461                    21698633.047
 115180781.467 7  89751305.004 7  21918171.914                    21918179.539
 132289238.032 6 103082578.37043  25173809.961                    25173819.348
 115490003.973 7  89992311.31645  21977000.523                    21977005.441
 11  8 20  2 38 30.0000000  0 10G10G30G12G26G15G05G25G29G21G02
 128936877.543 6 100470390.65643  24535864.672                    24535873.109
 115156813.433 7  89732657.80945  21913616.672                    21913624.809
 116041762.936 8  90422237.688 7  22082014.742                    22082022.188
 120321482.594 7  93757064.64844  22896414.617                    22896423.652
 124939166.515 7  97355259.004 5  23775132.680                    23775140.453
 108822400.561 8  84796760.939 7  20708199.625                    20708206.586
 114052313.979 8  88872115.086 7  21703456.859                    21703466.965
 115104637.935 7  89691972.427 7  21903682.430                    21903690.172
 132232932.466 6 103038703.99942  25163095.766                    25163105.367
 115532252.837 7  90025232.53745  21985039.617                    21985045.152
 11  8 20  2 39  0.0000000  0 10G10G30G12G26G15G05G25G29G21G02
 129045873.758 6 100555322.83643  24556606.383                    24556615.137
 115198785.341 7  89765363.20345  21921603.305                    21921611.691
 116120723.762 8  90483765.607 7  22097040.461                    22097047.766
 120233503.827 7  93688509.81944  22879673.516                    22879681.500
 124842807.458 6  97280174.145 5  23756796.031                    23756803.762
 108870277.209 8  84834067.431 7  20717310.531                    20717317.063
 114078246.301 8  88892322.092 7  21708391.898                    21708401.953
 115028662.159 7  89632770.552 7  21889225.055                    21889232.250
 132176636.397 6 102994836.99343  25152383.445                    25152392.383
 115574586.947 8  90058220.16745  21993095.516                    21993100.824
 11  8 20  2 39 30.0000000  0 10G10G30G12G26G15G05G25G29G21G02
 129154912.172 6 100640287.78343  24577355.453                    24577364.102
 115241246.511 7  89798449.82645  21929683.656                    21929691.883
 116199987.477 8  90545529.535 7  22112123.578                    22112131.461
 120145753.946 7  93620133.36344  22862975.234                    22862983.230
 124746443.426 6  97205085.401 5  23738458.391                    23738466.379
 108918580.410 8  84871706.301 8  20726501.938                    20726508.953
 114104707.145 8  88912940.935 7  21713427.227                    21713437.484
 114952856.186 8  89573701.014 7  21874799.125                    21874807.250
 132120349.347 6 102950976.99943  25141672.305                    25141681.645
 115617005.550 8  90091273.64545  22001167.594                    22001172.641
 11  8 20  2 40  0.0000000  0  9G30G12G26G15G05G25G29G21G02
 115284196.309 7  89831917.20245  21937856.820                    21937865.293
 116279552.865 8  90607528.534 7  22127264.523                    22127272.168
 120058238.009 7  93551939.20244  22846321.523                    22846329.684
 124650078.765 6  97129996.161 5  23720121.031                    23720128.395
 108967310.209 8  84909677.589 7  20735774.867                    20735781.637
 114131696.660 8  88933971.731 7  21718563.102                    21718573.145
 114877224.015 8  89514766.892 7  21860406.875                    21860414.703
 132064072.144 6 102907124.74043  25130962.359                    25130971.973
 115659510.733 8  90124394.60145  22009256.352                    22009261.230
 11  8 20  2 40 30.0000000  0  9G30G12G26G15G05G25G29G21G02
 115327630.863 8  89865762.30545  21946122.258                    21946129.914
 116359415.630 8  90669759.254 7  22142461.977                    22142469.313
 119970958.403 7  93483929.20644  22829712.172                    22829720.363
 124553715.306 6  97054907.857 6  23701783.352                    23701791.031
 109016462.766 8  84947978.293 7  20745128.359                    20745135.273
 114159211.782 8  88955412.083 7  21723798.742                    21723809.539
 114801766.376 8  89455968.771 7  21846047.547                    21846055.289
 132007803.051 6 102863278.76643  25120255.633                    25120264.855
 115702101.312 8  90157582.08645  22017360.648                    22017366.180
 11  8 20  2 41  0.0000000  0  9G30G12G26G15G05G25G29G21G02
 115371547.450 8  89899983.03445  21954479.109                    21954486.984
 116439572.497 7  90732219.146 7  22157715.617                    22157722.824
 119883918.527 7  93416105.98444  22813149.359                    22813157.496
 124457355.361 6  96979822.302 6  23683446.625                    23683454.484
 109066035.146 8  84986606.134 7  20754561.781                    20754568.344
 114187250.483 8  88977260.419 7  21729134.656                    21729144.793
 114726485.141 7  89397308.111 7  21831721.977                    21831729.969
 131951541.251 6 102819438.51443  25109549.117                    25109558.250
 115744776.897 7  90190835.81545  22025481.813                    22025487.133
 11  8 20  2 41 30.0000000  0  9G30G12G26G15G05G25G29G21G02
 115415943.911 8  89934577.66545  21962927.648                    21962934.836
 116520020.396 8  90794905.817 7  22173024.281                    22173031.781
 119797122.529 7  93348472.80144  22796632.188                    22796641.113
 124361002.182 6  96904742.014 6  23665110.633                    23665119.074
 109116025.586 8  85025559.724 7  20764074.523                    20764080.824
 114215811.381 8  88999515.674 7  21734569.398                    21734580.211
 114651382.746 8  89338786.816 7  21817430.531                    21817438.398
 131895286.109 6 102775603.38743  25098844.336                    25098853.535
 115787537.907 8  90224156.10845  22033618.992                    22033624.250
 11  8 20  2 42  0.0000000  0  9G30G12G26G15G05G25G29G21G02
 115460818.002 8  89969544.50145  21971466.828                    21971474.793
 116600756.631 8  90857817.177 7  22188387.211                    22188395.336
 119710573.832 7  93281032.35244  22780162.539                    22780171.398
 124264658.918 6  96829669.437 6  23646777.984                    23646785.766
 109166431.802 8  85064837.297 7  20773666.695                    20773673.160
 114244892.938 8  89022176.640 7  21740103.656                    21740113.688
 114576461.525 8  89280406.683 7  21803173.539                    21803181.031
 131839037.055 6 102731773.07143  25088140.305                    25088149.199
 115830384.558 8  90257543.12045  22041772.273                    22041777.621
 11  8 20  2 42 30.0000000  0  9G30G12G26G15G05G25G29G21G02
 115506167.106 8  90004881.45045  21980096.867                    21980103.895
 116681778.044 8  90920950.746 7  22203805.531                    22203812.980
 119624276.189 7  93213787.48445  22763741.063                    22763749.219
 124168328.122 6  96754606.583 6  23628445.891                    23628454.273
 109217251.466 8  85104437.032 8  20783337.414                    20783343.844
 114274493.234 8  89045241.800 7  21745736.664                    21745746.613
 114501723.745 8  89222169.495 7  21788951.297                    21788959.156
 131782793.506 6 102687947.02243  25077436.914                    25077446.430
 115873317.016 7  90290997.00145  22049941.805                    22049947.234
 11  8 20  2 43  0.0000000  0  9G30G12G26G15G05G25G29G21G02
 115551988.704 8  90040586.59345  21988816.484                    21988824.023
 116763081.901 7  90984304.391 7  22219277.242                    22219285.090
 119538233.121 7  93146740.97945  22747367.477                    22747376.301
 124072012.730 6  96679555.720 6  23610117.594                    23610126.277
 109268482.150 8  85144357.060 7  20793086.383                    20793092.996
 114304610.573 8  89068709.873 7  21751467.484                    21751477.625
 114427171.466 8  89164076.841 7  21774764.578                    21774772.035
 131726554.963 6 102644124.84342  25066735.266                    25066743.480
 115916335.467 7  90324517.88645  22058128.398                    22058133.535
 11  8 20  2 43 30.0000000  0  9G30G12G26G15G05G25G29G21G02
 115598280.242 8  90076657.91245  21997625.109                    21997632.805
 116844664.863 7  91047875.534 7  22234801.969                    22234810.191
 119452448.333 7  93079895.78544  22731043.016                    22731051.707
 123975715.697 6  96604519.144 6  23591793.156                    23591801.676
 109320121.516 8  85184595.528 8  20802912.875                    20802919.980
 114335243.039 8  89092579.326 7  21757296.680                    21757306.844
 114352806.743 8  89106130.349 7  21760613.383                    21760621.172
 131670320.827 6 102600306.14743  25056033.352                    25056042.703
 115959440.033 8  90358105.87645  22066330.313                    22066336.039
 11  8 20  2 44  0.0000000  0  9G30G12G26G15G05G25G29G21G02
 115645039.519 7  90113093.70745  22006523.461                    22006531.148
 116926524.125 7  91111661.961 7  22250379.000                    22250387.363
 119366925.774 7  93013254.85444  22714768.602                    22714776.484
 123879440.248 6  96529499.404 6  23573472.141                    23573481.199
 109372167.606 8  85225150.938 7  20812816.578                    20812823.617
 114366389.195 8  89116849.059 7  21763223.766                    21763233.973
 114278632.557 7  89048332.334 7  21746498.047                    21746505.785
 131614090.360 6 102556490.30043  25045333.094                    25045342.477
 116002631.107 7  90391761.27345  22074549.406                    22074555.027
 11  8 20  2 44 30.0000000  0  9G30G12G26G15G05G25G29G21G02
 115692263.923 8  90149891.93845  22015509.531                    22015517.270
 117008656.590 7  91175661.293 7  22266008.492                    22266016.859
 119281668.948 7  92946821.00345  22698544.961                    22698553.211
 123783188.928 6  96454498.439 6  23555156.125                    23555164.754
 109424618.049 8  85266021.420 7  20822797.750                    20822804.438
 114398047.104 8  89141517.564 7  21769247.992                    21769258.098
 114204650.423 8  88990683.966 7  21732420.117                    21732427.660
 131557863.473 6 102512677.25442  25034633.289                    25034642.977
 116045908.683 7  90425484.05345  22082785.016                    22082791.156
 11  8 20  2 45  0.0000000  0  9G30G12G26G15G05G25G29G21G02
 115739950.831 8  90187050.56645  22024584.305                    22024591.988
 117091059.322 7  91239871.201 7  22281688.789                    22281697.438
 119196681.491 7  92880597.07144  22682372.031                    22682381.027
 123686964.929 6  96379518.767 6  23536845.422                    23536854.098
 109477470.395 8  85307205.079 7  20832855.234                    20832862.359
 114430214.899 8  89166583.386 7  21775369.391                    21775379.262
 114130862.720 7  88933187.091 7  21718378.711                    21718386.039
 131501639.320 6 102468866.33542  25023934.727                    25023943.840
 116089272.682 7  90459274.18645  22091037.203                    22091042.656
 11  8 20  2 45 30.0000000  0  9G30G12G26G15G05G25G29G21G02
 115788097.732 8  90224567.65045  22033746.359                    22033753.980
 117173729.398 7  91304289.443 7  22297420.672                    22297428.773
 119111967.185 7  92814585.93745  22666251.422                    22666259.715
 123590771.003 7  96304562.527 6  23518540.383                    23518548.656
 109530722.378 8  85348700.139 7  20842988.609                    20842995.883
 114462890.770 8  89192045.110 7  21781587.156                    21781597.020
 114057271.906 7  88875843.633 7  21704374.914                    21704382.352
 131445417.258 6 102425057.04643  25013235.773                    25013245.102
 116132723.539 7  90493131.99845  22099305.711                    22099311.320
 11  8 20  2 46  0.0000000  0  9G30G12G26G15G05G25G29G21G02
 115836701.873 8  90262441.01145  22042995.203                    22043003.402
 117256663.393 7  91368913.314 7  22313202.133                    22313210.949
 119027529.388 7  92748790.30445  22650183.641                    22650192.086
 123494610.029 7  96229631.978 6  23500241.484                    23500250.406
 109584371.332 8  85390504.536 7  20853197.508                    20853204.648
 114496072.612 8  89217901.092 7  21787901.828                    21787911.637
 113983880.109 8  88818655.240 7  21690408.672                    21690416.559
 131389196.487 6 102381248.78842  25002538.125                    25002546.102
 116176261.554 7  90527057.72545  22107590.477                    22107596.227
 11  8 20  2 46 30.0000000  0  9G30G12G26G15G05G25G29G21G02
 115885760.506 7  90300668.52645  22052330.617                    22052338.719
 117339858.222 7  91433740.456 7  22329034.109                    22329041.656
 118943371.717 7  92683212.94145  22634168.414                    22634176.734
 123398484.897 7  96154729.365 6  23481949.602                    23481958.328
 109638414.505 8  85432616.103 7  20863482.039                    20863488.563
 114529758.406 8  89244149.764 7  21794311.547                    21794321.559
 113910689.194 8  88761623.390 7  21676481.195                    21676488.742
 131332976.294 6 102337441.01543  24991839.516                    24991847.707
 116219886.491 8  90561051.17845  22115891.820                    22115897.379
 11  8 20  2 47  0.0000000  0  9G30G12G26G15G05G25G29G21G02
 115935271.697 8  90339248.67945  22061752.500                    22061760.672
 117423311.477 7  91498768.956 7  22344914.859                    22344922.789
 118859498.501 7  92617857.21445  22618208.188                    22618216.168
 123302399.057 7  96079857.376 6  23463664.922                    23463673.820
 109692850.954 8  85475034.133 7  20873840.680                    20873847.230
 114563946.934 8  89270790.176 7  21800817.531                    21800827.813
 113837702.262 8  88704750.486 7  21662592.352                    21662600.078
 131276756.771 6 102293633.71243  24981141.109                    24981149.414
 116263599.106 7  90595112.93545  22124210.461                    22124215.254
 11  8 20  2 47 30.0000000  0  9G30G12G26G15G05G25G29G21G02
 115985232.451 7  90378179.15245  22071260.203                    22071267.910
 117507019.864 7  91563996.254 7  22360843.578                    22360851.383
 118775913.175 7  92552725.83144  22602302.633                    22602310.684
 123206355.154 6  96005018.056 6  23445388.117                    23445396.973
 109747677.681 8  85517756.262 7  20884273.891                    20884280.816
 114598635.911 8  89297820.540 7  21807418.820                    21807428.254
 113764921.331 8  88648038.097 7  21648742.438                    21648750.336
 131220537.056 6 102249826.25943  24970442.719                    24970450.492
 116307399.540 7  90629243.12445  22132544.992                    22132550.539
 11  8 20  2 48  0.0000000  0  9G30G12G26G15G05G25G29G21G02
 116035640.387 7  90417458.07445  22080851.703                    22080860.445
 117590980.558 7  91629420.145 7  22376820.867                    22376828.809
 118692619.204 7  92487821.48245  22586452.008                    22586459.820
 123110356.304 7  95930213.836 6  23427120.203                    23427128.309
 109802892.515 8  85560780.823 7  20894780.938                    20894787.488
 114633823.510 8  89325239.452 7  21814114.969                    21814124.660
 113692348.874 8  88591488.178 7  21634932.336                    21634939.828
 131164316.730 6 102206018.32943  24959745.086                    24959752.188
 116351288.198 8  90663442.06445  22140896.813                    22140901.891
 11  8 20  2 48 30.0000000  0  9G30G12G26G15G05G25G29G21G02
 116086492.643 7  90457083.21645  22090528.961                    22090536.746
 117675190.122 7  91695037.966 7  22392845.391                    22392853.027
 118609620.512 7  92423147.22844  22570657.867                    22570666.148
 123014405.429 6  95855447.006 6  23408861.422                    23408870.152
 109858492.577 8  85604105.544 7  20905361.141                    20905368.152
 114669507.676 8  89353045.306 7  21820905.352                    21820915.191
 113619986.969 8  88535102.303 7  21621162.195                    21621169.750
 131108095.040 6 102162209.30743  24949045.648                    24949053.855
 116395264.686 8  90697709.43645  22149265.297                    22149270.660
 11  8 20  2 49  0.0000000  0  9G30G12G26G15G05G25G29G21G02
 116137786.467 7  90497052.43745  22100289.953                    22100298.324
 117759645.679 7  91760847.482 7  22408917.109                    22408924.297
 118526920.580 7  92358705.77844  22554920.305                    22554928.953
 122918505.650 6  95780720.009 6  23390612.102                    23390620.039
 109914475.384 8  85647728.529 7  20916014.453                    20916021.527
 114705686.269 8  89381236.434 7  21827789.820                    21827800.008
 113547837.732 8  88478882.168 7  21607432.359                    21607440.355
 131051871.266 5 102118398.65943  24938346.297                    24938354.910
 116439329.528 7  90732045.65645  22157650.555                    22157655.863
 11  8 20  2 49 30.0000000  0  9G30G12G26G15G05G25G29G21G02
 116189519.640 7  90537364.00745  22110134.250                    22110142.449
 117844344.500 7  91826846.534 7  22425034.266                    22425042.027
 118444523.503 7  92294500.31845  22539241.141                    22539249.520
 122822660.264 6  95706035.396 6  23372372.813                    23372381.254
 109970839.485 8  85691648.623 7  20926740.023                    20926747.188
 114742357.799 8  89409811.641 7  21834768.273                    21834778.078
 113475904.129 8  88422830.050 7  21593744.023                    21593751.703
 130995645.326 6 102074586.31343  24927645.703                    24927654.793
 116483483.224 7  90766451.12345  22166052.563                    22166058.176
 11  8 20  2 50  0.0000000  0  9G30G12G26G15G05G25G29G21G02
 116241689.561 7  90578015.90045  22120062.094                    22120069.969
 117929283.662 7  91893032.900 7  22441198.156                    22441205.281
 118362432.836 7  92230533.61845  22523620.156                    22523628.035
 122726871.997 7  95631395.278 6  23354145.406                    23354152.559
 110027582.429 8  85735863.911 7  20937537.828                    20937544.957
 114779520.173 8  89438769.334 7  21841839.609                    21841849.773
 113404188.302 8  88366947.633 7  21580097.188                    21580104.598
 130939416.691 5 102030771.89243  24916945.859                    24916955.168
 116527726.183 8  90800926.14245  22174472.016                    22174477.641
 11  8 20  2 50 30.0000000  0  9G30G12G26G15G05G25G29G21G02
 116294293.038 7  90619005.62645  22130071.820                    22130079.844
 118014459.523 7  91959403.686 7  22457406.320                    22457413.887
 118280651.921 7  92166808.29945  22508057.078                    22508065.621
 122631143.672 6  95556801.840 6  23335928.688                    23335936.051
 110084701.170 7  85780372.022 7  20948407.406                    20948414.273
 114817171.001 7  89468107.639 7  21849004.492                    21849015.168
 113332691.997 7  88311236.254 7  21566491.664                    21566499.160
 130883184.533 6 101986954.70242  24906245.109                    24906255.063
 116572058.251 7  90835470.59645  22182908.094                    22182913.656
 11  8 20  2 51  0.0000000  0  9G30G12G26G15G05G25G29G21G02
 116347327.293 7  90660331.02945  22140163.992                    22140171.488
 118099869.088 7  92025956.564 7  22473659.398                    22473666.840
 118199184.502 7  92103327.26145  22492554.359                    22492562.879
 122535478.183 6  95482257.404 6  23317723.992                    23317731.770
 110142193.248 8  85825171.047 7  20959347.789                    20959354.152
 114855308.124 8  89497824.866 7  21856261.766                    21856272.156
 113261417.618 8  88255697.830 7  21552928.781                    21552936.141
 130826948.028 6 101943134.09542  24895543.578                    24895553.598
 116616479.581 8  90870084.60745  22191361.195                    22191366.520
 11  8 20  2 51 30.0000000  0  9G30G12G26G15G05G25G29G21G02
 116400789.523 7  90701989.91045  22150337.516                    22150345.117
 118185509.011 7  92092688.965 6  22489955.586                    22489963.102
 118118033.669 7  92040092.88645  22477111.398                    22477120.535
 122439878.465 7  95407764.196 6  23299531.945                    23299539.785
 110200056.248 8  85870259.097 7  20970358.570                    20970365.680
 114893929.315 8  89527919.302 7  21863610.914                    21863621.262
 113190367.444 8  88200334.081 7  21539408.258                    21539415.445
 130770706.746 6 101899309.79443  24884841.664                    24884851.375
 116660990.460 8  90904768.41845  22199831.680                    22199836.582
 11  8 20  2 52  0.0000000  0  9G30G12G26G15G05G25G29G21G02
 116454677.060 7  90743980.19445  22160592.000                    22160599.969
 118271376.572 7  92159598.757 6  22506296.320                    22506303.504
 118037203.664 7  91977108.54645  22461730.383                    22461738.844
 122344347.711 7  95333324.732 6  23281352.914                    23281361.316
 110258287.983 8  85915634.473 7  20981439.805                    20981446.691
 114933032.602 8  89558389.389 7  21871052.422                    21871062.457
 113119543.903 8  88145146.966 7  21525931.125                    21525938.008
 130714460.233 6 101855481.48742  24874137.414                    24874147.523
 116705590.857 7  90939521.96145  22208318.336                    22208323.789
 11  8 20  2 52 30.0000000  0  9G30G12G26G15G05G25G29G21G02
 116508987.298 7  90786299.83945  22170926.516                    22170934.563
 118357468.798 7  92226683.595 7  22522678.711                    22522686.594
 117956697.911 7  91914376.83545  22446410.383                    22446418.996
 122248888.896 7  95258941.323 6  23263188.211                    23263196.230
 110316886.115 8  85961295.357 7  20992590.609                    20992597.543
 114972616.036 8  89589233.619 7  21878585.094                    21878595.145
 113048949.347 8  88090138.242 7  21512497.281                    21512504.617
 130658208.090 6 101811648.70742  24863433.375                    24863442.609
 116750281.296 8  90974345.66045  22216822.898                    22216828.293
 11  8 20  2 53  0.0000000  0  9G30G12G26G15G05G25G29G21G02
 116563717.285 7  90828946.57545  22181341.484                    22181349.203
 118443782.424 7  92293940.967 6  22539104.023                    22539111.391
 117876520.127 7  91851900.69345  22431153.000                    22431161.371
 122153504.943 7  95184616.267 6  23245037.320                    23245044.574
 110375847.975 8  86007239.666 7  21003810.547                    21003817.734
 115012677.278 8  89620450.166 7  21886207.953                    21886218.371
 112978586.287 8  88035309.924 7  21499107.320                    21499114.520
 130601949.455 6 101767810.92042  24852727.211                    24852736.742
 116795062.182 7  91009239.86145  22225344.008                    22225349.836
 11  8 20  2 53 30.0000000  0  9G30G12G26G15G05G25G29G21G02
 116618864.312 7  90871918.27345  22191835.383                    22191843.203
 118530314.192 7  92361368.298 7  22555570.133                    22555577.844
 117796673.817 7  91789682.82545  22415958.492                    22415967.188
 122058198.762 7  95110351.782 6  23226900.688                    23226908.168
 110435171.151 8  86053465.528 7  21015099.813                    21015106.500
 115053214.113 8  89652037.292 7  21893922.117                    21893932.516
 112908456.714 8  87980663.521 7  21485762.313                    21485769.992
 130545683.819 6 101723967.67943  24842021.117                    24842030.000
 116839933.565 8  91044204.57245  22233883.109                    22233888.441
 11  8 20  2 54  0.0000000  0  9G30G12G26G15G05G25G29G21G02
 116674425.409 7  90915212.62945  22202408.313                    22202416.500
 118617061.125 7  92428963.314 7  22572077.383                    22572085.984
 117717162.678 7  91727726.17945  22400828.398                    22400837.324
 121962973.623 7  95036150.450 6  23208780.219                    23208787.453
 110494853.222 8  86099971.033 7  21026456.727                    21026463.676
 115094224.317 8  89683993.271 7  21901725.797                    21901736.102
 112838562.685 8  87926200.668 7  21472461.602                    21472469.223
 130489410.454 6 101680118.47743  24831312.531                    24831320.648
 116884895.569 8  91079239.90045  22242439.094                    22242444.434
 11  8 20  2 54 30.0000000  0  9G30G12G26G15G05G25G29G21G02
 116730397.719 7  90958827.40645  22213059.586                    22213067.309
 118704020.244 7  92496723.657 7  22588625.281                    22588633.066
 117637990.037 7  91666033.25845  22385762.359                    22385770.969
 121867832.325 7  94962014.446 6  23190675.102                    23190682.867
 110554891.555 8  86146754.138 7  21037881.789                    21037888.629
 115135705.631 8  89716316.365 7  21909619.508                    21909629.770
 112768906.856 8  87871923.442 7  21459206.453                    21459214.086
 130433129.001 6 101636262.95343  24820602.375                    24820610.215
 116929948.595 7  91114346.15145  22251012.422                    22251017.535
 11  8 20  2 55  0.0000000  0  9G30G12G26G15G05G25G29G21G02
 116786778.871 7  91002760.76145  22223788.977                    22223796.492
 118791188.946 7  92564647.319 7  22605213.125                    22605221.227
 117559160.278 7  91604607.52145  22370761.680                    22370769.586
 121772778.314 7  94887946.462 6  23172587.453                    23172594.688
 110615284.108 8  86193813.271 7  21049374.039                    21049381.055
 115177656.310 8  89749005.192 7  21917602.680                    21917612.789
 112699492.075 8  87817834.023 7  21445997.328                    21446004.961
 130376839.112 6 101592400.88643  24809890.742                    24809898.633
 116975093.217 7  91149523.78345  22259602.844                    22259608.176
 11  8 20  2 55 30.0000000  0  9G30G12G26G15G05G25G29G21G02
 116843565.794 7  91047010.30345  22234594.813                    22234602.656
 118878563.583 7  92632731.466 7  22621840.016                    22621847.586
 117480676.601 7  91543451.47545  22355826.164                    22355834.883
 121677814.496 7  94813948.748 6  23154515.305                    23154523.336
 110676028.385 8  86241146.476 7  21060932.984                    21060939.852
 115220073.836 8  89782057.782 7  21925674.531                    21925684.332
 112630320.276 8  87763933.949 7  21432834.633                    21432842.000
 130320540.210 6 101548531.76643  24799177.016                    24799185.668
 117020329.545 8  91184772.88345  22268211.672                    22268217.020
 11  8 20  2 56  0.0000000  0  9G30G12G26G15G05G25G29G21G02
 116900755.717 7  91091573.87845  22245477.781                    22245485.203
 118966141.593 7  92700974.073 7  22638505.563                    22638513.527
 117402542.697 7  91482567.96645  22340957.492                    22340966.355
 121582944.118 7  94740023.844 6  23136462.141                    23136469.805
 110737122.077 8  86288751.954 7  21072558.922                    21072565.910
 115262956.055 8  89815472.472 7  21933834.398                    21933844.445
 112561393.681 8  87710224.932 7  21419717.914                    21419725.688
 130264231.660 6 101504655.18143  24788461.109                    24788469.906
 117065658.100 7  91220093.82945  22276837.094                    22276842.398
 11  8 20  2 56 30.0000000  0  9G30G12G26G15G05G25G29G21G02
 116958345.771 7  91136449.23345  22256436.578                    22256445.059
 119053919.371 7  92769372.323 7  22655208.859                    22655217.078
 117324762.093 7  91421959.76045  22326156.563                    22326164.824
 121488170.057 7  94666174.003 6  23118427.133                    23118434.977
 110798562.533 7  86336627.635 7  21084250.438                    21084257.684
 115306300.685 8  89849247.497 7  21942082.313                    21942092.844
 112492714.752 8  87656708.904 7  21406649.242                    21406656.289
 130207912.877 6 101460770.58343  24777744.898                    24777753.094
 117111079.002 7  91255486.73645  22285480.148                    22285485.211
 11  8 20  2 57  0.0000000  0  9G30G12G26G15G05G25G29G21G02
 117016333.093 7  91181634.14845  22267471.164                    22267479.508
 119141894.043 7  92837924.034 7  22671949.758                    22671957.719
 117247338.477 7  91361629.71745  22311423.758                    22311431.660
 121393495.302 7  94592401.528 6  23100411.438                    23100419.473
 110860347.611 8  86384771.850 7  21096007.813                    21096015.055
 115350105.428 8  89883381.041 7  21950418.742                    21950428.637
 112424285.733 8  87603387.615 7  21393627.188                    21393634.305
 130151583.513 6 101416877.77243  24767024.867                    24767033.523
 117156592.463 7  91290951.77745  22294141.336                    22294146.332
 11  8 20  2 57 30.0000000  0  9G30G12G26G15G05G25G29G21G02
 117074715.043 7  91227126.56845  22278581.289                    22278589.207
 119230062.843 7  92906626.988 7  22688727.641                    22688736.398
 117170275.684 7  91301580.83145  22296758.727                    22296766.508
 121298923.172 7  94518709.026 6  23082414.523                    23082422.973
 110922474.812 8  86433182.651 7  21107830.648                    21107837.355
 115394368.196 8  89917871.508 7  21958841.500                    21958851.305
 112356109.511 8  87550263.308 7  21380654.063                    21380661.543
 130095243.204 6 101372976.40843  24756304.586                    24756312.070
 117202199.128 7  91326489.42645  22302819.875                    22302825.078
 11  8 20  2 58  0.0000000  0  9G30G12G26G15G05G25G29G21G02
 117133488.585 7  91272924.11245  22289765.273                    22289773.117
 119318422.503 7  92975478.674 7  22705542.313                    22705549.809
 117093577.083 7  91241815.74245  22282163.219                    22282172.094
 121204456.812 7  94445098.934 6  23064438.898                    23064446.285
 110984941.799 8  86481858.229 7  21119717.633                    21119724.363
 115439086.607 8  89952717.008 7  21967351.492                    21967361.211
 112288188.478 8  87497337.856 7  21367729.047                    21367736.715
 130038891.405 6 101329066.10843  24745580.852                    24745588.281
 117247899.081 7  91362099.78145  22311516.219                    22311521.602
 11  8 20  2 58 30.0000000  0  9G30G12G26G15G05G25G29G21G02
 117192650.647 7  91319024.41545  22301023.273                    22301031.527
 119406969.773 7  93044476.552 7  22722392.141                    22722400.281
 117017246.200 7  91182337.19545  22267638.414                    22267646.402
 121110098.822 7  94371573.304 6  23046482.102                    23046490.746
 111047745.771 8  86530796.386 7  21131668.508                    21131675.055
 115484258.134 8  89987915.582 7  21975947.234                    21975957.121
 112220524.424 8  87444612.638 7  21354852.781                    21354860.473
 129982527.173 6 101285146.05343  24734854.852                    24734863.074
 117293692.762 7  91397783.17745  22320230.008                    22320236.508
 11  8 20  2 59  0.0000000  0  9G30G12G26G15G05G25G29G21G02
 117252198.151 7  91365425.05145  22312355.313                    22312362.816
 119495701.507 7  93113618.144 7  22739277.484                    22739285.262
 116941286.425 7  91123147.79845  22253183.438                    22253191.699
 121015852.283 7  94298134.511 6  23028548.148                    23028555.930
 111110883.920 8  86579994.946 7  21143683.578                    21143690.191
 115529880.145 8  90023465.196 7  21984628.945                    21984638.828
 112153119.445 8  87392089.312 7  21342026.250                    21342033.719
 129926149.844 6 101241215.81643  24724125.836                    24724134.598
 117339580.285 7  91433539.68145  22328962.750                    22328968.406
 11  8 20  2 59 30.0000000  0  9G30G12G26G15G05G25G29G21G02
 117312128.393 7  91412123.92145  22323759.641                    22323767.398
 119584614.739 7  93182901.212 7  22756196.781                    22756204.594
 116865701.381 7  91064250.43145  22238799.984                    22238808.410
 120921720.635 7  94224785.241 6  23010635.648                    23010643.422
 111174354.438 8  86629452.504 7  21155761.531                    21155768.406
 115575950.611 8  90059364.251 7  21993395.547                    21993405.648
 112085976.504 8  87339770.172 7  21329249.281                    21329256.906
 129869759.276 6 101197275.23643  24713395.305                    24713403.180
 117385562.230 7  91469369.76345  22337712.508                    22337718.605
 11  8 20  3  0  0.0000000  0  9G30G12G26G15G05G25G29G21G02
 117372438.777 7  91459119.02045  22335236.469                    22335243.977
 119673706.747 7  93252323.542 7  22773150.500                    22773158.820
 116790495.185 7  91005648.25145  22224488.539                    22224497.016
 120827707.009 7  94151527.912 6  22992745.156                    22992753.027
 111238155.008 8  86679167.248 7  21167902.328                    21167908.922
 115622467.393 8  90095611.083 7  22002247.523                    22002257.484
 112019098.108 8  87287657.160 7  21316522.563                    21316530.027
 129813355.175 6 101153324.12743  24702661.984                    24702670.016
 117431638.904 7  91505273.65945  22346480.531                    22346486.559
 11  8 20  3  0 30.0000000  0 10G18G30G12G26G15G05G25G29G21G02
 129721535.83316 101081846.36653  24685210.797                    24685220.125
 117433126.079 7  91506407.81445  22346784.695                    22346792.172
 119762974.360 7  93321882.732 7  22790137.805                    22790145.566
 116715671.053 7  90947343.78645  22210250.250                    22210258.434
 120733814.442 7  94078364.930 6  22974877.969                    22974885.629
 111302282.924 8  86729137.060 7  21180105.305                    21180111.793
 115669427.939 8  90132203.716 7  22011183.711                    22011193.633
 111952486.434 8  87235751.993 7  21303846.805                    21303854.117
 129756936.845 6 101109361.92543  24691926.078                    24691933.395
 117477810.539 7  91541251.55045  22355266.758                    22355273.012
 11  8 20  3  1  0.0000000  0 10G18G30G12G26G15G05G25G29G21G02
 129631823.896 6 101011941.14443  24668139.242                    24668148.223
 117494186.711 7  91553987.51545  22358404.711                    22358412.234
 119852413.392 7  93391575.505 7  22807157.313                    22807165.016
 116641231.873 7  90889339.27245  22196085.469                    22196093.293
 120640045.423 7  94005298.198 6  22957034.703                    22957042.188
 111366734.877 8  86779359.371 7  21192370.359                    21192376.730
 115716829.035 8  90169139.629 7  22020203.758                    22020213.523
 111886143.120 8  87184055.949 7  21291221.992                    21291229.563
 129700503.139 6 101065387.66643  24681186.602                    24681194.008
 117524077.088 8  91577303.40045  22364071.695                    22364076.426
 11  8 20  3  1 30.0000000  0 10G18G30G12G26G15G05G25G29G21G02
 129542274.913 6 100942162.88143  24651098.297                    24651107.031
 117555618.515 7  91601856.43045  22370093.922                    22370101.742
 119942021.998 7  93461400.385 7  22824209.977                    22824217.176
 116567181.851 7  90831638.00845  22181993.836                    22182001.820
 120546403.591 7  93932330.576 6  22939214.961                    22939222.672
 111431509.438 8  86829833.063 7  21204696.195                    21204703.441
 115764669.136 8  90206417.637 7  22029307.359                    22029317.656
 111820071.341 8  87132571.487 7  21278648.930                    21278656.766
 129644054.366 6 101021401.70443  24670444.438                    24670452.656
 117570439.184 8  91613429.70845  22372893.633                    22372898.652
 11  8 20  3  2  0.0000000  0 10G18G30G12G26G15G05G25G29G21G02
 129452890.423 7 100872512.75843  24634089.523                    24634097.793
 117617418.299 7  91650012.09945  22381854.281                    22381862.641
 120031796.920 7  93531354.892 7  22841292.477                    22841300.852
 116493524.503 7  90774242.70845  22167977.570                    22167985.297
 120452892.085 7  93859464.516 6  22921420.414                    22921428.152
 111496603.775 8  86880555.934 7  21217083.250                    21217090.453
 115812945.535 8  90244035.607 7  22038494.227                    22038504.180
 111754273.240 8  87081300.284 7  21266128.063                    21266135.148
 129587589.686 6 100977403.34243  24659699.336                    24659708.211
 117616897.316 7  91649630.84945  22381734.414                    22381739.426
 11  8 20  3  2 30.0000000  0 10G18G30G12G26G15G05G25G29G21G02
 129363671.763 6 100802991.85843  24617111.266                    24617119.555
 117679583.113 7  91698452.19045  22393683.852                    22393692.063
 120121734.928 7  93601436.454 7  22858406.766                    22858415.320
 116420263.321 7  90717156.11245  22154035.750                    22154044.152
 120359513.855 7  93786702.302 6  22903650.727                    22903658.621
 111562015.593 8  86931526.183 7  21229530.875                    21229537.563
 115861655.823 7  90281991.683 7  22047763.602                    22047773.781
 111688751.339 8  87030244.287 7  21253659.313                    21253666.867
 129531108.729 6 100933392.32543  24648951.219                    24648960.699
 117663451.835 7  91685907.09945  22390593.406                    22390598.949
 11  8 20  3  3  0.0000000  0 10G18G30G12G26G15G05G25G29G21G02
 129274620.313 7 100733601.23843  24600164.992                    24600173.594
 117742110.083 7  91747174.49045  22405582.008                    22405590.414
 120211833.159 7  93671642.858 7  22875552.664                    22875561.016
 116347401.930 7  90660381.03745  22140170.914                    22140179.035
 120266272.255 7  93714046.569 6  22885907.555                    22885915.520
 111627742.563 8  86982742.015 7  21242038.188                    21242045.258
 115910797.680 8  90320284.033 7  22057115.016                    22057125.055
 111623508.074 8  86979405.421 7  21241244.023                    21241251.531
 129474611.024 6 100889368.23443  24638200.148                    24638209.129
 117710103.030 7  91722258.68345  22399470.883                    22399476.172
 11  8 20  3  3 30.0000000  0 10G18G30G12G26G15G05G25G29G21G02
 129185737.275 6 100664341.84943  24583250.797                    24583259.336
 117804995.973 7  91796176.48345  22417549.336                    22417556.949
 120302088.087 7  93741971.360 7  22892728.047                    22892735.750
 116274943.597 7  90603920.02745  22126382.445                    22126390.543
 120173170.227 7  93641499.616 6  22868190.609                    22868198.676
 111693781.950 8  87034201.281 7  21254605.242                    21254612.105
 115960368.329 8  90358910.521 7  22066548.000                    22066557.961
 111558545.635 8  86928785.371 7  21228882.078                    21228889.582
 129418095.829 6 100845330.49843  24627446.000                    24627454.488
 117756851.430 7  91758686.00845  22408366.547                    22408372.398
 11  8 20  3  4  0.0000000  0 10G18G30G12G26G15G05G25G29G21G02
 129097023.780 6 100595214.57542  24566369.383                    24566376.477
 117868237.617 7  91845455.67645  22429583.719                    22429591.543
 120392496.819 7  93812419.746 7  22909932.563                    22909939.871
 116202891.712 7  90547775.73345  22112671.742                    22112679.398
 120080210.563 7  93569063.558 6  22850500.641                    22850509.070
 111760131.010 8  87085901.846 7  21267230.836                    21267238.109
 116010365.100 8  90397869.048 7  22076062.273                    22076072.039
 111493866.080 8  86878385.747 7  21216573.969                    21216581.230
 129361562.518 6 100801278.65643  24616687.914                    24616696.066
 117803697.092 7  91795189.13845  22417281.414                    22417286.980
 11  8 20  3  4 30.0000000  0 10G18G30G12G26G15G05G25G29G21G02
 129008481.197 6 100526220.49342  24549519.914                    24549527.570
 117931832.007 7  91895009.73945  22441685.734                    22441693.375
 120483056.493 7  93882985.731 7  22927165.102                    22927172.922
 116131249.796 7  90491950.90545  22099038.227                    22099046.328
 119987396.417 7  93496740.907 7  22832838.734                    22832847.102
 111826787.309 8  87137841.823 7  21279915.047                    21279921.996
 116060785.484 8  90437157.658 7  22085656.570                    22085666.926
 111429472.031 8  86828208.604 7  21204320.031                    21204327.621
 129305011.007 6 100757212.62843  24605926.414                    24605934.313
 117850640.391 7  91831768.32445  22426214.125                    22426219.313
 11  8 20  3  5  0.0000000  0 10G18G30G12G26G15G05G25G29G21G02
 128920111.032 6 100457360.74442  24532703.406                    24532711.434
 117995776.591 7  91944836.67645  22453853.727                    22453861.637
 120573763.770 7  93953666.724 7  22944426.188                    22944434.070
 116060021.785 7  90436448.58245  22085484.055                    22085492.141
 119894731.411 7  93424534.464 6  22815205.438                    22815213.242
 111893748.964 8  87190019.732 7  21292657.578                    21292664.215
 116111627.403 8  90476774.744 7  22095331.391                    22095341.305
 111365366.231 8  86778256.060 7  21192121.102                    21192128.352
 129248440.945 6 100713132.16543  24595161.422                    24595169.301
 117897681.775 7  91868423.96745  22435165.609                    22435171.340
 11  8 20  3  5 30.0000000  0 10G18G30G12G26G15G05G25G29G21G02
 128831914.512 5 100388636.32152  24515919.125                    24515929.098
 118060068.046 7  91994933.92545  22466087.719                    22466096.023
 120664615.688 7  94024460.457 7  22961714.633                    22961722.027
 115989210.848 7  90381271.27345  22072009.258                    22072016.859
 119802218.163 7  93352446.289 7  22797600.500                    22797608.488
 111961013.056 8  87242433.309 7  21305457.672                    21305464.332
 116162888.040 8  90516718.086 7  22105086.070                    22105096.148
 111301550.894 8  86728529.853 7  21179977.563                    21179984.219
 129191851.461 7 100669036.53443  24584393.109                    24584401.238
 117944821.768 7  91905156.43145  22444136.680                    22444141.859
 11  8 20  3  6  0.0000000  0 10G18G30G12G26G15G05G25G29G21G02
 128743892.681 5                  24499167.555
 118124703.186 7  92045298.97345  22478386.961                    22478395.984
 120755609.099 7  94095364.401 7  22979030.172                    22979038.031
 115918820.099 7  90326421.37045  22058614.258                    22058621.773
 119709859.910 7  93280478.864 7  22780025.234                    22780033.160
 112028576.967 8  87295080.504 7  21318314.383                    21318321.629
 116214564.672 8  90556985.608 7  22114919.891                    22114930.039
 111238028.076 8  86679031.559 7  21167889.594                    21167896.668
 129135242.154 6 100624925.52043  24573620.727                    24573628.906
 117992060.526 7  91941965.86645  22453125.625                    22453130.250
 11  8 20  3  6 30.0000000  0 10G18G30G12G26G15G05G25G29G21G02
 128656046.75615                  24482451.914
 118189679.107 7  92095929.54945  22490752.234                    22490760.434
 120846741.139 7  94166376.387 7  22996371.445                    22996380.160
 115848853.519 7  90271901.98945  22045299.836                    22045307.508
 119617659.909 7  93208634.758 7  22762479.984                    22762488.297
 112096438.838 8  87347959.885 7  21331228.242                    21331235.004
 116266654.908 8  90597575.406 7  22124832.195                    22124842.730
 111174800.187 8  86629763.090 7  21155857.883                    21155865.145
 129078612.764 6 100580798.78743  24562844.164                    24562852.047
 118039398.556 7  91978852.64445  22462133.914                    22462138.902
 11  8 20  3  7  0.0000000  0 10G18G30G12G26G15G05G25G29G21G02
 128568378.321 5 100183268.98552  24465769.789                    24465778.492
 118254993.002 7  92146823.50745  22503180.547                    22503189.063
 120938008.887 7  94237494.141 6  23013738.969                    23013746.879
 115779314.418 7  90217715.71445  22032067.391                    22032074.887
 119525621.677 7  93136916.707 7  22744965.266                    22744974.086
 112164596.370 8  87401069.646 7  21344198.336                    21344204.793
 116319156.353 8  90638485.613 7  22134822.367                    22134833.090
 111111870.148 8  86580726.715 7  21143882.156                    21143889.305
 129021962.837 6 100536656.12543  24552063.703                    24552071.715
 118086836.450 7  92015817.24145  22471160.844                    22471166.371
 11  8 20  3  7 30.0000000  0 10G18G30G12G26G15G05G25G29G21G02
 128480888.566 6 100115095.33543  24449121.484                    24449130.672
 118320641.399 7  92197978.12145  22515673.203                    22515681.508
 121029408.905 7  94308714.955 7  23031131.750                    23031140.344
 115710206.211 7  90163865.19645  22018916.055                    22018923.887
 119433747.584 7  93065326.540 6  22727482.109                    22727490.875
 112233046.109 8  87454407.104 7  21357223.742                    21357231.195
 116372065.961 8  90679713.886 7  22144891.102                    22144901.078
 111049239.994 8  86531924.020 7  21131964.422                    21131971.453
 128965291.603 6 100492496.78643  24541279.125                    24541287.027
 118134374.181 7  92052859.64645  22480207.391                    22480212.609
 11  8 20  3  8  0.0000000  0 10G18G30G12G26G15G05G25G29G21G02
 128393578.204 6 100047061.46043  24432506.883                    24432516.727
 118386621.263 7  92249390.99645  22528229.117                    22528237.371
 121120937.965 7  94380036.304 6  23048548.930                    23048557.230
 115641532.113 7  90110352.93545  22005848.008                    22005856.059
 119342040.898 7  92993866.821 6  22710031.391                    22710040.008
 112301786.021 8  87507970.663 7  21370304.445                    21370311.480
 116425381.253 8  90721258.263 7  22155036.695                    22155047.020
 110986911.753 8  86483356.582 7  21120103.398                    21120110.711
 128908598.748 6 100448320.61843  24530491.539                    24530499.172
 118182012.204 7  92089980.18345  22489272.523                    22489278.078
 11  8 20  3  8 30.0000000  0 10G18G30G12G26G15G05G25G29G21G02
 128306448.712 6  99979168.53743  24415926.047                    24415936.094
 118452929.668 7  92301059.90345  22540846.523                    22540854.367
 121212593.383 7  94451456.139 6  23065990.438                    23065998.699
 115573295.574 7  90057181.64545  21992863.023                    21992870.535
 119250504.733 7  92922539.967 7  22692612.602                    22692621.047
 112370813.707 8  87561758.476 7  21383440.117                    21383447.051
 116479099.612 8  90763116.739 7  22165258.820                    22165268.875
 110924888.014 8  86435026.416 7  21108301.070                    21108308.141
 128851883.762 6 100404127.21343  24519699.000                    24519705.883
 118229750.954 7  92127179.20345  22498356.508                    22498361.594
 11  8 20  3  9  0.0000000  0 10G18G30G12G26G15G05G25G29G21G02
 128219501.228 6  99911417.39843  24399380.734                    24399390.090
 118519563.159 7  92352982.11445  22553526.875                    22553534.902
 121304371.806 7  94522971.793 6  23083455.828                    23083463.668
 115505499.757 7  90004353.76745  21979961.508                    21979969.777
 119159142.059 7  92851348.322 7  22675227.008                    22675235.074
 112440126.302 8  87615768.286 7  21396629.734                    21396637.086
 116533218.145 8  90805287.008 7  22175557.539                    22175567.859
 110863171.030 8  86386935.264 7  21096556.430                    21096563.477
 128795145.971 6 100359916.03943  24508901.922                    24508909.711
 118277590.734 7  92164456.94645  22507459.914                    22507465.777
 11  8 20  3  9 30.0000000  0 10G18G30G12G26G15G05G25G29G21G02
 128132736.807 6  99843808.90444  24382869.898                    24382879.145
 118586518.525 7  92405155.13045  22566268.047                    22566275.695
 121396269.998 7  94594580.774 6  23100943.078                    23100951.418
 115438147.874 7  89951871.81145  21967145.305                    21967152.770
 119067956.066 7  92780294.344 7  22657874.836                    22657882.938
 112509721.207 8  87669998.076 7  21409873.148                    21409880.457
 116587733.938 8  90847766.858 7  22185931.477                    22185941.574
 110801762.805 8  86339084.724 7  21084871.039                    21084877.855
 128738384.864 6 100315686.68743  24498100.805                    24498108.633
 118325531.813 7  92201813.61445  22516583.055                    22516588.023
 11  8 20  3 10  0.0000000  0 10G18G30G12G26G15G05G25G29G21G02
 128046157.010 6  99776344.31144  24366394.930                    24366403.398
 118653793.169 7  92457576.92945  22579070.008                    22579077.727
 121488285.352 7  94666281.065 6  23118453.375                    23118461.180
 115371244.007 7  89899738.95345  21954413.406                    21954421.398
 118976950.194 7  92709380.729 7  22640556.422                    22640564.945
 112579596.457 8  87724446.316 7  21423169.938                    21423176.961
 116642644.928 8  90890554.632 7  22196380.672                    22196391.074
 110740666.384 8  86291477.130 7  21073244.750                    21073251.609
 128681600.395 6 100271439.14943  24487294.859                    24487302.531
 118373574.921 7  92239249.79445  22525725.297                    22525730.746
 11  8 20  3 10 30.0000000  0 10G18G30G12G26G15G05G25G29G21G02
 127959762.955 7  99709024.42944  24349954.242                    24349962.938
 118721383.795 7  92510244.98045  22591932.023                    22591939.410
 121580414.628 7  94738070.132 6  23135985.141                    23135992.727
 115304791.181 7  89847957.56645  21941768.078                    21941775.438
 118886127.209 7  92638609.618 7  22623273.961                    22623281.848
 112649749.583 8  87779111.095 7  21436519.789                    21436526.855
 116697948.209 8  90933648.099 7  22206904.961                    22206914.730
 110679883.964 8  86244114.219 7  21061678.039                    21061685.320
 128624792.086 6 100227173.01843  24476484.633                    24476492.570
 118421720.201 7  92276765.58245  22534887.008                    22534892.047
 11  8 20  3 11  0.0000000  0 10G18G30G12G26G15G05G25G29G21G02
 127873556.257 6  99641850.52943  24333549.688                    24333558.355
 118789287.858 7  92563157.24145  22604853.727                    22604861.898
 121672655.349 7  94809946.024 6  23153538.250                    23153545.512
 115238793.231 7  89796530.63345  21929209.305                    21929217.152
 118795491.155 7  92567984.136 7  22606026.055                    22606034.121
 112720178.541 8  87833990.798 7  21449922.227                    21449928.699
 116753641.631 8  90977045.569 7  22217502.922                    22217513.348
 110619418.706 8  86196998.455 7  21050171.688                    21050178.820
 128567959.698 6 100182888.12543  24465669.016                    24465677.711
 118469968.677 7  92314361.77645  22544068.336                    22544073.824
 11  8 20  3 11 30.0000000  0 10G18G30G12G26G15G05G25G29G21G02
 127787537.701 6  99574823.22243  24317180.703                    24317189.020
 118857501.776 7  92616310.95845  22617833.758                    22617842.156
 121765004.158 7  94881906.153 6  23171111.383                    23171118.621
 115173253.011 7  89745460.36145  21916737.016                    21916744.898
 118705044.563 7  92497506.330 7  22588814.633                    22588823.242
 112790880.587 8  87889083.294 7  21463376.133                    21463383.121
 116809722.091 8  91020744.628 7  22228174.375                    22228184.383
 110559272.172 8  86150131.045 7  21038726.625                    21038733.512
 128511102.670 6 100138584.04143  24454849.766                    24454857.684
 118518320.299 7  92352038.34045  22553269.648                    22553274.375
 11  8 20  3 12  0.0000000  0 10G18G30G12G26G15G05G25G29G21G02
 127701708.360 7  99507943.37143  24300847.883                    24300856.273
 118926021.906 7  92669703.29545  22630872.984                    22630881.148
 121857457.519 7  94953947.751 6  23188704.867                    23188711.703
 115108173.429 7  89694749.02745  21904352.883                    21904361.016
 118614790.009 7  92427178.142 7  22571640.047                    22571647.996
 112861852.536 8  87944386.112 7  21476881.781                    21476888.637
 116866186.305 8  91064742.709 7  22238919.125                    22238929.516
 110499446.182 8  86103513.393 7  21027342.031                    21027349.066
 128454219.940 6 100094259.91943  24444025.227                    24444033.441
 118566775.263 7  92389795.45145  22562490.406                    22562495.313
 11  8 20  3 12 30.0000000  0 10G18G30G12G26G15G05G25G29G21G02
 127616069.267 6  99441211.74543  24284550.227                    24284559.031
 118994845.701 7  92723332.22844  22643969.719                    22643978.285
 121950012.733 7  95026068.696 6  23206317.375                    23206324.879
 115043558.295 7  89644399.61445  21892057.063                    21892064.750
 118524731.241 7  92357002.523 7  22554502.695                    22554510.680
 112933092.501 8  87999897.768 7  21490438.406                    21490444.934
 116923032.105 7  91109038.132 7  22249736.461                    22249746.586
 110439943.895 8  86057147.987 7  21016019.117                    21016026.461
 128397311.734 6 100049915.96343  24433196.352                    24433203.727
 118615334.462 7  92427633.77945  22571730.555                    22571736.590
 11  8 20  3 13  0.0000000  0 10G18G30G12G26G15G05G25G29G21G02
 127530621.739 6  99374629.40443  24268290.719                    24268299.434
 119063970.069 7  92777195.38444  22657123.469                    22657131.781
 122042666.980 7  95098266.819 6  23223948.781                    23223956.234
 114979411.158 7  89594414.87645  21879850.156                    21879858.051
 118434871.090 7  92286981.660 7  22537402.813                    22537410.668
 113004598.294 8  88055616.568 7  21504045.188                    21504052.180
 116980256.832 7  91153628.837 7  22260625.953                    22260636.078
 110380767.519 8  86011036.531 7  21004758.266                    21004765.191
 128340377.963 6 100005552.06543  24422362.273                    24422369.188
 118663997.888 7  92465553.35045  22580990.992                    22580996.602
 11  8 20  3 13 30.0000000  0 10G18G30G12G26G15G05G25G29G21G02
 127445366.908 6  99308197.21743  24252067.148                    24252075.801
 119133391.597 7  92831290.08444  22670334.148                    22670342.184
 122135416.973 7  95170539.549 6  23241598.563                    23241605.813
 114915734.848 7  89544797.00545  21867732.969                    21867741.258
 118345212.914 7  92217118.181 6  22520341.703                    22520349.020
 113076367.002 8  88111540.222 7  21517702.336                    21517709.250
 117037857.420 7  91198512.408 7  22271587.531                    22271597.191
 110321919.354 8  85965180.845 7  20993559.922                    20993566.988
 128283417.302 6  99961167.22343  24411522.211                    24411530.504
 118712766.331 7  92503554.73945  22590271.516                    22590276.809
 11  8 20  3 14  0.0000000  0 10G18G30G12G26G15G05G25G29G21G02
 127360305.802 6  99241915.99843  24235880.250                    24235888.598
 119203107.062 7  92885613.81144  22683600.875                    22683608.270
 122228259.629 7  95242884.482 6  23259266.055                    23259273.766
 114852532.501 7  89495548.44845  21855705.930                    21855714.160
 118255759.509 7  92147414.280 7  22503318.938                    22503326.883
 113148396.115 8  88167666.797 7  21531409.125                    21531415.910
 117095830.999 8  91243686.615 7  22282619.203                    22282629.324
 110263401.318 8  85919582.387 7  20982424.055                    20982431.391
 128226429.579 6  99916761.29143  24400678.422                    24400685.680
 118761639.904 7  92541638.03445  22599571.750                    22599577.961
 11  8 20  3 14 30.0000000  0 10G18G30G12G26G15G05G25G29G21G02
 127275439.847 6  99175786.83843  24219729.938                    24219738.934
 119273113.653 7  92940164.41944  22696922.555                    22696929.898
 122321192.366 7  95315299.609 6  23276950.602                    23276957.461
 114789807.784 8  89446672.08245  21843769.383                    21843777.680
 118166514.600 7  92077872.841 7  22486336.227                    22486343.363
 113220683.528 8  88223994.642 7  21545164.922                    21545171.730
 117154175.220 7  91289149.647 7  22293721.414                    22293731.348
 110205216.816 8  85874243.845 7  20971351.992                    20971359.230
 128169414.755 6  99872334.28543  24389828.555                    24389836.309
 118810619.401 7  92579803.87845  22608892.211                    22608897.824
 11  8 20  3 15  0.0000000  0 10G18G30G12G26G15G05G25G29G21G02
 127190770.350 6  99109810.76143  24203618.359                    24203626.695
 119343408.284 7  92994939.43944  22710298.977                    22710306.680
 122414211.784 7  95387782.276 6  23294651.578                    23294659.090
 114727564.026 7  89398170.48945  21831925.492                    21831933.016
 118077481.276 7  92008496.272 7  22469393.930                    22469400.934
 113293226.890 8  88280521.937 7  21558969.586                    21558976.129
 117212887.275 7  91334899.293 7  22304894.555                    22304904.156
 110147367.823 8  85829166.728 7  20960343.680                    20960350.906
 128112372.532 6  99827885.92543  24378973.969                    24378980.707
 118859705.051 7  92618052.43645  22618233.289                    22618238.172
 11  8 20  3 15 30.0000000  0 10G18G30G12G26G15G05G25G29G21G02
 127106297.818 6  99043988.19043  24187543.617                    24187552.766
 119413987.445 7  93049936.20044  22723729.914                    22723737.371
 122507315.106 7  95460330.326 6  23312368.656                    23312375.859
 114665804.013 7  89350045.83645  21820172.398                    21820180.723
 117988662.115 7  91939286.561 7  22452492.352                    22452499.160
 113366023.481 8  88337246.543 7  21572822.281                    21572828.941
 117271964.051 7  91380933.143 7  22316136.203                    22316145.922
 110089856.138 8  85784352.453 7  20949399.555                    20949406.527
 128055302.227 7  99783415.63843  24368113.797                    24368120.824
 118908897.088 7  92656383.87845  22627593.891                    22627598.887
 11  8 20  3 16  0.0000000  0 10G18G30G12G26G15G05G25G29G21G02
 127022023.620 6  98978320.06443  24171507.086                    24171515.410
 119484847.959 7  93105152.17444  22737214.055                    22737221.816
 122600499.132 7  95532941.264 6  23330100.547                    23330108.227
 114604530.881 7  89302300.55945  21808512.828                    21808520.445
 117900060.172 7  91870246.122 6  22435631.344                    22435638.902
 113439070.773 8  88394166.495 7  21586722.656                    21586729.758
 117331402.723 7  91427248.989 7  22327446.703                    22327457.164
 110032684.391 7  85739803.066 7  20938520.250                    20938527.191
 127998203.109 6  99738922.92543  24357246.984                    24357255.039
 118958196.166 7  92694798.75945  22636975.273                    22636980.266
 11  8 20  3 16 30.0000000  0 10G18G30G12G26G15G05G25G29G21G02
 126937948.682 6  98912807.28543  24155507.727                    24155516.195
 119555986.887 7  93160585.12244  22750751.445                    22750759.422
 122693760.786 7  95605612.719 6  23347847.281                    23347854.777
 114543748.084 7  89254937.37145  21796946.180                    21796953.996
 117811679.232 7  91801377.904 6  22418812.891                    22418820.398
 113512366.621 8  88451280.136 7  21600670.438                    21600677.551
 117391200.721 7  91473844.832 7  22338826.422                    22338836.172
 109975855.047 8  85695520.469 7  20927705.484                    20927712.641
 127941075.273 6  99694407.81643  24346376.609                    24346383.801
 119007602.791 7  92733297.43645  22646376.602                    22646381.852
 11  8 20  3 17  0.0000000  0 10G18G30G12G26G15G05G25G29G21G02
 126854074.418 6  98847450.78143  24139546.680                    24139554.734
 119627400.875 7  93216232.39244  22764341.438                    22764349.445
 122787096.838 7  95678342.144 6  23365608.570                    23365616.164
 114483458.918 7  89207958.82745  21785473.461                    21785481.602
 117723521.927 7  91732683.946 7  22402037.133                    22402044.164
 113585908.403 8  88508585.415 7  21614665.133                    21614672.344
 117451355.007 7  91520718.284 7  22350273.367                    22350283.531
 109919370.335 8  85651506.432 7  20916957.445                    20916964.277
 127883918.031 6  99649869.75443  24335499.742                    24335507.000
 119057117.246 7  92771880.12444  22655799.281                    22655804.332
 11  8 20  3 17 30.0000000  0 10G18G30G12G26G15G05G25G29G21G02
 126770401.354 6  98782251.09243  24123624.469                    24123631.957
 119699086.786 7  93272091.53345  22777982.516                    22777991.023
 122880504.753 7  95751127.551 6  23383383.797                    23383391.793
 114423666.414 7  89161367.31045  21774095.203                    21774103.070
 117635591.326 7  91664166.626 7  22385304.836                    22385312.051
 113659693.648 8  88566080.398 7  21628706.203                    21628713.328
 117511862.727 7  91567867.151 7  22361786.750                    22361797.645
 109863232.643 8  85607762.783 7  20906274.063                    20906281.488
 127826731.246 6  99605308.76743  24324618.328                    24324624.098
 119106740.053 7  92810547.23745  22665242.219                    22665247.855
 11  8 20  3 18  0.0000000  0 10G18G30G12G26G15G05G25G29G21G02
 126686930.931 6  98717209.35443  24107740.508                    24107748.480
 119771041.258 7  93328159.95545  22791674.961                    22791683.105
 122973981.253 7  95823966.436 6  23401171.891                    23401178.809
 114364373.328 7  89115164.93645  21762812.258                    21762819.820
 117547890.706 7  91595828.520 6  22368615.398                    22368622.859
 113733720.081 8  88623763.336 7  21642792.625                    21642799.719
 117572720.975 7  91615289.163 7  22373367.859                    22373378.656
 109807443.889 8  85564291.040 7  20895658.086                    20895665.387
 127769514.221 7  99560724.12143  24313729.188                    24313736.613
 119156471.429 7  92849298.93544  22674705.711                    22674711.191
 11  8 20  3 18 30.0000000  0 10G18G30G12G26G15G05G25G29G21G02
 126603664.416 6  98652326.44543  24091894.727                    24091903.547
 119843261.539 7  93384435.49944  22805417.859                    22805425.828
 123067523.613 7  95896856.596 6  23418972.445                    23418979.793
 114305583.194 7  89069354.47545  21751624.586                    21751632.082
 117460423.449 7  91527672.243 7  22351970.969                    22351978.664
 113807985.113 8  88681632.190 7  21656924.734                    21656931.746
 117633927.118 7  91662982.271 7  22385015.320                    22385025.523
 109752007.148 8  85521093.589 7  20885108.852                    20885115.816
 127712267.003 6  99516115.99943  24302835.414                    24302842.227
 119206312.046 7  92888135.77345  22684190.242                    22684195.930
